[[{"header":{"parameterUnit":"m.s-1","parameterCategory":1,"la1":31.0,"la2":29.5877,"lo1":-88.7671,"lo2":-86.6584,"dy":0.0162,"dx":0.0185,"nx":115,"ny":88,"refTime":"2023-09-15T06:00:00:Z","depth":0,"parameterNumber":2,"parameterNumberName":"U-component_of_WINDS"},"data":[0.0,0.0,0.0,0.0,0.0,0.0,0.0,0.0,0.0,0.0,0.0,0.0,0.0,0.0,0.0,0.0,0.0,0.0,0.0,0.0,0.0,0.0,0.0,0.0,0.0,0.0,0.0,0.0,0.0,0.0,0.0,0.0,0.0,0.0,0.0,0.0,0.0,0.0,0.0,0.0,0.0,0.0,0.0,0.0,0.0,0.0,0.0,0.0,0.0,0.0,0.0,0.0,0.0,0.0,0.0,0.0,0.0,0.0,0.0,0.0,0.0,0.0,0.0,0.0,0.0,0.0,0.0,0.0,0.0,0.0,0.0,0.0,0.0,0.0,0.0,0.0,0.0,0.0,0.0,0.0,0.0,0.0,0.0,0.0,0.0,0.0,0.0,0.0,0.0,0.0,0.0,0.0,0.0,0.0,0.0,0.0,0.0,0.0,0.0,0.0,0.0,0.0,0.0,0.0,0.0,0.0,0.0,0.0,0.0,0.0,0.0,0.0,0.0,0.0,0.0,0.0,0.0,0.0,0.0,0.0,0.0,0.0,0.0,0.0,0.0,0.0,0.0,0.0,0.0,0.0,0.0,0.0,0.0,0.0,0.0,0.0,0.0,0.0,0.0,0.0,0.0,0.0,0.0,0.0,0.0,0.0,0.0,0.0,0.0,0.0,0.0,0.0,0.0,0.0,0.0,0.0,0.0,0.0,0.0,0.0,0.0,0.0,0.0,0.0,0.0,0.0,0.0,0.0,0.0,0.0,0.0,0.0,0.0,0.0,0.0,0.0,0.0,0.0,0.0,0.0,0.0,0.0,0.0,0.0,0.0,0.0,0.0,0.0,0.0,0.0,0.0,0.0,0.0,0.0,0.0,0.0,0.0,0.0,0.0,0.0,0.0,0.0,0.0,0.0,0.0,0.0,0.0,0.0,0.0,0.0,0.0,0.0,0.0,0.0,0.0,0.0,0.0,0.0,0.0,0.0,0.0,0.0,0.0,0.0,0.0,0.0,0.0,0.0,0.0,0.0,0.0,0.0,0.0,0.0,0.0,0.0,0.0,0.0,0.0,0.0,0.0,0.0,0.0,0.0,0.0,0.0,0.0,0.0,0.0,0.0,0.0,0.0,0.0,0.0,0.0,0.0,0.0,0.0,0.0,0.0,0.0,0.0,0.0,0.0,0.0,0.0,0.0,0.0,0.0,0.0,0.0,0.0,0.0,0.0,0.0,0.0,0.0,0.0,0.0,0.0,0.0,0.0,0.0,0.0,0.0,0.0,0.0,0.0,0.0,0.0,0.0,0.0,0.0,0.0,0.0,0.0,0.0,0.0,0.0,0.0,0.0,0.0,0.0,0.0,0.0,0.0,0.0,0.0,0.0,0.0,0.0,0.0,0.0,0.0,0.0,0.0,0.0,0.0,0.0,0.0,0.0,0.0,0.0,0.0,0.0,0.0,0.0,0.0,0.0,0.0,0.0,0.0,0.0,0.0,0.0,0.0,0.0,0.0,0.0,0.0,0.0,0.0,0.0,0.0,0.0,0.0,0.0,0.0,0.0,0.0,0.0,0.0,0.0,0.0,0.0,0.0,0.0,0.0,0.0,0.0,0.0,0.0,0.0,0.0,0.0,0.0,0.0,0.0,0.0,0.0,0.0,0.0,0.0,0.0,0.0,0.0,0.0,0.0,0.0,0.0,0.0,0.0,0.0,0.0,0.0,0.0,0.0,0.0,0.0,0.0,0.0,0.0,0.0,0.0,0.0,0.0,0.0,0.0,0.0,0.0,0.0,0.0,0.0,0.0,0.0,0.0,0.0,0.0,0.0,0.0,0.0,0.0,0.0,0.0,0.0,0.0,0.0,0.0,0.0,0.0,0.0,0.0,0.0,0.0,0.0,0.0,0.0,0.0,0.0,0.0,0.0,0.0,0.0,0.0,0.0,0.0,0.0,0.0,0.0,0.0,0.0,0.0,0.0,0.0,0.0,0.0,0.0,0.0,0.0,0.0,0.0,0.0,0.0,0.0,0.0,0.0,0.0,0.0,0.0,0.0,0.0,0.0,0.0,0.0,0.0,0.0,0.0,0.0,0.0,0.0,0.0,0.0,0.0,0.0,0.0,0.0,0.0,0.0,0.0,0.0,0.0,0.0,0.0,0.0,0.0,0.0,0.0,0.0,0.0,0.0,0.0,0.0,0.0,0.0,0.0,0.0,0.0,0.0,0.0,0.0,0.0,0.0,0.0,0.0,0.0,0.0,0.0,0.0,0.0,0.0,0.0,0.0,0.0,0.0,0.0,0.0,0.0,0.0,0.0,0.0,0.0,0.0,0.0,0.0,0.0,0.0,0.0,0.0,0.0,0.0,0.0,0.0,0.0,0.0,0.0,0.0,0.0,0.0,0.0,0.0,0.0,0.0,0.0,0.0,0.0,0.0,0.0,0.0,0.0,0.0,0.0,0.0,0.0,0.0,0.0,0.0,0.0,0.0,0.0,0.0,0.0,0.0,0.0,0.0,0.0,0.0,0.0,0.0,0.0,0.0,0.0,0.0,0.0,0.0,0.0,0.0,0.0,0.0,0.0,0.0,0.0,0.0,0.0,0.0,0.0,0.0,0.0,0.0,0.0,0.0,0.0,0.0,0.0,0.0,0.0,0.0,0.0,0.0,0.0,0.0,0.0,0.0,0.0,0.0,0.0,0.0,0.0,0.0,0.0,0.0,0.0,0.0,0.0,0.0,0.0,0.0,0.0,0.0,0.0,0.0,0.0,0.0,0.0,0.0,0.0,0.0,0.0,0.0,0.0,0.0,0.0,0.0,0.0,0.0,0.0,0.0,0.0,0.0,0.0,0.0,0.0,0.0,0.0,0.0,0.0,0.0,0.0,0.0,0.0,0.0,0.0,0.0,0.0,0.0,0.0,0.0,0.0,0.0,0.0,0.0,0.0,0.0,0.0,0.0,0.0,0.0,0.0,0.0,0.0,0.0,0.0,0.0,0.0,0.0,0.0,0.0,0.0,0.0,0.0,0.0,0.0,0.0,0.0,0.0,0.0,0.0,0.0,0.0,0.0,0.0,0.0,0.0,0.0,0.0,0.0,0.0,0.0,0.0,0.0,0.0,0.0,0.0,0.0,0.0,0.0,0.0,0.0,0.0,0.0,0.0,0.0,0.0,0.0,0.0,0.0,0.0,0.0,0.0,0.0,0.0,0.0,0.0,0.0,0.0,0.0,0.0,0.0,0.0,0.0,0.0,0.0,0.0,0.0,0.0,0.0,0.0,0.0,0.0,0.0,0.0,0.0,0.0,0.0,0.0,0.0,0.0,0.0,0.0,0.0,0.0,0.0,0.0,0.0,0.0,0.0,0.0,0.0,0.0,0.0,0.0,0.0,0.0,0.0,0.0,0.0,0.0,0.0,0.0,0.0,0.0,0.0,0.0,0.0,0.0,0.0,0.0,0.0,0.0,0.0,0.0,0.0,0.0,0.0,0.0,0.0,0.0,0.0,0.0,0.0,0.0,0.0,0.0,0.0,0.0,0.0,0.0,0.0,0.0,0.0,0.0,0.0,0.0,0.0,0.0,0.0,0.0,0.0,0.0,0.0,0.0,0.0,0.0,0.0,0.0,0.0,0.0,0.0,0.0,0.0,0.0,0.0,0.0,0.0,0.0,0.0,0.0,0.0,0.0,0.0,0.0,0.0,0.0,0.0,0.0,0.0,0.0,0.0,0.0,0.0,0.0,0.0,0.0,0.0,0.0,0.0,0.0,0.0,0.0,0.0,0.0,0.0,0.0,0.0,0.0,0.0,0.0,0.0,0.0,0.0,0.0,0.0,0.0,0.0,0.0,0.0,0.0,0.0,0.0,0.0,0.0,0.0,0.0,0.0,0.0,0.0,0.0,0.0,0.0,0.0,0.0,0.0,0.0,0.0,0.0,0.0,0.0,0.0,0.0,0.0,0.0,0.0,0.0,0.0,0.0,0.0,0.0,0.0,0.0,0.0,0.0,0.0,0.0,0.0,0.0,0.0,0.0,0.0,0.0,0.0,0.0,0.0,0.0,0.0,0.0,0.0,0.0,0.0,0.0,0.0,0.0,0.0,0.0,0.0,0.0,0.0,0.0,0.0,0.0,0.0,0.0,0.0,0.0,0.0,0.0,0.0,0.0,0.0,0.0,0.0,0.0,0.0,0.0,0.0,0.0,0.0,0.0,0.0,0.0,0.0,0.0,0.0,0.0,0.0,0.0,0.0,0.0,0.0,0.0,0.0,0.0,0.0,0.0,0.0,0.0,0.0,0.0,3.9607,0.0,0.0,0.0,0.0,0.0,0.0,0.0,0.0,0.0,0.0,0.0,0.0,0.0,0.0,0.0,0.0,0.0,0.0,0.0,0.0,0.0,0.0,0.0,0.0,0.0,0.0,0.0,0.0,0.0,0.0,0.0,0.0,0.0,0.0,0.0,0.0,0.0,0.0,0.0,0.0,0.0,0.0,0.0,0.0,0.0,0.0,0.0,0.0,0.0,0.0,0.0,0.0,0.0,0.0,0.0,0.0,0.0,0.0,0.0,0.0,0.0,0.0,0.0,0.0,0.0,0.0,0.0,0.0,0.0,0.0,0.0,0.0,0.0,0.0,0.0,0.0,0.0,0.0,0.0,0.0,0.0,0.0,0.0,0.0,0.0,0.0,0.0,0.0,0.0,0.0,0.0,0.0,0.0,0.0,0.0,0.0,0.0,0.0,0.0,0.0,0.0,0.0,0.0,0.0,0.0,0.0,0.0,0.0,0.0,0.0,4.4002,4.3544,4.2619,4.1805,4.1067,0.0,0.0,0.0,0.0,0.0,0.0,0.0,0.0,0.0,0.0,0.0,0.0,0.0,0.0,0.0,0.0,0.0,0.0,0.0,0.0,0.0,0.0,0.0,0.0,0.0,0.0,0.0,0.0,0.0,0.0,0.0,0.0,0.0,0.0,0.0,0.0,0.0,0.0,0.0,0.0,0.0,0.0,0.0,0.0,0.0,0.0,0.0,0.0,0.0,0.0,0.0,0.0,0.0,0.0,0.0,0.0,0.0,0.0,0.0,0.0,0.0,0.0,0.0,0.0,0.0,0.0,0.0,0.0,0.0,0.0,0.0,0.0,0.0,0.0,0.0,0.0,0.0,0.0,0.0,0.0,0.0,0.0,0.0,0.0,0.0,0.0,0.0,0.0,0.0,0.0,0.0,0.0,0.0,0.0,0.0,0.0,0.0,0.0,0.0,0.0,0.0,0.0,0.0,0.0,0.0,0.0,0.0,0.0,0.0,0.0,0.0,0.0,4.3827,4.2669,4.1877,0.0,0.0,0.0,0.0,0.0,0.0,0.0,0.0,0.0,0.0,0.0,0.0,0.0,0.0,0.0,0.0,0.0,0.0,0.0,0.0,0.0,0.0,0.0,0.0,0.0,0.0,0.0,0.0,0.0,0.0,0.0,0.0,0.0,0.0,0.0,0.0,0.0,0.0,0.0,0.0,0.0,0.0,0.0,0.0,0.0,0.0,0.0,0.0,0.0,0.0,0.0,0.0,0.0,0.0,0.0,0.0,0.0,0.0,0.0,0.0,0.0,0.0,0.0,0.0,0.0,0.0,0.0,0.0,0.0,0.0,0.0,0.0,0.0,0.0,0.0,0.0,0.0,0.0,0.0,0.0,0.0,0.0,0.0,0.0,0.0,0.0,0.0,0.0,0.0,0.0,0.0,0.0,0.0,0.0,0.0,0.0,0.0,0.0,0.0,0.0,0.0,0.0,0.0,0.0,0.0,0.0,0.0,0.0,0.0,0.0,4.6719,4.595,4.4874,0.0,4.0068,0.0,0.0,0.0,0.0,0.0,0.0,0.0,0.0,0.0,0.0,0.0,0.0,0.0,0.0,0.0,0.0,0.0,0.0,0.0,0.0,0.0,0.0,0.0,0.0,0.0,0.0,0.0,0.0,0.0,0.0,0.0,0.0,0.0,0.0,0.0,0.0,0.0,0.0,0.0,0.0,0.0,0.0,0.0,0.0,0.0,0.0,0.0,0.0,0.0,0.0,0.0,0.0,0.0,0.0,0.0,0.0,0.0,0.0,0.0,0.0,0.0,0.0,0.0,0.0,0.0,0.0,0.0,0.0,0.0,0.0,0.0,0.0,0.0,0.0,0.0,0.0,0.0,0.0,0.0,0.0,0.0,0.0,0.0,0.0,0.0,0.0,0.0,0.0,0.0,0.0,0.0,0.0,0.0,0.0,0.0,0.0,0.0,0.0,0.0,0.0,0.0,0.0,0.0,0.0,0.0,0.0,0.0,0.0,0.0,0.0,4.6489,4.6344,4.4483,4.2229,0.0,0.0,0.0,0.0,0.0,0.0,0.0,0.0,0.0,0.0,0.0,0.0,0.0,0.0,0.0,0.0,0.0,0.0,0.0,0.0,0.0,0.0,0.0,0.0,0.0,0.0,0.0,0.0,0.0,0.0,0.0,0.0,0.0,0.0,0.0,0.0,0.0,0.0,0.0,0.0,0.0,0.0,0.0,0.0,0.0,0.0,0.0,0.0,0.0,0.0,0.0,0.0,0.0,0.0,0.0,0.0,0.0,0.0,0.0,0.0,0.0,0.0,0.0,0.0,0.0,0.0,0.0,0.0,0.0,0.0,0.0,0.0,0.0,0.0,0.0,0.0,0.0,0.0,0.0,0.0,0.0,0.0,0.0,0.0,0.0,0.0,0.0,0.0,0.0,0.0,0.0,0.0,0.0,0.0,0.0,0.0,0.0,0.0,0.0,0.0,0.0,0.0,0.0,0.0,0.0,0.0,0.0,0.0,0.0,0.0,4.5275,4.5614,4.5623,4.3746,4.1585,3.9308,0.0,0.0,0.0,0.0,0.0,0.0,0.0,0.0,0.0,0.0,0.0,0.0,0.0,0.0,0.0,0.0,0.0,0.0,0.0,0.0,0.0,0.0,0.0,0.0,0.0,0.0,0.0,0.0,0.0,0.0,0.0,0.0,0.0,0.0,0.0,0.0,0.0,0.0,0.0,0.0,0.0,0.0,0.0,0.0,0.0,0.0,0.0,0.0,0.0,0.0,0.0,0.0,0.0,0.0,0.0,0.0,0.0,0.0,0.0,0.0,0.0,0.0,0.0,0.0,0.0,0.0,0.0,0.0,0.0,0.0,0.0,0.0,0.0,0.0,0.0,0.0,0.0,0.0,0.0,0.0,0.0,0.0,0.0,0.0,0.0,0.0,0.0,0.0,0.0,0.0,0.0,0.0,0.0,0.0,0.0,0.0,0.0,0.0,0.0,0.0,0.0,0.0,0.0,0.0,0.0,0.0,0.0,0.0,4.4671,4.4467,4.4078,4.3676,4.2875,4.1359,0.0,0.0,0.0,0.0,0.0,0.0,0.0,0.0,0.0,0.0,0.0,0.0,0.0,0.0,0.0,0.0,0.0,0.0,0.0,0.0,0.0,0.0,0.0,0.0,0.0,0.0,0.0,0.0,0.0,0.0,0.0,0.0,0.0,0.0,0.0,0.0,0.0,0.0,0.0,0.0,0.0,0.0,0.0,0.0,0.0,0.0,0.0,0.0,0.0,0.0,0.0,0.0,0.0,0.0,0.0,0.0,0.0,0.0,0.0,0.0,0.0,0.0,0.0,0.0,0.0,0.0,0.0,0.0,0.0,0.0,0.0,0.0,0.0,0.0,0.0,0.0,0.0,0.0,0.0,0.0,0.0,0.0,0.0,0.0,0.0,0.0,0.0,0.0,0.0,0.0,0.0,0.0,0.0,0.0,0.0,0.0,0.0,0.0,0.0,0.0,0.0,0.0,0.0,0.0,0.0,0.0,0.0,0.0,0.0,4.3114,4.3543,4.3376,4.2535,4.1294,3.9715,0.0,0.0,0.0,0.0,0.0,0.0,0.0,0.0,0.0,0.0,0.0,0.0,0.0,0.0,0.0,0.0,0.0,0.0,0.0,0.0,0.0,0.0,0.0,0.0,0.0,0.0,0.0,0.0,0.0,0.0,0.0,0.0,0.0,0.0,0.0,0.0,0.0,0.0,0.0,0.0,0.0,0.0,0.0,0.0,0.0,0.0,0.0,0.0,0.0,0.0,0.0,0.0,0.0,0.0,0.0,0.0,0.0,0.0,0.0,0.0,0.0,0.0,0.0,0.0,0.0,0.0,0.0,0.0,0.0,0.0,0.0,0.0,0.0,0.0,0.0,0.0,0.0,0.0,0.0,0.0,0.0,0.0,0.0,0.0,0.0,0.0,0.0,0.0,0.0,0.0,0.0,0.0,0.0,0.0,0.0,0.0,0.0,0.0,0.0,0.0,0.0,0.0,0.0,0.0,0.0,0.0,0.0,0.0,0.0,4.2296,0.0,4.3328,4.2305,4.0762,3.899,0.0,0.0,0.0,0.0,0.0,0.0,0.0,0.0,0.0,0.0,0.0,0.0,0.0,0.0,0.0,0.0,0.0,0.0,0.0,0.0,0.0,0.0,0.0,0.0,0.0,0.0,0.0,0.0,0.0,0.0,0.0,0.0,0.0,0.0,0.0,0.0,0.0,0.0,0.0,0.0,0.0,0.0,0.0,0.0,0.0,0.0,0.0,0.0,0.0,0.0,0.0,0.0,0.0,0.0,0.0,0.0,0.0,0.0,0.0,0.0,0.0,0.0,0.0,0.0,0.0,0.0,0.0,0.0,0.0,0.0,0.0,0.0,0.0,0.0,0.0,0.0,0.0,0.0,0.0,0.0,0.0,0.0,0.0,0.0,0.0,0.0,0.0,0.0,0.0,0.0,0.0,0.0,0.0,0.0,0.0,0.0,0.0,0.0,0.0,0.0,0.0,0.0,0.0,0.0,0.0,0.0,0.0,0.0,4.0153,4.2404,4.3736,4.3886,4.2962,4.127,3.9296,0.0,0.0,0.0,0.0,0.0,0.0,0.0,0.0,0.0,0.0,0.0,0.0,0.0,0.0,0.0,0.0,0.0,0.0,0.0,0.0,0.0,0.0,0.0,0.0,0.0,0.0,0.0,0.0,0.0,0.0,0.0,0.0,0.0,0.0,0.0,0.0,0.0,0.0,0.0,0.0,0.0,0.0,0.0,0.0,0.0,0.0,0.0,0.0,0.0,0.0,0.0,0.0,0.0,0.0,0.0,0.0,0.0,0.0,0.0,0.0,0.0,0.0,0.0,0.0,0.0,0.0,0.0,0.0,0.0,0.0,0.0,0.0,0.0,0.0,0.0,0.0,0.0,0.0,0.0,0.0,0.0,0.0,0.0,0.0,0.0,0.0,0.0,0.0,0.0,0.0,0.0,0.0,0.0,0.0,0.0,0.0,0.0,0.0,0.0,0.0,0.0,0.0,0.0,0.0,0.0,0.0,0.0,0.0,0.0,4.1429,4.223,4.262,4.2464,4.0358,3.8505,0.0,0.0,0.0,0.0,0.0,0.0,0.0,0.0,0.0,0.0,0.0,0.0,0.0,0.0,0.0,0.0,0.0,0.0,0.0,0.0,0.0,0.0,0.0,0.0,0.0,0.0,0.0,0.0,0.0,0.0,0.0,0.0,0.0,0.0,0.0,0.0,0.0,0.0,0.0,0.0,0.0,0.0,0.0,0.0,0.0,0.0,0.0,0.0,0.0,0.0,0.0,0.0,0.0,0.0,0.0,0.0,0.0,0.0,0.0,0.0,0.0,0.0,0.0,0.0,0.0,0.0,0.0,0.0,0.0,0.0,0.0,0.0,0.0,0.0,0.0,0.0,0.0,0.0,0.0,0.0,0.0,0.0,0.0,0.0,0.0,0.0,0.0,0.0,0.0,0.0,0.0,0.0,0.0,0.0,0.0,0.0,0.0,0.0,0.0,0.0,0.0,0.0,0.0,0.0,0.0,0.0,0.0,0.0,0.0,4.0942,4.2176,4.2765,4.273,4.0692,3.8678,3.6779,0.0,0.0,0.0,0.0,0.0,0.0,0.0,0.0,0.0,0.0,0.0,0.0,0.0,0.0,0.0,0.0,0.0,0.0,0.0,0.0,0.0,0.0,0.0,0.0,0.0,0.0,0.0,0.0,0.0,0.0,0.0,0.0,0.0,0.0,0.0,0.0,0.0,0.0,0.0,0.0,0.0,0.0,0.0,0.0,0.0,0.0,0.0,0.0,0.0,0.0,0.0,0.0,0.0,0.0,0.0,0.0,0.0,0.0,0.0,0.0,0.0,0.0,0.0,0.0,0.0,0.0,0.0,0.0,0.0,0.0,0.0,0.0,0.0,0.0,0.0,0.0,0.0,0.0,0.0,0.0,0.0,0.0,0.0,0.0,0.0,0.0,0.0,0.0,0.0,0.0,0.0,0.0,0.0,0.0,0.0,0.0,0.0,0.0,0.0,0.0,0.0,0.0,0.0,0.0,0.0,0.0,0.0,0.0,4.0855,4.3166,4.403,4.3453,4.1948,3.9624,0.0,0.0,0.0,0.0,0.0,0.0,0.0,0.0,0.0,0.0,0.0,0.0,0.0,0.0,0.0,0.0,0.0,0.0,0.0,0.0,0.0,0.0,0.0,0.0,0.0,0.0,0.0,0.0,0.0,0.0,0.0,0.0,0.0,0.0,0.0,0.0,0.0,0.0,0.0,0.0,0.0,0.0,0.0,0.0,0.0,0.0,0.0,0.0,0.0,0.0,0.0,0.0,0.0,0.0,0.0,0.0,0.0,0.0,0.0,0.0,0.0,0.0,0.0,0.0,0.0,0.0,0.0,0.0,0.0,0.0,0.0,0.0,0.0,0.0,0.0,0.0,0.0,0.0,0.0,0.0,0.0,0.0,0.0,0.0,0.0,0.0,0.0,0.0,0.0,0.0,0.0,0.0,0.0,0.0,0.0,0.0,0.0,0.0,0.0,0.0,0.0,0.0,0.0,0.0,0.0,0.0,0.0,0.0,0.0,4.1183,4.3069,4.3744,4.3202,4.1586,3.9638,0.0,0.0,0.0,0.0,0.0,0.0,0.0,0.0,0.0,0.0,0.0,0.0,0.0,0.0,0.0,0.0,0.0,0.0,0.0,0.0,0.0,0.0,0.0,0.0,0.0,0.0,0.0,0.0,0.0,0.0,0.0,0.0,0.0,0.0,0.0,0.0,0.0,0.0,0.0,0.0,0.0,0.0,0.0,0.0,0.0,0.0,0.0,0.0,0.0,0.0,0.0,0.0,0.0,0.0,0.0,0.0,0.0,0.0,0.0,0.0,0.0,0.0,0.0,0.0,0.0,0.0,0.0,0.0,0.0,0.0,0.0,0.0,0.0,0.0,0.0,0.0,0.0,0.0,0.0,0.0,0.0,0.0,0.0,0.0,0.0,0.0,0.0,0.0,0.0,0.0,0.0,0.0,0.0,0.0,0.0,0.0,0.0,0.0,0.0,0.0,0.0,0.0,0.0,0.0,0.0,0.0,0.0,0.0,3.9594,4.0663,4.2378,4.2877,4.2164,4.1048,3.9508,0.0,0.0,0.0,0.0,0.0,0.0,0.0,0.0,0.0,0.0,0.0,0.0,0.0,0.0,0.0,0.0,0.0,0.0,0.0,0.0,0.0,0.0,0.0,0.0,0.0,0.0,0.0,0.0,0.0,0.0,0.0,0.0,0.0,0.0,0.0,0.0,0.0,0.0,0.0,0.0,0.0,0.0,0.0,0.0,0.0,0.0,0.0,0.0,0.0,0.0,0.0,0.0,0.0,0.0,0.0,0.0,0.0,0.0,0.0,0.0,0.0,0.0,0.0,0.0,0.0,0.0,0.0,0.0,0.0,0.0,0.0,0.0,0.0,0.0,0.0,0.0,0.0,0.0,0.0,0.0,0.0,0.0,0.0,0.0,0.0,0.0,0.0,0.0,0.0,0.0,0.0,0.0,0.0,0.0,0.0,0.0,0.0,0.0,0.0,0.0,0.0,0.0,0.0,0.0,0.0,0.0,0.0,0.0,3.8562,3.9813,4.1245,4.1581,4.0658,4.045,3.925,0.0,0.0,0.0,0.0,0.0,0.0,0.0,0.0,0.0,0.0,0.0,0.0,0.0,0.0,0.0,0.0,0.0,0.0,0.0,0.0,0.0,0.0,0.0,0.0,0.0,0.0,0.0,0.0,0.0,0.0,0.0,0.0,0.0,0.0,0.0,0.0,0.0,0.0,0.0,0.0,0.0,0.0,0.0,0.0,0.0,0.0,0.0,0.0,0.0,0.0,0.0,0.0,0.0,0.0,0.0,0.0,0.0,0.0,0.0,0.0,0.0,0.0,0.0,0.0,0.0,0.0,0.0,0.0,0.0,0.0,0.0,0.0,0.0,0.0,0.0,0.0,0.0,0.0,0.0,0.0,0.0,0.0,0.0,0.0,0.0,0.0,0.0,0.0,0.0,0.0,0.0,0.0,0.0,0.0,0.0,0.0,0.0,0.0,0.0,0.0,0.0,0.0,0.0,0.0,0.0,0.0,0.0,0.0,3.7768,3.9478,3.9494,3.9437,3.9375,3.9924,3.8978,0.0,0.0,0.0,0.0,0.0,0.0,0.0,0.0,0.0,0.0,0.0,0.0,0.0,0.0,0.0,0.0,0.0,0.0,0.0,0.0,0.0,0.0,0.0,0.0,0.0,0.0,0.0,0.0,0.0,0.0,0.0,0.0,0.0,0.0,0.0,0.0,0.0,0.0,0.0,0.0,0.0,0.0,0.0,0.0,0.0,0.0,0.0,0.0,2.7995,0.0,0.0,0.0,0.0,0.0,0.0,0.0,0.0,0.0,0.0,0.0,0.0,0.0,0.0,0.0,0.0,0.0,0.0,0.0,0.0,0.0,0.0,0.0,0.0,0.0,0.0,0.0,0.0,0.0,0.0,0.0,0.0,0.0,0.0,0.0,0.0,0.0,0.0,0.0,0.0,0.0,0.0,0.0,0.0,0.0,0.0,0.0,0.0,0.0,0.0,0.0,0.0,0.0,0.0,0.0,0.0,0.0,0.0,0.0,3.6576,3.7762,3.7977,3.8007,3.7951,3.8154,3.7384,0.0,0.0,0.0,0.0,0.0,0.0,0.0,0.0,0.0,0.0,0.0,0.0,0.0,0.0,0.0,0.0,0.0,0.0,0.0,0.0,0.0,0.0,0.0,0.0,0.0,0.0,0.0,0.0,0.0,0.0,0.0,0.0,0.0,0.0,0.0,0.0,0.0,0.0,0.0,0.0,0.0,0.0,0.0,0.0,0.0,0.0,0.0,0.0,0.0,0.0,0.0,0.0,0.0,0.0,0.0,0.0,0.0,0.0,0.0,0.0,0.0,0.0,0.0,0.0,0.0,0.0,0.0,0.0,0.0,0.0,0.0,0.0,0.0,0.0,0.0,0.0,0.0,0.0,0.0,0.0,0.0,0.0,0.0,0.0,0.0,0.0,0.0,0.0,0.0,0.0,0.0,0.0,0.0,0.0,0.0,0.0,0.0,0.0,0.0,0.0,0.0,0.0,0.0,0.0,0.0,0.0,0.0,3.4984,3.5396,3.5937,3.6489,3.6682,3.6353,3.5934,3.5141,3.3942,0.0,0.0,0.0,0.0,0.0,0.0,0.0,0.0,0.0,0.0,0.0,0.0,0.0,0.0,0.0,0.0,0.0,0.0,0.0,0.0,0.0,0.0,0.0,0.0,0.0,0.0,0.0,0.0,0.0,0.0,0.0,0.0,0.0,0.0,0.0,0.0,0.0,0.0,3.2527,3.2882,0.0,0.0,0.0,0.0,0.0,0.0,0.0,0.0,2.8133,0.0,0.0,0.0,0.0,0.0,0.0,0.0,0.0,0.0,0.0,0.0,0.0,0.0,0.0,0.0,0.0,0.0,0.0,0.0,0.0,0.0,0.0,0.0,0.0,0.0,0.0,0.0,0.0,0.0,0.0,0.0,0.0,0.0,0.0,0.0,0.0,0.0,0.0,0.0,0.0,0.0,0.0,0.0,0.0,0.0,0.0,0.0,0.0,0.0,0.0,0.0,0.0,0.0,0.0,0.0,0.0,3.523,3.4538,3.4651,3.5593,3.4704,3.4414,3.4721,3.4183,3.3303,3.2176,0.0,0.0,0.0,0.0,0.0,0.0,0.0,0.0,0.0,0.0,0.0,0.0,0.0,0.0,0.0,0.0,0.0,0.0,0.0,0.0,0.0,0.0,0.0,0.0,0.0,0.0,0.0,0.0,0.0,0.0,0.0,0.0,0.0,0.0,0.0,0.0,0.0,0.0,0.0,3.3336,3.3634,0.0,0.0,0.0,0.0,0.0,0.0,0.0,0.0,2.733,0.0,0.0,0.0,0.0,0.0,0.0,0.0,0.0,0.0,0.0,0.0,0.0,0.0,0.0,0.0,0.0,0.0,0.0,0.0,0.0,0.0,0.0,0.0,0.0,0.0,0.0,0.0,0.0,0.0,0.0,0.0,0.0,0.0,0.0,0.0,0.0,0.0,0.0,0.0,0.0,0.0,0.0,0.0,0.0,0.0,0.0,0.0,0.0,0.0,0.0,0.0,0.0,0.0,0.0,0.0,3.4103,3.3984,3.4082,3.4381,3.3793,3.3569,3.3719,3.3083,3.245,0.0,0.0,0.0,0.0,0.0,0.0,0.0,0.0,0.0,0.0,0.0,0.0,0.0,0.0,0.0,0.0,0.0,0.0,0.0,0.0,0.0,0.0,0.0,0.0,0.0,0.0,0.0,0.0,0.0,0.0,0.0,0.0,0.0,0.0,0.0,0.0,0.0,0.0,0.0,0.0,3.3553,3.3953,3.3548,0.0,0.0,0.0,0.0,0.0,0.0,2.8219,2.7876,0.0,0.0,0.0,0.0,0.0,0.0,0.0,0.0,0.0,0.0,0.0,0.0,0.0,0.0,0.0,0.0,0.0,0.0,0.0,0.0,0.0,0.0,0.0,0.0,0.0,0.0,0.0,0.0,0.0,0.0,0.0,0.0,0.0,0.0,0.0,0.0,0.0,0.0,0.0,0.0,0.0,0.0,0.0,0.0,0.0,0.0,0.0,0.0,0.0,0.0,0.0,0.0,0.0,0.0,0.0,3.3032,3.3561,3.3591,3.3203,3.3104,3.2987,3.2948,3.2246,3.1825,0.0,0.0,0.0,0.0,0.0,0.0,0.0,0.0,0.0,0.0,0.0,0.0,0.0,0.0,0.0,0.0,0.0,0.0,0.0,0.0,0.0,0.0,0.0,0.0,0.0,0.0,0.0,0.0,0.0,0.0,0.0,0.0,0.0,0.0,0.0,0.0,0.0,0.0,0.0,0.0,0.0,3.4104,3.3913,3.3133,0.0,0.0,0.0,0.0,2.9527,2.8782,0.0,0.0,0.0,0.0,0.0,0.0,0.0,0.0,0.0,0.0,0.0,0.0,0.0,0.0,0.0,0.0,0.0,0.0,0.0,0.0,0.0,0.0,0.0,0.0,0.0,0.0,0.0,0.0,0.0,0.0,0.0,0.0,0.0,0.0,0.0,0.0,0.0,0.0,0.0,0.0,0.0,0.0,0.0,0.0,0.0,0.0,0.0,0.0,0.0,0.0,0.0,0.0,0.0,0.0,0.0,0.0,3.2836,3.3291,3.3261,3.2656,3.2053,3.1946,3.246,3.1489,3.1168,0.0,0.0,0.0,0.0,0.0,0.0,0.0,0.0,0.0,0.0,0.0,0.0,0.0,0.0,0.0,0.0,0.0,0.0,0.0,0.0,0.0,0.0,0.0,0.0,0.0,0.0,0.0,0.0,0.0,0.0,0.0,0.0,0.0,0.0,0.0,0.0,0.0,0.0,0.0,0.0,0.0,3.4069,3.3608,3.3107,3.2495,0.0,0.0,2.9347,2.9412,2.8432,0.0,0.0,0.0,0.0,0.0,0.0,0.0,0.0,0.0,0.0,0.0,0.0,0.0,0.0,0.0,0.0,0.0,0.0,0.0,0.0,0.0,0.0,0.0,0.0,0.0,0.0,0.0,0.0,0.0,0.0,0.0,0.0,0.0,0.0,0.0,0.0,0.0,0.0,0.0,0.0,0.0,0.0,0.0,0.0,0.0,0.0,0.0,0.0,0.0,0.0,0.0,0.0,0.0,0.0,0.0,3.1903,3.2013,3.2843,3.2973,3.2413,3.2086,3.2016,3.2277,3.1304,3.0863,0.0,0.0,0.0,0.0,0.0,0.0,0.0,0.0,0.0,0.0,0.0,0.0,0.0,0.0,0.0,0.0,0.0,0.0,0.0,0.0,0.0,0.0,0.0,0.0,0.0,0.0,0.0,0.0,0.0,0.0,0.0,0.0,0.0,0.0,0.0,0.0,0.0,0.0,0.0,0.0,0.0,0.0,3.3912,3.3337,0.0,0.0,0.0,2.9483,2.9147,0.0,0.0,0.0,0.0,0.0,0.0,0.0,0.0,0.0,0.0,0.0,0.0,0.0,0.0,0.0,0.0,0.0,0.0,0.0,0.0,0.0,0.0,0.0,0.0,0.0,0.0,0.0,0.0,0.0,0.0,0.0,0.0,0.0,0.0,0.0,0.0,0.0,0.0,0.0,0.0,0.0,0.0,0.0,0.0,0.0,0.0,0.0,0.0,0.0,0.0,0.0,0.0,0.0,0.0,0.0,0.0,0.0,3.1223,3.2269,3.2594,3.191,3.1961,3.2017,3.2069,3.1176,0.0,0.0,0.0,0.0,0.0,0.0,0.0,0.0,0.0,0.0,0.0,0.0,0.0,0.0,0.0,0.0,0.0,0.0,0.0,0.0,0.0,0.0,0.0,0.0,0.0,0.0,0.0,2.784,0.0,0.0,0.0,0.0,0.0,0.0,0.0,0.0,0.0,0.0,0.0,0.0,0.0,0.0,3.2791,3.3515,3.3071,3.2404,0.0,0.0,2.9192,2.8603,2.7593,2.6625,0.0,0.0,0.0,0.0,0.0,0.0,0.0,0.0,0.0,0.0,0.0,0.0,0.0,0.0,0.0,0.0,0.0,0.0,0.0,0.0,0.0,0.0,0.0,0.0,0.0,0.0,0.0,0.0,0.0,0.0,0.0,0.0,0.0,0.0,0.0,0.0,0.0,0.0,0.0,0.0,0.0,0.0,0.0,0.0,0.0,0.0,0.0,0.0,0.0,0.0,0.0,0.0,0.0,0.0,0.0,3.0603,3.1651,3.1894,3.1161,3.1375,3.1565,3.1744,3.0968,3.0811,0.0,0.0,0.0,0.0,0.0,0.0,0.0,0.0,0.0,0.0,0.0,0.0,0.0,0.0,0.0,0.0,0.0,0.0,0.0,0.0,0.0,0.0,0.0,0.0,0.0,0.0,0.0,0.0,0.0,0.0,0.0,0.0,0.0,0.0,0.0,0.0,0.0,0.0,0.0,0.0,0.0,3.1392,3.1688,3.1683,3.137,0.0,0.0,2.8575,2.7894,2.6385,2.5073,2.4284,0.0,0.0,0.0,0.0,0.0,0.0,0.0,0.0,0.0,0.0,0.0,0.0,0.0,0.0,0.0,0.0,0.0,0.0,0.0,0.0,0.0,0.0,0.0,0.0,0.0,0.0,0.0,0.0,0.0,0.0,0.0,0.0,0.0,0.0,0.0,0.0,0.0,0.0,0.0,0.0,0.0,0.0,0.0,0.0,0.0,0.0,0.0,0.0,0.0,0.0,0.0,0.0,0.0,3.0381,2.993,3.1021,3.1349,3.0807,3.1401,3.1775,3.1707,3.1312,3.0984,0.0,0.0,0.0,0.0,0.0,0.0,0.0,0.0,0.0,0.0,0.0,0.0,0.0,0.0,0.0,0.0,0.0,0.0,0.0,0.0,0.0,0.0,0.0,0.0,0.0,0.0,0.0,0.0,2.5577,2.5258,2.4681,0.0,0.0,0.0,0.0,0.0,0.0,0.0,0.0,0.0,0.0,3.0779,3.1308,3.1081,0.0,0.0,2.8618,2.7487,2.6605,2.5274,2.4089,2.3338,2.22,0.0,0.0,0.0,0.0,0.0,0.0,0.0,0.0,0.0,0.0,0.0,0.0,0.0,0.0,0.0,0.0,0.0,0.0,0.0,0.0,0.0,0.0,0.0,0.0,0.0,0.0,0.0,0.0,0.0,0.0,0.0,0.0,0.0,0.0,0.0,0.0,0.0,0.0,0.0,0.0,0.0,0.0,0.0,0.0,0.0,0.0,0.0,0.0,0.0,0.0,0.0,0.0,2.9916,2.9574,3.0517,3.0866,3.0671,3.1438,3.1744,3.1655,3.172,3.1391,0.0,0.0,0.0,0.0,0.0,0.0,0.0,0.0,0.0,0.0,0.0,0.0,0.0,0.0,0.0,0.0,0.0,0.0,0.0,0.0,0.0,0.0,0.0,0.0,0.0,0.0,0.0,0.0,2.4487,2.3917,2.3195,0.0,0.0,0.0,0.0,0.0,0.0,0.0,0.0,0.0,0.0,2.9692,3.0111,2.9772,2.9181,2.8388,2.7276,2.6141,2.5189,2.4172,2.3223,2.2556,0.0,0.0,0.0,0.0,0.0,0.0,0.0,0.0,0.0,0.0,0.0,0.0,0.0,0.0,0.0,0.0,0.0,0.0,0.0,0.0,0.0,0.0,0.0,0.0,0.0,0.0,0.0,0.0,0.0,0.0,3.4398,0.0,0.0,0.0,0.0,0.0,0.0,0.0,0.0,0.0,0.0,0.0,0.0,0.0,0.0,0.0,0.0,0.0,0.0,0.0,0.0,0.0,0.0,2.9604,2.9756,3.0148,3.0456,3.0773,3.1404,3.1655,3.1499,3.2061,3.2008,3.1121,0.0,0.0,0.0,0.0,0.0,0.0,0.0,0.0,0.0,0.0,0.0,0.0,0.0,0.0,0.0,0.0,0.0,0.0,0.0,0.0,0.0,0.0,0.0,0.0,0.0,0.0,2.4433,2.3157,2.2163,0.0,0.0,0.0,0.0,0.0,0.0,0.0,0.0,0.0,0.0,2.7498,2.8098,2.7662,2.7478,2.7074,2.6079,2.5172,2.4411,2.3747,2.3115,2.2415,0.0,0.0,0.0,0.0,0.0,0.0,0.0,0.0,0.0,0.0,0.0,0.0,0.0,0.0,0.0,0.0,0.0,0.0,0.0,0.0,0.0,0.0,0.0,0.0,0.0,0.0,0.0,3.5794,3.5475,0.0,0.0,0.0,0.0,0.0,0.0,0.0,0.0,0.0,0.0,0.0,3.3892,3.3892,0.0,0.0,0.0,0.0,0.0,0.0,0.0,0.0,0.0,0.0,0.0,0.0,2.9005,2.9183,2.9691,3.0003,3.0021,3.1011,3.1537,3.1485,3.2075,3.1576,2.9878,0.0,0.0,0.0,0.0,0.0,0.0,0.0,0.0,0.0,0.0,0.0,0.0,0.0,0.0,0.0,0.0,0.0,0.0,0.0,0.0,0.0,0.0,0.0,0.0,0.0,2.3529,0.0,0.0,0.0,0.0,0.0,0.0,0.0,0.0,0.0,0.0,0.0,2.483,2.498,2.6032,2.6593,2.6269,2.6094,2.569,0.0,0.0,0.0,0.0,0.0,0.0,0.0,0.0,0.0,0.0,0.0,0.0,0.0,0.0,1.7497,1.7472,1.7211,1.6628,1.5565,0.0,0.0,0.0,0.0,0.0,0.0,0.0,0.0,0.0,0.0,0.0,0.0,0.0,0.0,3.6682,0.0,3.5692,0.0,0.0,0.0,0.0,0.0,0.0,0.0,0.0,3.4319,3.4703,3.4721,3.4434,3.4163,0.0,3.3302,3.234,0.0,0.0,0.0,0.0,0.0,0.0,0.0,0.0,2.8987,2.9204,2.9533,2.9755,2.9924,3.0735,3.126,3.1471,3.1797,3.1188,2.9536,2.7995,2.6681,0.0,0.0,0.0,0.0,0.0,0.0,0.0,0.0,0.0,0.0,0.0,0.0,0.0,0.0,0.0,0.0,0.0,0.0,0.0,0.0,0.0,0.0,0.0,2.2453,0.0,0.0,0.0,0.0,0.0,0.0,0.0,0.0,0.0,2.219,2.3281,2.3988,2.3837,2.4699,2.505,2.4674,0.0,0.0,0.0,0.0,0.0,0.0,0.0,2.0877,2.0567,2.0084,1.9545,1.8736,1.8091,1.7612,1.7301,0.0,0.0,1.7066,1.6776,1.6188,1.5147,1.4598,1.4142,1.3414,1.298,1.2814,0.0,0.0,0.0,0.0,0.0,0.0,0.0,0.0,3.7826,3.7812,0.0,3.603,0.0,0.0,0.0,0.0,0.0,3.327,0.0,0.0,3.4452,3.486,3.5698,3.5039,3.4454,3.3948,3.3398,3.2963,3.2616,3.1571,0.0,0.0,0.0,0.0,0.0,0.0,2.9432,2.9766,2.9638,2.9882,3.0415,3.0503,3.0839,3.1457,3.131,3.0804,3.0104,2.8683,2.7135,2.5548,2.5395,0.0,0.0,0.0,0.0,0.0,0.0,0.0,0.0,0.0,0.0,0.0,0.0,0.0,0.0,0.0,0.0,0.0,0.0,0.0,0.0,2.2105,0.0,0.0,0.0,0.0,0.0,0.0,0.0,0.0,0.0,0.0,2.2221,2.2503,2.2612,2.2919,0.0,0.0,0.0,0.0,2.2121,2.1689,2.1224,2.0822,2.083,2.0601,2.0372,2.0071,0.0,0.0,1.8115,1.749,1.7054,1.6736,1.6411,1.6343,1.6588,1.6221,1.5626,1.5101,1.4767,1.4292,1.3657,1.343,1.3287,3.7619,0.0,0.0,0.0,0.0,3.7591,3.8055,3.8347,3.8701,3.8413,3.7594,3.7099,0.0,0.0,0.0,0.0,0.0,0.0,3.2996,3.3307,3.4525,3.4967,3.4681,3.4862,3.4665,3.4115,3.3493,3.3022,3.2611,3.199,3.1264,3.0483,0.0,0.0,0.0,0.0,2.9231,2.9652,2.9608,2.9707,2.9868,3.0249,3.0825,3.1471,3.089,3.0387,3.0011,2.8683,2.7501,2.6743,2.5868,0.0,0.0,0.0,0.0,0.0,0.0,0.0,0.0,0.0,0.0,0.0,0.0,0.0,0.0,0.0,0.0,0.0,0.0,0.0,2.1668,2.122,2.0714,0.0,0.0,0.0,0.0,0.0,0.0,0.0,0.0,0.0,1.9936,2.0994,2.1605,0.0,0.0,2.1517,2.1011,2.0774,2.0599,2.0308,2.0094,0.0,1.9791,1.968,1.9472,1.8938,1.8325,1.7694,1.716,1.663,1.6205,1.5879,1.5565,1.5441,1.5476,1.5505,1.5275,1.4711,1.4458,1.4099,1.3407,1.3203,1.3144,3.7816,3.7555,3.7112,3.7026,3.7257,3.8045,3.8391,3.8405,3.8782,3.8459,3.7414,3.7161,3.5981,3.4091,3.3633,0.0,0.0,0.0,3.2834,3.2919,3.3862,3.4159,3.3914,3.3875,3.3737,3.3427,3.2908,3.2652,3.2776,3.2037,3.1632,3.1431,0.0,0.0,2.9585,2.9405,2.936,2.9588,2.9602,2.9602,2.9617,3.0207,3.0712,3.1078,3.0648,3.0257,2.9983,2.8931,2.8034,2.7223,2.6281,2.5561,0.0,0.0,0.0,0.0,0.0,0.0,0.0,0.0,0.0,0.0,0.0,2.2379,2.2246,0.0,0.0,0.0,2.101,2.0849,2.0747,2.0434,0.0,0.0,0.0,0.0,0.0,0.0,0.0,1.875,1.83,1.8057,1.8316,1.9231,1.9731,1.9722,2.0069,2.0181,1.9776,0.0,1.9561,1.9361,1.9257,1.916,1.8952,1.8747,1.8419,1.7674,1.7036,1.6584,1.6262,1.5919,1.5678,1.5357,1.5035,1.4793,1.4697,1.4775,1.4775,1.4506,1.4206,1.3904,1.3324,1.3173,1.3034,3.7893,3.7337,3.6911,3.6997,3.7506,3.8074,3.829,3.8263,3.829,3.7954,3.7217,3.6565,3.5682,3.4594,3.3387,0.0,3.2561,3.2561,3.2763,3.309,3.2772,3.2854,3.3167,3.229,3.2027,3.2266,3.1822,3.2028,3.2778,3.187,3.1613,3.2062,3.0869,3.0205,3.0111,2.9898,2.9699,2.9602,2.9602,2.9602,2.9617,3.0164,3.0445,3.0459,3.0445,3.0224,2.9845,2.932,2.8425,2.7183,2.6547,2.5866,2.5048,0.0,0.0,0.0,0.0,0.0,0.0,0.0,0.0,0.0,0.0,0.0,0.0,0.0,0.0,0.0,2.0614,0.0,1.9934,1.9804,0.0,0.0,0.0,1.8584,1.808,1.8097,1.8034,1.7508,0.0,0.0,1.727,1.7237,1.7547,1.8434,1.8891,1.9095,1.9095,1.874,1.8651,1.8504,1.8331,1.8234,1.8074,1.7681,1.715,1.6416,1.6036,1.578,1.5475,1.544,1.5281,1.495,1.4652,1.4473,1.4262,1.4008,1.3968,1.4371,1.4139,1.3712,1.3464,1.3249,1.3039,3.6399,3.6297,3.6621,3.7131,3.7688,3.7909,3.7962,3.7885,3.7962,3.7361,3.6423,3.626,3.5033,3.3093,3.1977,3.1422,3.1421,3.1421,3.1413,3.1585,3.1932,3.1909,3.157,3.1782,3.169,3.1333,3.1338,3.1402,3.1507,3.1267,3.1138,3.1112,3.0497,3.0097,3.0111,2.9789,2.9665,2.9602,2.9602,2.9602,2.9602,2.9757,2.9827,2.9827,2.9827,2.9415,2.8643,2.8491,2.781,2.6583,2.5948,2.5408,2.5022,2.4426,0.0,0.0,0.0,0.0,0.0,0.0,0.0,0.0,0.0,2.2067,2.1951,0.0,2.1021,0.0,2.0299,1.9904,1.9657,1.9558,0.0,0.0,1.8415,1.8145,1.7683,1.7522,1.731,1.7108,1.6828,1.6427,1.6211,1.6222,1.6215,1.6275,1.7041,1.744,1.713,1.6927,1.6819,1.6731,1.6642,1.6616,1.6623,1.6253,1.598,1.5708,1.546,1.5197,1.4891,1.4727,1.4464,1.4166,1.3958,1.3719,1.3675,1.3664,1.3572,1.3735,1.3599,1.3486,1.3243,1.3147,1.3034,3.5742,3.5764,3.6307,3.6675,3.6816,3.7258,3.7298,3.6974,3.7078,3.6392,3.5187,3.4706,3.3615,3.2137,3.1241,3.0827,3.0748,3.0748,3.0761,3.0773,3.0996,3.0906,3.0609,3.0585,3.0443,3.0297,3.0259,3.0408,3.0559,3.0649,3.0737,3.0772,3.0363,3.0111,3.0111,2.9741,2.9602,2.9602,2.9602,2.9602,2.9602,2.9602,2.9602,2.9602,2.9336,2.8856,2.8215,2.7939,2.7332,2.6356,2.5735,2.5368,2.5315,2.4805,2.4536,0.0,0.0,0.0,0.0,0.0,0.0,0.0,0.0,0.0,0.0,0.0,2.1272,2.0928,2.0269,1.9679,1.9472,1.9162,1.8871,1.8433,1.8055,1.7787,1.7499,1.7055,1.6765,1.648,1.6116,1.5743,1.5553,1.5499,1.5499,1.5312,1.5836,1.6229,1.6166,1.6117,1.6124,1.6023,1.6017,1.5966,1.5757,1.5519,1.527,1.5171,1.5047,1.4831,1.453,1.4517,1.4389,1.3992,1.3788,1.3642,1.3442,1.3313,1.3287,1.3184,1.3157,1.3147,1.3109,1.3028,1.2904,3.5294,3.5378,3.5918,3.5881,3.5479,3.6408,3.6424,3.5783,3.5978,3.5297,3.4024,3.2697,3.1919,3.1448,3.0843,3.0496,3.0292,3.0292,3.0292,3.0292,3.0139,3.005,2.9948,2.9277,2.9163,2.9407,2.9112,2.924,2.9968,3.0113,3.0345,3.0644,3.0259,3.0007,2.9997,2.969,2.949,2.9504,2.949,2.949,2.949,2.956,2.9602,2.9588,2.9012,2.8526,2.8077,2.758,2.695,2.6235,2.5775,2.5593,2.5772,2.5341,2.5166,0.0,2.4962,0.0,0.0,0.0,0.0,0.0,0.0,0.0,0.0,2.2137,2.1445,2.0996,2.0238,1.9668,1.9299,1.8861,1.8555,1.8202,1.7903,1.7535,1.7239,1.677,1.6305,1.5825,1.554,1.5356,1.5083,1.5083,1.5083,1.5,1.5013,1.519,1.5681,1.577,1.577,1.5808,1.5808,1.5562,1.5287,1.5139,1.4863,1.4684,1.4607,1.4562,1.4359,1.443,1.4387,1.3982,1.3864,1.3601,1.3192,1.3066,1.299,1.2834,1.2802,1.2856,1.2985,1.291,1.277,3.4211,3.4274,3.4801,3.4977,3.4889,3.508,3.5067,3.4967,3.4967,3.4413,3.3208,3.1592,3.0901,3.0741,3.0211,2.9959,2.9934,2.9934,2.9946,2.9946,3.0011,2.9834,2.9403,2.9353,2.9276,2.9001,2.9131,2.9122,2.9118,2.9695,2.9914,2.9848,2.9831,2.9718,2.9383,0.0,0.0,0.0,2.8872,2.8858,2.8886,2.935,2.9602,2.9588,2.9012,0.0,2.7529,2.7345,2.6818,2.5867,2.5995,0.0,0.0,0.0,0.0,0.0,0.0,0.0,0.0,0.0,0.0,0.0,2.2821,2.2769,2.2459,2.1747,2.0921,2.0108,1.9887,1.9457,1.883,1.8797,1.8548,1.7902,1.7584,1.7145,1.6501,1.6116,1.5825,1.554,1.5356,1.507,1.4758,1.4783,1.4682,1.4459,1.449,1.4527,1.4618,1.4861,1.4855,1.4649,1.4764,1.4637,1.4576,1.4461,1.4424,1.4406,1.4424,1.437,1.4274,1.411,1.4078,1.3883,1.3584,1.3274,1.3121,1.3024,1.2797,1.2764,1.2754,1.2775,1.2818,1.2791,1.2759,3.4206,0.0,3.4692,3.4704,0.0,3.4311,3.3997,3.3508,3.3796,3.3131,3.1825,3.0954,3.0428,3.0193,2.9917,2.9779,2.9792,2.9946,2.9934,2.9934,3.0152,2.9998,2.951,2.9301,2.9078,2.8747,2.8781,2.8772,2.8784,2.9449,2.9666,2.929,2.9505,2.9297,2.8711,2.8092,2.7931,2.8226,2.824,2.838,2.8675,2.8998,2.9153,2.9139,2.8563,0.0,0.0,0.0,0.0,0.0,0.0,0.0,0.0,0.0,0.0,2.5838,2.5524,2.4985,2.4355,2.3967,2.3508,2.2863,2.2685,2.2587,2.2462,2.188,2.1262,2.0421,1.9987,1.9569,1.9126,1.8816,1.8388,1.7589,1.7006,1.6487,1.5886,1.5391,1.5114,1.4929,1.4657,1.439,1.4105,1.4098,1.4098,1.4098,1.4098,1.4111,1.4222,1.452,1.4651,1.442,1.4389,1.4251,1.4129,1.4005,1.3918,1.3906,1.3906,1.3912,1.3912,1.3824,1.3643,1.3549,1.3262,1.3063,1.2875,1.2686,1.2592,1.2598,1.2503,1.2503,1.2414,1.2506,1.2592,3.4414,3.4208,3.4678,3.4438,3.3821,3.3746,3.3054,3.2034,0.0,0.0,0.0,3.0586,3.0297,2.9946,2.9934,2.9934,2.9946,3.0164,3.0241,3.0241,3.0444,3.031,2.9736,2.9237,2.886,2.8569,2.8398,2.8509,2.8702,2.9338,2.9397,2.8944,2.9099,2.877,2.7983,2.706,2.6905,2.7411,2.7551,2.7846,2.8352,2.8478,2.8535,2.8535,2.7931,2.7253,2.6406,2.5923,2.5697,2.5756,2.5854,2.6235,2.6916,2.683,2.671,2.6595,2.5943,2.5241,2.4647,2.402,2.3416,2.3046,2.2408,2.211,2.2334,2.2006,2.1493,2.0784,2.0086,1.9644,1.9389,1.8736,1.8063,1.7236,1.6581,1.6028,1.5342,1.495,1.4617,1.4224,1.4082,1.3798,1.3628,1.3635,1.3701,1.3888,1.4022,1.4069,1.421,1.444,1.4521,1.4446,1.4303,1.4235,1.3963,1.3731,1.361,1.3653,1.3538,1.3513,1.3513,1.3513,1.3423,1.3282,1.3144,1.2979,1.2786,1.2631,1.25,1.2415,1.2318,1.214,1.2156,1.2259,1.2285,3.4127,3.4075,3.3982,3.3858,3.3717,3.327,3.2426,3.1312,3.1095,3.0901,3.082,3.0405,3.0228,3.0292,3.0292,3.0292,3.0292,3.0533,3.0622,3.0622,3.0973,3.0619,2.9566,2.9623,2.9291,2.8633,2.8556,2.8757,2.9115,2.8918,2.8838,2.895,2.8597,2.7969,2.7173,2.6384,2.6076,2.6174,2.6666,2.6989,2.7074,2.7607,2.7902,2.7874,2.7284,2.6762,2.6392,2.6309,2.6123,2.5914,2.6599,2.704,2.715,2.7025,2.6786,2.6414,2.5721,2.504,2.4334,2.3824,2.3486,2.3043,2.2292,2.19,2.1967,2.1231,2.0422,1.9738,1.9272,1.8812,1.8376,1.8057,1.7593,1.6898,1.6522,1.6049,1.5377,1.5013,1.4641,1.427,1.4057,1.3857,1.3814,1.3832,1.3808,1.4032,1.3976,1.4186,1.4327,1.4391,1.4254,1.4223,1.421,1.4198,1.4109,1.3973,1.3839,1.3791,1.3664,1.3447,1.3447,1.3441,1.3441,1.3399,1.3176,1.3097,1.3012,1.2871,1.2638,1.2621,1.2439,1.2359,1.224,1.2062,1.1855,3.4759,3.4643,3.434,3.3894,3.3379,3.2354,3.1701,3.1188,3.0816,3.0611,3.065,3.0496,3.0457,3.0609,3.0672,3.0761,3.0748,3.0911,3.1061,3.1061,3.1286,3.0956,3.0017,3.0044,2.9632,2.8899,2.9059,2.9066,2.8932,2.8955,2.8797,2.8254,2.7497,2.6985,2.659,2.6143,2.5893,2.5893,2.6174,2.6469,2.6807,2.7102,2.7242,2.7256,2.6947,2.6483,2.5923,2.5923,2.5876,2.5887,2.6485,2.693,2.72,2.717,2.693,2.6427,2.5721,2.4957,2.4261,2.3446,2.2864,2.2711,2.1963,2.142,2.1362,2.0917,2.0343,1.9759,1.9333,1.899,1.8481,1.8135,1.7534,1.6733,1.6277,1.577,1.5109,1.4656,1.4389,1.4128,1.3873,1.3554,1.341,1.3391,1.3401,1.347,1.3594,1.3691,1.386,1.3776,1.3861,1.4265,1.4274,1.4121,1.3999,1.3792,1.3611,1.3611,1.3436,1.3254,1.3261,1.3167,1.3073,1.3073,1.2985,1.2897,1.2891,1.2715,1.2539,1.2545,1.2374,1.2164,1.2023,1.1712,1.1519,3.5467,3.5263,3.4846,3.4057,3.2943,3.1889,3.1371,3.1293,3.1031,3.0836,3.0685,3.0761,3.0849,3.0937,3.1061,3.1136,3.1211,3.1421,3.1415,3.1383,3.1529,3.1114,3.0269,3.024,2.9889,2.9295,2.9374,2.9231,2.8828,2.8913,2.8453,2.7345,2.6676,2.634,2.6286,2.6056,2.5948,2.5893,2.5893,2.6132,2.6582,2.661,2.6596,2.661,2.6596,2.6232,2.5592,2.5508,2.5589,2.567,2.6075,2.6444,2.6738,2.6961,2.6806,2.6251,2.566,2.4957,2.4116,2.315,2.2478,2.2488,2.1731,2.1272,2.1003,2.0745,2.0319,1.9737,1.9375,1.9048,1.8532,1.8124,1.7576,1.6645,1.6178,1.5609,1.4842,1.4379,1.4137,1.3964,1.3618,1.3367,1.3104,1.3046,1.3157,1.316,1.32,1.3279,1.3206,1.3206,1.3527,1.3975,1.4051,1.3874,1.3664,1.3381,1.3291,1.3291,1.3123,1.2956,1.2956,1.2782,1.2614,1.2614,1.253,1.253,1.253,1.2445,1.2277,1.2277,1.2114,1.1809,1.156,1.139,1.1246,3.6101,3.5798,3.4909,3.3695,3.2558,3.2309,3.1978,3.1641,3.1696,3.1669,3.1447,3.136,3.136,3.1535,3.1535,3.1656,3.179,3.2023,3.1857,3.1496,3.1679,3.1171,3.0138,3.0172,3.0014,2.9498,2.9154,2.9073,2.9086,2.8153,2.74,2.6871,2.6606,2.6418,2.6286,2.6165,2.6002,2.5893,2.5893,2.5921,2.5964,2.5978,2.5978,2.5978,2.5992,2.5868,2.5508,2.5508,2.5341,2.5127,2.5392,2.5535,2.5648,2.5947,2.6031,2.5737,2.5383,2.4814,2.3728,2.3224,2.2809,2.2628,2.2059,2.1527,2.1145,2.0293,1.9589,1.917,1.8709,1.8296,1.7882,1.7564,1.7107,1.6404,1.6028,1.5553,1.49,1.4553,1.4216,1.3815,1.3653,1.3398,1.3392,1.3358,1.3344,1.3342,1.3314,1.3314,1.3185,1.3192,1.3212,1.33,1.334,1.336,1.3247,1.3054,1.3046,1.302,1.274,1.2705,1.265,1.2469,1.2252,1.2388,1.214,1.2077,1.2053,1.1924,1.1954,1.2014,1.1833,1.1595,1.1312,1.1255,1.1192,3.662,3.6129,3.5642,3.4499,3.3125,3.2509,3.2078,3.195,3.2069,3.2155,3.2082,3.2141,3.2082,3.1963,3.2009,3.1965,3.184,3.191,3.1708,3.1295,3.1335,3.0999,3.0429,3.0076,2.9729,2.927,2.8843,2.8479,2.8165,2.7483,2.6987,2.6808,2.6578,2.6418,2.6272,2.6179,2.6056,2.5893,2.5893,2.5893,2.5893,2.5893,2.5893,2.5893,2.5893,2.5798,2.555,2.5508,2.5383,2.5046,2.5284,2.5369,2.5382,2.5519,2.5446,2.5134,2.4321,2.363,2.2942,2.2435,2.2078,2.2006,2.1355,2.0916,2.0696,1.9935,1.9247,1.8863,1.8222,1.776,1.745,1.7139,1.676,1.6325,1.606,1.5685,1.5265,1.4917,1.4669,1.4435,1.4123,1.3804,1.3635,1.3459,1.3285,1.3271,1.3195,1.3127,1.3058,1.3058,1.3058,1.2982,1.3058,1.3083,1.3171,1.3134,1.3121,1.3041,1.2883,1.2724,1.2705,1.2559,1.2406,1.238,1.2203,1.2043,1.2104,1.2006,1.1926,1.1884,1.1678,1.1534,1.1376,1.1247,1.1159,3.7077,3.6484,3.5943,3.4868,3.3556,3.2739,3.2417,3.2489,3.2646,3.2646,3.2561,3.2846,3.2692,3.2283,3.2256,3.2136,3.1958,3.1833,3.1497,3.11,3.1058,3.0819,3.0247,2.9851,2.9434,2.8898,2.839,2.789,2.7339,2.6973,2.6794,2.6779,2.6645,2.6525,2.6379,2.6218,2.6125,2.5948,2.5948,2.5893,2.5893,2.5893,2.5893,2.5893,2.5893,2.5798,2.5592,2.5494,2.5369,2.5075,2.5137,2.5189,2.5156,2.5065,2.4874,2.4486,2.3525,2.2798,2.24,2.1976,2.1699,2.1559,2.0998,2.0634,2.04,1.9665,1.902,1.8594,1.7853,1.732,1.7278,1.6968,1.664,1.6413,1.6154,1.5818,1.5562,1.5252,1.4919,1.4942,1.4425,1.4062,1.3829,1.3506,1.3281,1.3107,1.2935,1.2784,1.2784,1.2784,1.2784,1.2713,1.272,1.2826,1.3056,1.3067,1.3121,1.3115,1.2913,1.2906,1.2888,1.2713,1.2551,1.2466,1.2285,1.2148,1.206,1.1955,1.1787,1.1745,1.1636,1.1437,1.1342,1.1238,1.116,3.7541,3.6967,3.5482,3.444,3.3605,3.3353,3.3199,3.3269,3.3452,3.3368,3.3017,3.3339,3.3113,3.2275,3.211,3.2193,3.2176,3.1857,3.1409,3.0984,3.0927,3.0335,2.9194,2.9303,2.9088,2.844,2.7958,2.7398,2.6881,2.6808,2.6794,2.6779,2.6779,2.6712,2.6525,2.6379,2.6233,2.6056,2.5948,2.5893,2.5893,2.5893,2.5893,2.5893,2.5893,2.5839,2.5688,2.555,2.5425,2.516,2.4845,2.4687,2.4669,2.4507,2.4217,2.3736,2.3356,2.2898,2.2468,2.2241,2.2104,2.1793,2.1439,2.1167,2.0618,1.9685,1.8934,1.844,1.7591,1.7179,1.7391,1.7129,1.681,1.656,1.6232,1.5861,1.5551,1.5234,1.4928,1.4856,1.456,1.414,1.3613,1.3467,1.3247,1.2922,1.2728,1.2674,1.2582,1.2477,1.2492,1.2499,1.2459,1.2374,1.2788,1.2788,1.2795,1.2795,1.2721,1.2896,1.2795,1.2788,1.2654,1.2533,1.239,1.2166,1.2006,1.1851,1.1677,1.1615,1.1564,1.1421,1.1389,1.1234,1.1186,3.7286,3.6585,3.5395,3.4656,3.4399,3.4113,3.3991,3.4059,3.4074,3.3762,3.3214,3.3268,3.2844,3.2033,3.1701,3.1531,3.1438,3.134,3.0976,3.0549,3.0147,2.9763,2.942,2.8683,2.8233,2.7929,2.7384,2.7015,2.6861,2.6794,2.6794,2.6846,2.6884,2.6765,2.6578,2.6606,2.6447,2.6111,2.6056,2.6002,2.5893,2.5893,2.5893,2.5893,2.5893,2.5839,2.5674,2.5592,2.5439,2.523,2.4848,2.462,2.4518,2.3914,2.3392,2.2892,2.2484,2.2098,2.1828,2.1556,2.137,2.1239,2.0831,2.053,2.014,1.9406,1.8771,1.8331,1.7831,1.7423,1.722,1.6902,1.6562,1.6448,1.627,1.6156,1.5972,1.5718,1.5359,1.5108,1.4616,1.4046,1.3719,1.3528,1.3413,1.3163,1.299,1.2833,1.2781,1.2781,1.2751,1.2774,1.2729,1.2728,1.2912,1.2507,1.2228,1.2235,1.2256,1.2537,1.2579,1.2728,1.2692,1.2875,1.2663,1.2505,1.2439,1.2177,1.1929,1.1706,1.1632,1.1632,1.1484,1.1477,1.1477,3.7121,3.6336,3.5574,3.5264,3.5169,3.4648,3.4413,3.4332,3.4127,3.366,3.318,3.3137,3.2659,3.1939,3.1604,3.1362,3.1065,3.0927,3.0682,3.0343,2.9782,2.9508,2.9217,2.8327,2.7715,2.7496,2.7156,2.6937,2.6937,2.6937,2.6937,2.6937,2.7041,2.6974,2.6788,2.6765,2.6606,2.6394,2.6218,2.6125,2.6056,2.6056,2.6002,2.5948,2.5948,2.5893,2.5784,2.5633,2.5481,2.5313,2.4948,2.462,2.439,2.3688,2.2957,2.2482,2.2135,2.1675,2.14,2.1198,2.1031,2.0903,2.0518,2.0194,1.9933,1.9264,1.8741,1.8337,1.792,1.7569,1.7226,1.683,1.6551,1.6482,1.6412,1.6349,1.6243,1.5948,1.5558,1.5162,1.4647,1.4123,1.372,1.3639,1.3435,1.3233,1.3071,1.2998,1.2998,1.2998,1.2998,1.3006,1.2894,1.2814,1.281,1.2409,1.2407,1.239,1.2351,1.2445,1.2586,1.2735,1.2858,1.3062,1.3057,1.2926,1.2771,1.2512,1.2298,1.2077,1.2009,1.2083,1.2003,1.1929,1.1929,3.7061,3.6491,3.6163,3.5897,3.5728,3.4775,3.4394,3.4241,3.3642,3.3232,3.2912,3.2989,3.2511,3.186,3.176,3.1602,3.1116,3.0746,3.0553,3.0482,2.9988,2.9375,2.8876,2.8267,2.7718,2.7247,2.7196,2.7167,2.7167,2.7181,2.7167,2.7181,2.7181,2.7181,2.7167,2.6937,2.6832,2.6727,2.6486,2.634,2.6286,2.6272,2.6233,2.6125,2.6125,2.6002,2.5893,2.5784,2.5633,2.5481,2.5188,2.4734,2.4157,2.3628,2.315,2.2714,2.2359,2.1925,2.1514,2.1388,2.121,2.0955,2.0786,2.0475,2.0009,1.9407,1.8865,1.8472,1.7988,1.7647,1.7304,1.7166,1.7038,1.689,1.6645,1.6405,1.6093,1.5806,1.5513,1.4972,1.4629,1.434,1.3941,1.3697,1.3479,1.3202,1.3059,1.3067,1.3091,1.3099,1.2993,1.2993,1.2921,1.2822,1.257,1.2367,1.2636,1.2755,1.2734,1.2736,1.2855,1.2931,1.3066,1.3256,1.3284,1.3179,1.315,1.297,1.291,1.2698,1.2645,1.2599,1.2526,1.2452,1.2452,3.7246,3.6906,3.6136,3.5784,3.5676,3.4805,3.4349,3.4213,3.3985,3.3427,3.275,3.263,3.2228,3.153,3.1427,3.1324,3.1204,3.0572,3.0236,3.0176,2.9589,2.8958,2.8341,2.7748,2.7388,2.7196,2.7167,2.7167,2.7218,2.7218,2.7167,2.7218,2.7284,2.7284,2.7218,2.7181,2.7159,2.6951,2.6832,2.6659,2.6472,2.6418,2.6379,2.6218,2.6179,2.6071,2.5988,2.5839,2.5674,2.5633,2.523,2.4734,2.4171,2.376,2.3378,2.2957,2.2482,2.2061,2.18,2.1526,2.1336,2.1094,2.0862,2.0604,2.0205,1.9615,1.9142,1.8808,1.8395,1.7988,1.7647,1.7451,1.7235,1.6968,1.6592,1.6324,1.6078,1.5539,1.5078,1.4727,1.4426,1.4074,1.3865,1.3769,1.3612,1.338,1.3338,1.3329,1.3329,1.3277,1.3216,1.3216,1.2981,1.2928,1.2858,1.2797,1.2875,1.2909,1.2844,1.2809,1.2944,1.3063,1.3207,1.3357,1.3395,1.3469,1.3389,1.3427,1.3359,1.3331,1.3237,1.3178,1.3112,1.3119,1.3119,3.707,3.6611,3.5896,3.5549,3.5471,3.4601,3.4149,3.406,3.3683,3.3099,3.2533,3.2372,3.2045,3.1629,3.1482,3.1482,3.145,3.0795,3.0306,2.9952,2.9163,2.8547,2.8119,2.7617,2.7321,2.7321,2.7321,2.7321,2.7386,2.7386,2.7437,2.7437,2.7554,2.7604,2.7488,2.7554,2.7437,2.7299,2.7196,2.7026,2.6855,2.675,2.6659,2.65,2.6286,2.6179,2.6125,2.5893,2.5729,2.5619,2.5286,2.4791,2.4447,2.4041,2.3628,2.3258,2.2787,2.2309,2.1925,2.1663,2.1411,2.1169,2.0926,2.0604,2.0346,1.9747,1.9341,1.9075,1.8684,1.8202,1.7842,1.7494,1.7184,1.6816,1.6477,1.6193,1.589,1.5223,1.4744,1.4531,1.4309,1.4105,1.4019,1.389,1.383,1.37,1.37,1.37,1.3631,1.364,1.358,1.3519,1.3467,1.3346,1.3285,1.3224,1.3216,1.3038,1.2894,1.2883,1.2979,1.3011,1.3139,1.3381,1.3517,1.3553,1.3536,1.3808,1.3886,1.3836,1.3807,1.3905,1.3912,1.392,1.392,3.6596,3.5838,3.5411,3.5268,3.5133,3.4297,3.3864,3.3699,3.2949,3.2576,3.2404,3.2242,3.2057,3.2016,3.1955,3.1981,3.1901,3.1162,3.057,2.9872,2.8982,2.8308,2.8174,2.7829,2.764,2.764,2.764,2.7625,2.7625,2.774,2.784,2.784,2.7905,2.802,2.7955,2.789,2.784,2.774,2.7604,2.7452,2.7401,2.7196,2.6937,2.6832,2.65,2.6272,2.6111,2.5948,2.5839,2.566,2.5286,2.5061,2.4892,2.4447,2.3982,2.3628,2.315,2.2604,2.2061,2.1749,2.1561,2.1221,2.0914,2.0669,2.0399,1.9998,1.9528,1.9274,1.8808,1.8414,1.8007,1.7475,1.6902,1.6562,1.6186,1.5817,1.5184,1.4753,1.4565,1.4501,1.4396,1.4336,1.4267,1.4139,1.4079,1.401,1.401,1.401,1.4019,1.401,1.4019,1.3959,1.3769,1.3709,1.3649,1.3588,1.3519,1.3459,1.3277,1.3197,1.3194,1.321,1.3289,1.353,1.3658,1.3712,1.3844,1.4038,1.4198,1.4122,1.4244,1.4506,1.453,1.4411,1.4387,3.64,3.6029,3.5284,3.4952,3.4765,3.4059,3.363,3.3455,3.3175,3.2881,3.2624,3.2468,3.2444,3.245,3.2333,3.2342,3.209,3.1113,3.0492,3.0124,2.895,2.8293,2.8097,2.7961,2.7905,2.7905,2.7905,2.789,2.7905,2.7955,2.8005,2.8073,2.8137,2.8201,2.825,2.825,2.8201,2.8088,2.8039,2.789,2.769,2.7524,2.7321,2.7078,2.6817,2.65,2.6272,2.6002,2.5839,2.5729,2.5619,2.5342,2.5005,2.4593,2.4203,2.3819,2.3271,2.2726,2.2297,2.1937,2.1624,2.1336,2.1019,2.0839,2.0786,2.0237,1.9977,1.9715,1.933,1.8798,1.8392,1.7654,1.6869,1.5851,1.5586,1.5258,1.4818,1.4588,1.4515,1.4515,1.4455,1.4455,1.4387,1.4387,1.4327,1.4327,1.4327,1.4327,1.4267,1.4267,1.4207,1.4139,1.4079,1.4019,1.395,1.389,1.3881,1.383,1.3769,1.3709,1.3675,1.3683,1.3752,1.39,1.3829,1.3859,1.403,1.4251,1.4326,1.438,1.453,1.4653,1.4622,1.4513,1.4555,3.5985,3.5522,3.4878,3.4613,3.4462,3.3973,3.371,3.3555,3.3398,3.3234,3.2998,3.2935,3.285,3.2796,3.2446,3.2253,3.2051,3.0773,3.0185,3.0018,2.9166,2.8539,2.8266,2.8152,2.8168,2.8152,2.8152,2.8168,2.8152,2.8201,2.8299,2.8381,2.8429,2.8493,2.8556,2.8541,2.8556,2.8444,2.8381,2.8284,2.8039,2.779,2.7575,2.7335,2.7026,2.6621,2.6233,2.6002,2.5839,2.5784,2.5729,2.5564,2.5244,2.4892,2.4536,2.4099,2.3509,2.2969,2.2543,2.2123,2.1812,2.1537,2.1273,2.1083,2.0967,2.0635,2.0431,2.0031,1.9584,1.9093,1.844,1.7511,1.6427,1.544,1.5088,1.4865,1.4524,1.4524,1.4515,1.4515,1.4515,1.4515,1.4515,1.4515,1.4515,1.4515,1.4455,1.4455,1.4455,1.4396,1.4396,1.4387,1.4327,1.4267,1.4258,1.4198,1.4189,1.4189,1.4198,1.413,1.407,1.4001,1.401,1.4019,1.401,1.4063,1.4215,1.4364,1.4484,1.4564,1.4724,1.4746,1.4729,1.4625,1.4651,3.5447,3.4707,3.4497,3.4349,3.4333,3.4101,3.3919,3.377,3.3518,3.3308,3.3151,3.3156,3.2871,3.2914,3.2195,3.1919,3.1753,3.0563,3.0033,2.9769,2.9328,2.892,2.8636,2.8541,2.8508,2.8493,2.8508,2.8493,2.8525,2.8621,2.8668,2.8716,2.8826,2.8842,2.8889,2.8889,2.8889,2.8842,2.8716,2.8573,2.8381,2.8088,2.784,2.7575,2.7078,2.6606,2.6218,2.6002,2.5948,2.5893,2.5784,2.5647,2.5494,2.5188,2.4778,2.4305,2.3793,2.3258,2.2763,2.2359,2.2061,2.1812,2.16,2.14,2.1233,2.1031,2.0711,2.0366,1.9922,1.9284,1.8299,1.7061,1.6086,1.5388,1.5126,1.493,1.4684,1.4575,1.4575,1.4565,1.4575,1.4565,1.4565,1.4506,1.4565,1.4565,1.4565,1.4565,1.4556,1.4556,1.4565,1.4634,1.4575,1.4575,1.4575,1.4565,1.4565,1.4556,1.4556,1.4497,1.4309,1.4249,1.4189,1.4189,1.4309,1.4309,1.4234,1.4389,1.4542,1.4622,1.4648,1.4826,1.4959,1.4781,1.4728,3.5302,3.4994,3.4947,3.4804,3.4659,3.4546,3.4056,3.3356,3.3307,3.288,3.2349,3.2137,3.2079,3.2015,3.1788,3.1642,3.1498,3.064,3.0084,2.9589,2.9478,2.9382,2.9199,2.9045,2.8951,2.8951,2.8951,2.8951,2.8936,2.8936,2.9029,2.9121,2.9137,2.9229,2.9291,2.9291,2.9291,2.9183,2.9091,2.8936,2.8748,2.8429,2.8137,2.7825,2.7167,2.6659,2.634,2.6111,2.6002,2.5893,2.5839,2.5743,2.5536,2.53,2.4935,2.4421,2.3897,2.3437,2.3017,2.2592,2.2309,2.2123,2.1925,2.1737,2.1561,2.1296,2.1094,2.0828,2.0344,1.949,1.8166,1.7195,1.6387,1.5733,1.5556,1.543,1.5245,1.502,1.4911,1.4921,1.4921,1.4921,1.4911,1.4852,1.4852,1.4725,1.4666,1.4666,1.4666,1.4666,1.4734,1.4803,1.4812,1.4743,1.4743,1.4743,1.4743,1.4743,1.4803,1.4803,1.4675,1.4606,1.4547,1.4547,1.4656,1.4597,1.4488,1.4446,1.4605,1.4614,1.4632,1.476,1.4851,1.4769,1.4796,3.4829,3.4705,3.428,3.4056,3.3902,3.3839,3.3485,3.3004,3.2878,3.2593,3.2144,3.1982,3.1911,3.1805,3.137,3.115,3.0942,3.0428,2.9961,2.9656,2.9637,2.9697,2.9697,2.9547,2.9412,2.9321,2.9275,2.9275,2.9275,2.9275,2.9305,2.9366,2.9412,2.9428,2.9473,2.9518,2.9428,2.9366,2.9321,2.9183,2.8982,2.87,2.8268,2.7825,2.7233,2.6779,2.6568,2.6233,2.6111,2.6002,2.5948,2.5798,2.5647,2.5425,2.5118,2.465,2.4189,2.3721,2.3365,2.2957,2.2665,2.2457,2.2247,2.2061,2.1937,2.1686,2.1423,2.1158,2.0621,1.9788,1.8184,1.7536,1.685,1.6199,1.5961,1.5894,1.5768,1.5488,1.5196,1.5196,1.5196,1.5196,1.5196,1.5196,1.5147,1.5029,1.497,1.497,1.4852,1.4852,1.4911,1.4921,1.498,1.498,1.498,1.498,1.4921,1.4921,1.4921,1.498,1.497,1.497,1.4902,1.4902,1.4902,1.4843,1.4784,1.4734,1.4684,1.4809,1.4837,1.4771,1.4781,1.4842,1.4861,3.432,3.4122,3.3369,3.3074,3.3031,3.2977,3.2813,3.2564,3.2475,3.2225,3.2036,3.1994,3.1647,3.1511,3.092,3.0551,3.0298,3.0039,2.9774,2.9742,2.983,2.983,2.9874,2.983,2.9726,2.9563,2.9547,2.9563,2.9563,2.9563,2.9547,2.9563,2.9563,2.9608,2.9563,2.9563,2.9563,2.9547,2.9502,2.9428,2.9183,2.8889,2.8446,2.7775,2.7386,2.6989,2.6727,2.6447,2.6179,2.6125,2.6002,2.5839,2.5729,2.5592,2.5383,2.5018,2.4642,2.4367,2.3944,2.3609,2.3379,2.3047,2.2898,2.2639,2.244,2.2166,2.1855,2.1388,2.0871,2.0046,1.8531,1.7954,1.7318,1.6707,1.6467,1.641,1.6343,1.5931,1.5816,1.5536,1.5594,1.5594,1.5536,1.5546,1.5439,1.5332,1.5274,1.5215,1.5156,1.5156,1.5215,1.5274,1.5332,1.5391,1.5391,1.5332,1.5332,1.5274,1.5215,1.5274,1.5332,1.5323,1.5323,1.5147,1.5088,1.5029,1.5029,1.4911,1.4921,1.5039,1.498,1.4921,1.4921,1.498,1.5039,3.3943,3.3768,3.3583,3.3448,3.3305,3.316,3.2689,3.2168,3.2076,3.1674,3.1031,3.0856,3.0783,3.0511,3.0293,3.0097,3.0024,2.9879,2.9874,2.9874,2.9874,2.9918,2.9918,2.9918,2.9874,2.9858,2.9814,2.9786,2.9786,2.983,2.9786,2.983,2.983,2.983,2.9786,2.983,2.9786,2.9786,2.9681,2.9563,2.9412,2.9121,2.8637,2.7974,2.7625,2.7269,2.6922,2.6727,2.6515,2.6125,2.6056,2.6002,2.5839,2.5743,2.5453,2.5143,2.507,2.4879,2.4502,2.4653,2.4608,2.4455,2.4163,2.371,2.3223,2.285,2.2432,2.1737,2.0989,2.0075,1.8994,1.8515,1.786,1.7307,1.7032,1.7032,1.7022,1.6842,1.6549,1.6161,1.6114,1.6066,1.6009,1.5941,1.5836,1.5778,1.572,1.5672,1.5614,1.5566,1.5614,1.5682,1.5798,1.5798,1.5798,1.5798,1.573,1.574,1.5682,1.574,1.574,1.5798,1.5682,1.5556,1.5323,1.5264,1.5215,1.5156,1.5156,1.5215,1.5156,1.5039,1.5156,1.5274,1.5156,3.3395,3.3247,3.2769,3.252,3.2457,3.2263,3.1972,3.1604,3.1513,3.1223,3.0866,3.0584,3.0476,3.0356,3.0152,3.0017,2.9946,2.9902,2.9918,2.9918,2.9918,2.9918,2.9918,2.9918,2.9918,2.9918,2.9918,2.9918,2.9918,2.9874,2.9918,2.9918,2.9918,2.9918,2.9918,2.9874,2.9918,2.9874,2.983,2.9742,2.9547,2.9213,2.8685,2.8317,2.7974,2.7625,2.7269,2.6974,2.6765,2.65,2.6233,2.6125,2.6002,2.5839,2.5619,2.5354,2.526,2.5047,2.4761,2.4832,2.4782,2.4495,2.4619,2.4501,2.3971,2.3509,2.2853,2.2169,2.1596,2.073,1.9992,1.9349,1.8792,1.8205,1.7868,1.7678,1.7579,1.7567,1.7234,1.6842,1.6729,1.6627,1.6467,1.641,1.6353,1.6239,1.6171,1.6124,1.6019,1.6077,1.6077,1.6066,1.6134,1.6134,1.6134,1.6134,1.6134,1.6134,1.6134,1.6134,1.6134,1.6192,1.6077,1.5951,1.5778,1.5672,1.5566,1.5566,1.5508,1.5449,1.5508,1.5508,1.5508,1.5508,1.5439,3.2884,3.2703,3.1987,3.1691,3.1617,3.1466,3.1346,3.1252,3.1168,3.1106,3.0952,3.0733,3.0609,3.0485,3.0274,3.0103,3.0017,2.9989,2.9989,2.9962,2.9962,2.9918,2.9902,2.9918,2.9918,2.9918,2.9918,2.9918,2.9918,2.9918,2.9918,2.9918,2.9918,2.9918,2.9918,2.9918,2.9918,2.9918,2.9918,2.983,2.9592,2.9213,2.8842,2.8541,2.8235,2.7974,2.7675,2.7321,2.7063,2.6765,2.65,2.6233,2.6125,2.6002,2.5798,2.555,2.5353,2.4997,2.4896,2.4964,2.5104,2.4846,2.4836,2.4746,2.4277,2.3601,2.3032,2.2452,2.1987,2.1416,2.0694,2.0344,1.975,1.9067,1.8585,1.8265,1.8107,1.8007,1.7909,1.7623,1.7401,1.72,1.6952,1.6853,1.6853,1.674,1.6627,1.6627,1.6581,1.6524,1.6524,1.6513,1.6513,1.6457,1.6457,1.641,1.6467,1.6513,1.6513,1.6513,1.6513,1.6513,1.6457,1.6457,1.64,1.6296,1.6134,1.5972,1.5904,1.5904,1.5972,1.5972,1.5904,1.5904,1.5846,3.2459,3.2266,3.2107,3.1948,3.1839,3.1654,3.1579,3.1559,3.1462,3.1363,3.1151,3.1112,3.0855,3.0568,3.0316,3.0189,3.0189,3.0146,3.0162,3.0162,3.0076,2.9973,2.9973,2.9902,2.9918,2.9918,2.9918,2.9918,2.9918,2.9918,2.9918,2.9918,2.9918,2.9918,2.9918,2.9918,2.9918,2.9918,2.9918,2.983,2.9637,2.9305,2.9029,2.8795,2.8525,2.8235,2.7974,2.766,2.7357,2.7026,2.6832,2.65,2.6165,2.6071,2.5948,2.5841,2.5838,2.5908,2.5603,2.5668,2.5608,2.5361,2.5344,2.4836,2.4205,2.3567,2.3009,2.2959,2.2411,2.1832,2.1221,2.084,2.0288,1.9818,1.935,1.8998,1.8776,1.8818,1.8661,1.8559,1.8384,1.7846,1.7467,1.7401,1.7346,1.7234,1.7134,1.7134,1.7145,1.7078,1.7078,1.7078,1.7011,1.6955,1.6965,1.6909,1.6864,1.6909,1.6899,1.6955,1.6965,1.6965,1.7022,1.7022,1.6965,1.6797,1.6637,1.6467,1.6296,1.6296,1.6353,1.6353,1.6228,1.6239,1.6306,3.2606,3.2438,3.2353,3.2267,3.2161,3.1965,3.1839,3.1765,3.1634,3.1483,3.1423,3.1291,3.1095,3.0773,3.0568,3.0485,3.0443,3.0359,3.0316,3.029,3.0189,3.006,3.0033,2.9973,2.9946,2.9918,2.9918,2.9918,2.9918,2.9918,2.9918,2.9918,2.9918,2.9918,2.9918,2.9918,2.9918,2.9918,2.9874,2.9814,2.9681,2.9502,2.9305,2.9013,2.8858,2.8621,2.8365,2.8073,2.7775,2.7437,2.713,2.6817,2.65,2.6286,2.6002,2.5976,2.5883,2.5756,2.5567,2.5819,2.5735,2.5678,2.5475,2.5189,2.4279,2.3716,2.3183,2.2923,2.2702,2.2237,2.1789,2.1476,2.1093,2.0674,2.0211,1.9915,1.9678,1.9669,1.966,1.9488,1.935,1.8826,1.8328,1.8181,1.8012,1.7744,1.7689,1.7689,1.77,1.77,1.77,1.77,1.7623,1.7501,1.7468,1.7412,1.7368,1.7368,1.7368,1.7412,1.7412,1.7479,1.7479,1.7479,1.7434,1.7256,1.7088,1.692,1.6807,1.6797,1.6797,1.674,1.674,1.6864,1.6874,3.2838,3.2705,3.2623,3.2541,3.2457,3.2249,3.2144,3.2037,3.1839,3.1728,3.1634,3.1466,3.1274,3.1134,3.0935,3.0814,3.0814,3.0609,3.0526,3.0485,3.0359,3.0172,3.0103,3.0017,2.9973,2.9935,2.9918,2.9918,2.9918,2.9918,2.9918,2.9918,2.9918,2.9918,2.9918,2.9918,2.9918,2.9918,2.9918,2.9874,2.9786,2.9697,2.9502,2.9305,2.9167,2.9029,2.8748,2.8462,2.8186,2.784,2.7488,2.713,2.6817,2.65,2.6233,2.6125,2.5937,2.5758,2.5646,2.5638,2.5585,2.5408,2.5248,2.4887,2.4502,2.409,2.3816,2.3232,2.2874,2.2714,2.247,2.2092,2.1776,2.1449,2.11,2.0861,2.0622,2.0469,2.0361,2.0184,2.0011,1.9954,1.9479,1.9062,1.8739,1.8328,1.8247,1.8193,1.8193,1.8193,1.8193,1.8139,1.8084,1.7952,1.7854,1.781,1.781,1.7755,1.7755,1.7755,1.7755,1.7755,1.7755,1.7822,1.7767,1.7711,1.7534,1.7423,1.7312,1.7256,1.7256,1.7256,1.7312,1.7379,1.7379,3.3001,3.2965,3.2838,3.269,3.2573,3.2523,3.2439,3.2354,3.2214,3.202,3.1839,3.1654,3.1504,3.1445,3.1308,3.119,3.1151,3.1032,3.0895,3.0773,3.0609,3.045,3.0373,3.026,3.0114,3.0141,3.0271,3.0178,3.0032,3.0308,3.0113,2.9935,3.0016,2.9951,2.9918,2.9918,2.9918,2.9918,2.9918,2.9918,2.983,2.9786,2.9697,2.9608,2.9412,2.9213,2.9091,2.8795,2.8494,2.822,2.789,2.7488,2.713,2.6817,2.6553,2.6218,2.6056,2.5893,2.5813,2.5619,2.5339,2.5,2.4718,2.4596,2.4512,2.3876,2.3609,2.3727,2.3217,2.2873,2.2726,2.2604,2.2273,2.2005,2.1773,2.1626,2.1314,2.1131,2.0964,2.0761,2.0728,2.0779,2.0658,2.0244,1.9412,1.9014,1.8572,1.8506,1.856,1.856,1.8572,1.8518,1.841,1.8302,1.8139,1.8084,1.803,1.7975,1.792,1.7975,1.803,1.803,1.7986,1.7975,1.7986,1.8041,1.8041,1.781,1.7645,1.7656,1.7656,1.7645,1.7645,1.7645,1.7656,3.3194,3.317,3.3001,3.2855,3.2722,3.2707,3.2623,3.2523,3.2422,3.2284,3.2091,3.1929,3.1802,3.1728,3.1634,3.1521,3.1445,3.1291,3.119,3.1015,3.0871,3.0875,3.0898,3.1044,3.116,3.1307,3.1348,3.129,3.1372,3.1131,3.1154,3.1008,3.0421,2.9999,2.9918,2.9951,2.9918,2.9918,2.9918,2.9918,2.9874,2.9874,2.9786,2.9697,2.9653,2.9457,2.9321,2.9091,2.8826,2.859,2.822,2.7875,2.7488,2.7144,2.6765,2.6379,2.6218,2.6056,2.5893,2.5729,2.5467,2.5075,2.4805,2.4611,2.4583,2.4014,2.385,2.3761,2.352,2.3163,2.2969,2.2836,2.2676,2.248,2.2344,2.2209,2.2085,2.1854,2.1758,2.1651,2.1748,2.1811,2.1616,2.1372,2.0495,1.9665,1.9203,1.8827,1.8881,1.8881,1.8893,1.8893,1.8786,1.8732,1.8572,1.841,1.8193,1.8139,1.8127,1.8127,1.8193,1.8096,1.8107,1.8096,1.8185,1.823,1.8176,1.8052,1.792,1.7931,1.7931,1.7931,1.792,1.792,1.7865,3.3382,3.337,3.3176,3.3001,3.287,3.2855,3.2773,3.2639,3.259,3.2489,3.2318,3.2249,3.2179,3.209,3.2243,3.2012,3.1987,3.2042,3.1901,3.1811,3.1746,3.1809,3.195,3.2048,3.2083,3.2438,3.2373,3.2232,3.2174,3.2166,3.1976,3.1651,3.1164,3.0664,3.0182,2.9999,2.9935,2.9918,2.9918,2.9918,2.9918,2.9874,2.9874,2.977,2.9726,2.9681,2.9563,2.9366,2.9167,2.8873,2.8542,2.822,2.784,2.7437,2.6959,2.663,2.6326,2.6125,2.5962,2.577,2.5564,2.5286,2.5104,2.4835,2.4607,2.4319,2.4197,2.4021,2.3772,2.3463,2.333,2.3271,2.3138,2.3012,2.2917,2.2817,2.277,2.2551,2.2552,2.2529,2.2566,2.2419,2.2211,2.1832,2.1109,2.0268,1.9788,1.9347,1.9146,1.9158,1.9158,1.9158,1.9105,1.9052,1.8987,1.8732,1.8464,1.841,1.8344,1.8344,1.8302,1.8328,1.8478,1.8649,1.8716,1.8568,1.8467,1.8499,1.8297,1.8096,1.8096,1.8084,1.803,1.803,1.803,3.3579,3.3575,3.3388,3.317,3.3028,3.2916,3.2852,3.2805,3.2773,3.2707,3.2573,3.2489,3.2473,3.258,3.2879,3.2789,3.2593,3.3256,3.339,3.2798,3.2842,3.3069,3.31,3.3038,3.3094,3.2751,3.2883,3.3031,3.2809,3.279,3.2616,3.2425,3.215,3.157,3.0911,3.0247,2.9983,2.9951,2.9999,3.0016,2.9918,2.9918,2.9874,2.9874,2.9874,2.9786,2.9697,2.9608,2.9396,2.9121,2.8826,2.8446,2.8057,2.764,2.7233,2.6817,2.6543,2.6358,2.6181,2.5895,2.58,2.5605,2.5328,2.5174,2.4948,2.4708,2.4465,2.4376,2.4028,2.3878,2.3819,2.37,2.3569,2.3509,2.339,2.3343,2.3283,2.315,2.309,2.303,2.286,2.2702,2.2541,2.2221,2.1564,2.0902,2.0391,1.9981,1.9711,1.9503,1.9617,1.9368,1.9316,1.9263,1.9158,1.8946,1.8744,1.8679,1.8696,1.8736,1.8901,1.9112,1.923,1.9336,1.9347,1.9336,1.9159,1.9038,1.8963,1.8876,1.8328,1.8193,1.8139,1.8242,1.8412,3.3324,3.3807,3.357,3.3447,3.3357,3.3073,3.2965,3.2916,3.2884,3.282,3.274,3.2707,3.2623,3.2786,3.323,3.3406,3.3281,3.3743,3.3917,3.3722,3.3785,3.3945,3.4007,3.4141,3.4223,3.4477,3.448,3.4276,3.4422,3.3975,3.387,3.3791,3.3092,3.2398,3.1785,3.1299,3.1121,3.0668,3.0538,3.0393,2.9999,2.9967,2.9918,2.9918,2.9918,2.9874,2.983,2.977,2.9592,2.9321,2.9029,2.8685,2.8317,2.794,2.7503,2.7225,2.7055,2.7279,2.73,2.7145,2.6595,2.612,2.5675,2.5536,2.5313,2.5018,2.4835,2.4721,2.4434,2.4274,2.4131,2.4028,2.3897,2.391,2.3793,2.376,2.3641,2.3522,2.3403,2.339,2.3343,2.3283,2.317,2.3097,2.2518,2.2209,2.1813,2.1151,2.0785,2.0333,2.0135,1.9726,1.9512,1.946,1.9417,1.9775,1.974,1.9649,1.9552,1.9455,1.9658,2.0133,2.0289,2.0562,2.0385,2.0196,2.0229,2.0237,2.0017,1.9773,1.9447,1.8951,1.8814,1.8946,1.9167,3.2821,3.3511,3.3353,3.345,3.3578,3.3256,3.306,3.2997,3.2948,3.2902,3.2838,3.2838,3.2787,3.2973,3.3616,3.3794,3.3723,3.4801,3.4892,3.4696,3.4806,3.5039,3.5206,3.5224,3.53,3.5637,3.5603,3.5413,3.5307,3.5085,3.48,3.4492,3.4086,3.3469,3.2852,3.2334,3.1898,3.1494,3.1348,3.0862,3.0538,3.034,2.9935,2.9918,2.9918,2.9918,2.9874,2.983,2.9697,2.9473,2.9229,2.8889,2.8573,2.8201,2.7861,2.7802,2.791,2.8091,2.8097,2.7896,2.7328,2.6764,2.6329,2.6009,2.5814,2.5493,2.5271,2.5061,2.4805,2.4721,2.4593,2.4492,2.4363,2.4305,2.4189,2.4099,2.4041,2.3852,2.3793,2.3793,2.3793,2.3793,2.3806,2.3837,2.3682,2.35,2.3331,2.271,2.2051,2.1656,2.1297,2.0983,2.0828,2.1117,2.1212,2.1182,2.1076,2.0699,2.0699,2.0827,2.1244,2.1876,2.1817,2.1807,2.1989,2.2002,2.1719,2.1525,2.1489,2.1378,2.1149,2.0576,1.9734,1.9788,2.0098,3.2132,3.2797,3.2761,3.3121,3.3633,3.3426,3.3214,3.3011,3.3011,3.2948,3.2916,3.2884,3.2884,3.3173,3.425,3.4412,3.4252,3.5787,3.5911,3.5849,3.5902,3.6125,3.6138,3.6097,3.6011,3.5942,3.5865,3.5778,3.5773,3.5487,3.5211,3.506,3.4785,3.4414,3.386,3.3404,3.2901,3.2659,3.1963,3.1688,3.1591,3.0684,3.0231,3.0113,3.0016,2.9935,2.9918,2.9874,2.9742,2.9547,2.9366,2.9029,2.8716,2.8411,2.846,2.8637,2.8836,2.8737,2.8771,2.8612,2.8381,2.7967,2.7371,2.6946,2.6581,2.6217,2.5951,2.5687,2.5406,2.5283,2.5145,2.4962,2.4835,2.4721,2.4536,2.4478,2.4363,2.4292,2.4189,2.4189,2.4131,2.4131,2.4131,2.421,2.4393,2.4674,2.4554,2.4619,2.4012,2.3462,2.3161,2.2968,2.2924,2.3173,2.314,2.2738,2.2515,2.2198,2.2705,2.2926,2.3343,2.3558,2.3609,2.3649,2.3927,2.3876,2.346,2.3258,2.3195,2.3031,2.2657,2.2043,2.1235,2.1124,2.1344,3.1368,3.2135,3.2617,3.2976,3.3179,3.3515,3.3491,3.3232,3.3104,3.3024,3.2961,3.2979,3.2948,3.3027,3.4286,3.4624,3.5223,3.5937,3.6505,3.6631,3.6591,3.6533,3.6478,3.6404,3.6345,3.6208,3.6139,3.6062,3.6019,3.58,3.584,3.5897,3.5418,3.5295,3.5152,3.489,3.4464,3.3795,3.2967,3.2708,3.2352,3.1396,3.0895,3.0635,3.0247,3.021,3.021,3.0113,2.9903,2.9659,2.946,2.9137,2.8889,2.9005,2.9281,3.0051,3.0,2.9853,3.0134,2.9869,2.9559,2.9328,2.8751,2.802,2.7593,2.7141,2.6776,2.6368,2.6173,2.6061,2.5825,2.5629,2.5476,2.5295,2.5154,2.5,2.4916,2.4765,2.465,2.465,2.465,2.4593,2.4593,2.4563,2.4744,2.5322,2.5707,2.58,2.5845,2.5253,2.5022,2.4839,2.4661,2.4857,2.4367,2.3975,2.3878,2.3878,2.445,2.4827,2.4806,2.5,2.5273,2.5415,2.5441,2.5376,2.5208,2.4961,2.4559,2.4305,2.3948,2.3399,2.2902,2.2662,2.2531,3.0623,3.1384,3.1797,3.2326,3.2963,3.3563,3.368,3.352,3.3316,3.3165,3.3122,3.3028,3.2979,3.3166,3.4249,3.4925,3.5013,3.6221,3.6895,3.6856,3.6869,3.6788,3.6643,3.6572,3.6488,3.6395,3.6276,3.6216,3.6208,3.6104,3.6129,3.6494,3.6013,3.6148,3.6288,3.6307,3.6157,3.5347,3.4511,3.3973,3.3226,3.2319,3.172,3.1575,3.1056,3.0895,3.0975,3.0924,3.061,3.0427,3.0272,3.0085,2.9926,3.0161,3.0335,3.0958,3.096,3.0944,3.107,3.0749,3.0629,3.0392,2.9892,2.9337,2.8632,2.8104,2.7593,2.7141,2.697,2.6815,2.6578,2.6299,2.6146,2.5938,2.5756,2.5574,2.5394,2.5271,2.5188,2.5188,2.5131,2.5075,2.5018,2.4962,2.5165,2.5734,2.6153,2.6356,2.6668,2.6778,2.6689,2.6676,2.6476,2.6307,2.5815,2.5535,2.5801,2.6028,2.6454,2.6694,2.6534,2.6525,2.6844,2.6831,2.6751,2.6578,2.6264,2.5972,2.5627,2.5389,2.511,2.4792,2.4214,2.3834,2.3778,2.9895,3.0623,3.0618,3.1574,3.2895,3.3548,3.3802,3.3887,3.3577,3.3411,3.3274,3.3104,3.3042,3.3283,3.4353,3.4907,3.5349,3.6368,3.7009,3.7009,3.697,3.6869,3.6766,3.6719,3.6596,3.652,3.6402,3.6318,3.6276,3.6294,3.6446,3.6968,3.6791,3.6979,3.7547,3.7534,3.7353,3.6835,3.581,3.4971,3.4641,3.3599,3.2449,3.2918,3.2627,3.2352,3.2627,3.2481,3.1997,3.179,3.1614,3.1326,3.1315,3.1279,3.144,3.1613,3.1753,3.1769,3.1679,3.1379,3.1131,3.0896,3.0598,3.0274,2.9662,2.8947,2.8313,2.7917,2.7745,2.7519,2.7281,2.7083,2.6944,2.6747,2.6606,2.6299,2.5938,2.5744,2.5522,2.5467,2.5411,2.5411,2.5355,2.53,2.5256,2.5988,2.6387,2.6648,2.696,2.74,2.7556,2.7691,2.7331,2.7074,2.7501,2.7393,2.7895,2.8234,2.822,2.822,2.7791,2.8044,2.8461,2.7791,2.7093,2.7304,2.7141,2.662,2.6242,2.6088,2.5975,2.5995,2.5612,2.4918,2.46,2.9605,2.9764,3.0336,3.1504,3.2911,3.3099,3.3512,3.4023,3.3887,3.3671,3.352,3.3393,3.3214,3.3306,3.4541,3.51,3.5386,3.6408,3.6967,3.7048,3.7048,3.697,3.6829,3.6806,3.6684,3.6561,3.6444,3.6402,3.6335,3.6431,3.6904,3.7809,3.7615,3.778,3.8713,3.8684,3.8453,3.802,3.7153,3.639,3.6104,3.4953,3.3893,3.399,3.3746,3.3502,3.3469,3.308,3.245,3.1967,3.179,3.1773,3.1918,3.1934,3.2154,3.2431,3.2454,3.2367,3.2176,3.1894,3.1682,3.1437,3.1146,3.097,3.0468,2.9725,2.9153,2.8813,2.8485,2.8229,2.8015,2.7902,2.7717,2.7605,2.7407,2.6973,2.6539,2.619,2.5882,2.5743,2.5688,2.5633,2.5633,2.5619,2.5633,2.5854,2.6226,2.6503,2.6743,2.7069,2.7129,2.7281,2.7344,2.7385,2.8064,2.8353,2.8436,2.8656,2.8587,2.8738,2.8917,2.8834,2.8642,2.7797,2.7275,2.7522,2.7454,2.6781,2.6507,2.6558,2.6358,2.628,2.604,2.5388,2.5143,2.9589,2.9643,3.0344,3.1321,3.2395,3.2818,3.3406,3.4031,3.4049,3.3921,3.3807,3.3605,3.3404,3.3491,3.4724,3.5256,3.5455,3.6608,3.7082,3.7164,3.7126,3.7048,3.693,3.6869,3.6788,3.6667,3.6544,3.6461,3.6404,3.6835,3.7447,3.8322,3.827,3.8728,3.9717,3.9754,3.9421,3.8805,3.8164,3.7718,3.7335,3.6092,3.5283,3.5233,3.523,3.4998,3.4948,3.454,3.3809,3.3224,3.3029,3.2734,3.2784,3.2688,3.2772,3.2833,3.285,3.2757,3.2594,3.2373,3.215,3.1894,3.1552,3.1321,3.1204,3.0513,3.0036,2.9674,2.9462,2.9231,2.9054,2.8894,2.8567,2.8324,2.8099,2.7703,2.7087,2.6526,2.6161,2.5853,2.5798,2.5798,2.5784,2.5798,2.5744,2.5758,2.6148,2.6272,2.6525,2.6874,2.6914,2.6995,2.7201,2.744,2.7889,2.814,2.8279,2.853,2.8872,2.8733,2.8719,2.8844,2.8677,2.8177,2.7839,2.7968,2.7718,2.7176,2.6979,2.7072,2.6765,2.6387,2.6161,2.6027,2.5988,2.9719,2.9777,3.0275,3.1049,3.1842,3.2525,3.3343,3.4086,3.4148,3.4099,3.4074,3.3807,3.3615,3.3989,3.4893,3.5169,3.5772,3.6898,3.7305,3.7317,3.7203,3.7126,3.7031,3.693,3.6851,3.6708,3.6585,3.6599,3.6628,3.7111,3.7749,3.8663,3.9313,3.9907,4.0456,4.0597,4.0229,3.962,3.9061,3.8639,3.793,3.7136,3.6754,3.6734,3.7006,3.7126,3.6922,3.6478,3.5561,3.4923,3.4269,3.371,3.338,3.324,3.3114,3.3134,3.3096,3.2989,3.2881,3.2664,3.2484,3.2287,3.1966,3.1739,3.161,3.1306,3.0822,3.0584,3.0358,3.0054,2.986,2.9714,2.9355,2.8993,2.8739,2.8412,2.7722,2.7046,2.6624,2.6201,2.6062,2.6062,2.595,2.595,2.6034,2.6006,2.6076,2.6118,2.6343,2.6806,2.7071,2.7211,2.7407,2.7633,2.7818,2.804,2.8306,2.8755,2.9058,2.8713,2.8563,2.8769,2.8848,2.8839,2.8643,2.8348,2.8166,2.7715,2.7645,2.7572,2.719,2.6851,2.69,2.6864,2.6991,2.9789,2.9701,2.9678,3.0509,3.1793,3.2028,3.2841,3.4067,3.4197,3.4173,3.4148,3.4055,3.3895,3.3762,3.5241,3.5747,3.5792,3.7057,3.756,3.754,3.7392,3.7279,3.7217,3.7189,3.6926,3.6888,3.6915,3.6876,3.7215,3.7525,3.818,3.937,3.9526,4.0065,4.0685,4.0724,4.0504,3.9963,3.9572,3.9115,3.8465,3.7928,3.7819,3.7985,3.8474,3.8093,3.7703,3.7318,3.6685,3.6044,3.5191,3.4406,3.3898,3.3566,3.3398,3.324,3.3256,3.3165,3.3043,3.2827,3.2703,3.2594,3.2247,3.2079,3.1894,3.1724,3.1422,3.1321,3.1029,3.0493,3.0329,3.0208,2.9947,2.9711,2.9451,2.9032,2.8535,2.7967,2.7527,2.7032,2.6708,2.6511,2.6215,2.637,2.6708,2.6793,2.7074,2.7116,2.7173,2.7257,2.7356,2.7497,2.7666,2.765,2.7804,2.8197,2.8521,2.897,2.9223,2.8956,2.8774,2.8675,2.8759,2.8928,2.8591,2.8183,2.8015,2.831,2.8127,2.8012,2.7628,2.7384,2.7547,2.7663,2.7742]},{"header":{"parameterUnit":"m.s-1","parameterCategory":1,"la1":31.0,"la2":29.5877,"lo1":-88.7671,"lo2":-86.6584,"dy":0.0162,"dx":0.0185,"nx":115,"ny":88,"refTime":"2023-09-15T06:00:00:Z","depth":0,"parameterNumber":3,"parameterNumberName":"V-component_of_WINDS"},"data":[0.0,0.0,0.0,0.0,0.0,0.0,0.0,0.0,0.0,0.0,0.0,0.0,0.0,0.0,0.0,0.0,0.0,0.0,0.0,0.0,0.0,0.0,0.0,0.0,0.0,0.0,0.0,0.0,0.0,0.0,0.0,0.0,0.0,0.0,0.0,0.0,0.0,0.0,0.0,0.0,0.0,0.0,0.0,0.0,0.0,0.0,0.0,0.0,0.0,0.0,0.0,0.0,0.0,0.0,0.0,0.0,0.0,0.0,0.0,0.0,0.0,0.0,0.0,0.0,0.0,0.0,0.0,0.0,0.0,0.0,0.0,0.0,0.0,0.0,0.0,0.0,0.0,0.0,0.0,0.0,0.0,0.0,0.0,0.0,0.0,0.0,0.0,0.0,0.0,0.0,0.0,0.0,0.0,0.0,0.0,0.0,0.0,0.0,0.0,0.0,0.0,0.0,0.0,0.0,0.0,0.0,0.0,0.0,0.0,0.0,0.0,0.0,0.0,0.0,0.0,0.0,0.0,0.0,0.0,0.0,0.0,0.0,0.0,0.0,0.0,0.0,0.0,0.0,0.0,0.0,0.0,0.0,0.0,0.0,0.0,0.0,0.0,0.0,0.0,0.0,0.0,0.0,0.0,0.0,0.0,0.0,0.0,0.0,0.0,0.0,0.0,0.0,0.0,0.0,0.0,0.0,0.0,0.0,0.0,0.0,0.0,0.0,0.0,0.0,0.0,0.0,0.0,0.0,0.0,0.0,0.0,0.0,0.0,0.0,0.0,0.0,0.0,0.0,0.0,0.0,0.0,0.0,0.0,0.0,0.0,0.0,0.0,0.0,0.0,0.0,0.0,0.0,0.0,0.0,0.0,0.0,0.0,0.0,0.0,0.0,0.0,0.0,0.0,0.0,0.0,0.0,0.0,0.0,0.0,0.0,0.0,0.0,0.0,0.0,0.0,0.0,0.0,0.0,0.0,0.0,0.0,0.0,0.0,0.0,0.0,0.0,0.0,0.0,0.0,0.0,0.0,0.0,0.0,0.0,0.0,0.0,0.0,0.0,0.0,0.0,0.0,0.0,0.0,0.0,0.0,0.0,0.0,0.0,0.0,0.0,0.0,0.0,0.0,0.0,0.0,0.0,0.0,0.0,0.0,0.0,0.0,0.0,0.0,0.0,0.0,0.0,0.0,0.0,0.0,0.0,0.0,0.0,0.0,0.0,0.0,0.0,0.0,0.0,0.0,0.0,0.0,0.0,0.0,0.0,0.0,0.0,0.0,0.0,0.0,0.0,0.0,0.0,0.0,0.0,0.0,0.0,0.0,0.0,0.0,0.0,0.0,0.0,0.0,0.0,0.0,0.0,0.0,0.0,0.0,0.0,0.0,0.0,0.0,0.0,0.0,0.0,0.0,0.0,0.0,0.0,0.0,0.0,0.0,0.0,0.0,0.0,0.0,0.0,0.0,0.0,0.0,0.0,0.0,0.0,0.0,0.0,0.0,0.0,0.0,0.0,0.0,0.0,0.0,0.0,0.0,0.0,0.0,0.0,0.0,0.0,0.0,0.0,0.0,0.0,0.0,0.0,0.0,0.0,0.0,0.0,0.0,0.0,0.0,0.0,0.0,0.0,0.0,0.0,0.0,0.0,0.0,0.0,0.0,0.0,0.0,0.0,0.0,0.0,0.0,0.0,0.0,0.0,0.0,0.0,0.0,0.0,0.0,0.0,0.0,0.0,0.0,0.0,0.0,0.0,0.0,0.0,0.0,0.0,0.0,0.0,0.0,0.0,0.0,0.0,0.0,0.0,0.0,0.0,0.0,0.0,0.0,0.0,0.0,0.0,0.0,0.0,0.0,0.0,0.0,0.0,0.0,0.0,0.0,0.0,0.0,0.0,0.0,0.0,0.0,0.0,0.0,0.0,0.0,0.0,0.0,0.0,0.0,0.0,0.0,0.0,0.0,0.0,0.0,0.0,0.0,0.0,0.0,0.0,0.0,0.0,0.0,0.0,0.0,0.0,0.0,0.0,0.0,0.0,0.0,0.0,0.0,0.0,0.0,0.0,0.0,0.0,0.0,0.0,0.0,0.0,0.0,0.0,0.0,0.0,0.0,0.0,0.0,0.0,0.0,0.0,0.0,0.0,0.0,0.0,0.0,0.0,0.0,0.0,0.0,0.0,0.0,0.0,0.0,0.0,0.0,0.0,0.0,0.0,0.0,0.0,0.0,0.0,0.0,0.0,0.0,0.0,0.0,0.0,0.0,0.0,0.0,0.0,0.0,0.0,0.0,0.0,0.0,0.0,0.0,0.0,0.0,0.0,0.0,0.0,0.0,0.0,0.0,0.0,0.0,0.0,0.0,0.0,0.0,0.0,0.0,0.0,0.0,0.0,0.0,0.0,0.0,0.0,0.0,0.0,0.0,0.0,0.0,0.0,0.0,0.0,0.0,0.0,0.0,0.0,0.0,0.0,0.0,0.0,0.0,0.0,0.0,0.0,0.0,0.0,0.0,0.0,0.0,0.0,0.0,0.0,0.0,0.0,0.0,0.0,0.0,0.0,0.0,0.0,0.0,0.0,0.0,0.0,0.0,0.0,0.0,0.0,0.0,0.0,0.0,0.0,0.0,0.0,0.0,0.0,0.0,0.0,0.0,0.0,0.0,0.0,0.0,0.0,0.0,0.0,0.0,0.0,0.0,0.0,0.0,0.0,0.0,0.0,0.0,0.0,0.0,0.0,0.0,0.0,0.0,0.0,0.0,0.0,0.0,0.0,0.0,0.0,0.0,0.0,0.0,0.0,0.0,0.0,0.0,0.0,0.0,0.0,0.0,0.0,0.0,0.0,0.0,0.0,0.0,0.0,0.0,0.0,0.0,0.0,0.0,0.0,0.0,0.0,0.0,0.0,0.0,0.0,0.0,0.0,0.0,0.0,0.0,0.0,0.0,0.0,0.0,0.0,0.0,0.0,0.0,0.0,0.0,0.0,0.0,0.0,0.0,0.0,0.0,0.0,0.0,0.0,0.0,0.0,0.0,0.0,0.0,0.0,0.0,0.0,0.0,0.0,0.0,0.0,0.0,0.0,0.0,0.0,0.0,0.0,0.0,0.0,0.0,0.0,0.0,0.0,0.0,0.0,0.0,0.0,0.0,0.0,0.0,0.0,0.0,0.0,0.0,0.0,0.0,0.0,0.0,0.0,0.0,0.0,0.0,0.0,0.0,0.0,0.0,0.0,0.0,0.0,0.0,0.0,0.0,0.0,0.0,0.0,0.0,0.0,0.0,0.0,0.0,0.0,0.0,0.0,0.0,0.0,0.0,0.0,0.0,0.0,0.0,0.0,0.0,0.0,0.0,0.0,0.0,0.0,0.0,0.0,0.0,0.0,0.0,0.0,0.0,0.0,0.0,0.0,0.0,0.0,0.0,0.0,0.0,0.0,0.0,0.0,0.0,0.0,0.0,0.0,0.0,0.0,0.0,0.0,0.0,0.0,0.0,0.0,0.0,0.0,0.0,0.0,0.0,0.0,0.0,0.0,0.0,0.0,0.0,0.0,0.0,0.0,0.0,0.0,0.0,0.0,0.0,0.0,0.0,0.0,0.0,0.0,0.0,0.0,0.0,0.0,0.0,0.0,0.0,0.0,0.0,0.0,0.0,0.0,0.0,0.0,0.0,0.0,0.0,0.0,0.0,0.0,0.0,0.0,0.0,0.0,0.0,0.0,0.0,0.0,0.0,0.0,0.0,0.0,0.0,0.0,0.0,0.0,0.0,0.0,0.0,0.0,0.0,0.0,0.0,0.0,0.0,0.0,0.0,0.0,0.0,0.0,0.0,0.0,0.0,0.0,0.0,0.0,0.0,0.0,0.0,0.0,0.0,0.0,0.0,0.0,0.0,0.0,0.0,0.0,0.0,0.0,0.0,0.0,0.0,0.0,0.0,0.0,0.0,0.0,0.0,0.0,0.0,0.0,0.0,0.0,0.0,0.0,0.0,0.0,0.0,0.0,0.0,0.0,0.0,0.0,0.0,0.0,0.0,0.0,0.0,0.0,0.0,0.0,0.0,0.0,0.0,0.0,0.0,0.0,0.0,0.0,0.0,0.0,0.0,0.0,0.0,0.0,0.0,0.0,0.0,0.0,0.0,0.0,0.0,0.0,0.0,0.0,0.0,0.0,0.0,0.0,0.0,0.0,0.0,0.0,0.0,0.0,0.0,0.0,0.0,0.0,0.0,0.0,0.0,0.0,0.0,0.0,0.0,0.0,0.0,0.0,0.0,0.0,0.0,0.0,-1.6305,0.0,0.0,0.0,0.0,0.0,0.0,0.0,0.0,0.0,0.0,0.0,0.0,0.0,0.0,0.0,0.0,0.0,0.0,0.0,0.0,0.0,0.0,0.0,0.0,0.0,0.0,0.0,0.0,0.0,0.0,0.0,0.0,0.0,0.0,0.0,0.0,0.0,0.0,0.0,0.0,0.0,0.0,0.0,0.0,0.0,0.0,0.0,0.0,0.0,0.0,0.0,0.0,0.0,0.0,0.0,0.0,0.0,0.0,0.0,0.0,0.0,0.0,0.0,0.0,0.0,0.0,0.0,0.0,0.0,0.0,0.0,0.0,0.0,0.0,0.0,0.0,0.0,0.0,0.0,0.0,0.0,0.0,0.0,0.0,0.0,0.0,0.0,0.0,0.0,0.0,0.0,0.0,0.0,0.0,0.0,0.0,0.0,0.0,0.0,0.0,0.0,0.0,0.0,0.0,0.0,0.0,0.0,0.0,0.0,0.0,-1.789,-1.7926,-1.7762,-1.753,-1.7221,0.0,0.0,0.0,0.0,0.0,0.0,0.0,0.0,0.0,0.0,0.0,0.0,0.0,0.0,0.0,0.0,0.0,0.0,0.0,0.0,0.0,0.0,0.0,0.0,0.0,0.0,0.0,0.0,0.0,0.0,0.0,0.0,0.0,0.0,0.0,0.0,0.0,0.0,0.0,0.0,0.0,0.0,0.0,0.0,0.0,0.0,0.0,0.0,0.0,0.0,0.0,0.0,0.0,0.0,0.0,0.0,0.0,0.0,0.0,0.0,0.0,0.0,0.0,0.0,0.0,0.0,0.0,0.0,0.0,0.0,0.0,0.0,0.0,0.0,0.0,0.0,0.0,0.0,0.0,0.0,0.0,0.0,0.0,0.0,0.0,0.0,0.0,0.0,0.0,0.0,0.0,0.0,0.0,0.0,0.0,0.0,0.0,0.0,0.0,0.0,0.0,0.0,0.0,0.0,0.0,0.0,0.0,0.0,0.0,0.0,0.0,0.0,-1.8716,-1.8443,-1.8208,0.0,0.0,0.0,0.0,0.0,0.0,0.0,0.0,0.0,0.0,0.0,0.0,0.0,0.0,0.0,0.0,0.0,0.0,0.0,0.0,0.0,0.0,0.0,0.0,0.0,0.0,0.0,0.0,0.0,0.0,0.0,0.0,0.0,0.0,0.0,0.0,0.0,0.0,0.0,0.0,0.0,0.0,0.0,0.0,0.0,0.0,0.0,0.0,0.0,0.0,0.0,0.0,0.0,0.0,0.0,0.0,0.0,0.0,0.0,0.0,0.0,0.0,0.0,0.0,0.0,0.0,0.0,0.0,0.0,0.0,0.0,0.0,0.0,0.0,0.0,0.0,0.0,0.0,0.0,0.0,0.0,0.0,0.0,0.0,0.0,0.0,0.0,0.0,0.0,0.0,0.0,0.0,0.0,0.0,0.0,0.0,0.0,0.0,0.0,0.0,0.0,0.0,0.0,0.0,0.0,0.0,0.0,0.0,0.0,0.0,-1.9951,-1.9861,-1.9979,0.0,-1.8472,0.0,0.0,0.0,0.0,0.0,0.0,0.0,0.0,0.0,0.0,0.0,0.0,0.0,0.0,0.0,0.0,0.0,0.0,0.0,0.0,0.0,0.0,0.0,0.0,0.0,0.0,0.0,0.0,0.0,0.0,0.0,0.0,0.0,0.0,0.0,0.0,0.0,0.0,0.0,0.0,0.0,0.0,0.0,0.0,0.0,0.0,0.0,0.0,0.0,0.0,0.0,0.0,0.0,0.0,0.0,0.0,0.0,0.0,0.0,0.0,0.0,0.0,0.0,0.0,0.0,0.0,0.0,0.0,0.0,0.0,0.0,0.0,0.0,0.0,0.0,0.0,0.0,0.0,0.0,0.0,0.0,0.0,0.0,0.0,0.0,0.0,0.0,0.0,0.0,0.0,0.0,0.0,0.0,0.0,0.0,0.0,0.0,0.0,0.0,0.0,0.0,0.0,0.0,0.0,0.0,0.0,0.0,0.0,0.0,0.0,-2.0335,-2.0998,-2.0743,-2.0029,0.0,0.0,0.0,0.0,0.0,0.0,0.0,0.0,0.0,0.0,0.0,0.0,0.0,0.0,0.0,0.0,0.0,0.0,0.0,0.0,0.0,0.0,0.0,0.0,0.0,0.0,0.0,0.0,0.0,0.0,0.0,0.0,0.0,0.0,0.0,0.0,0.0,0.0,0.0,0.0,0.0,0.0,0.0,0.0,0.0,0.0,0.0,0.0,0.0,0.0,0.0,0.0,0.0,0.0,0.0,0.0,0.0,0.0,0.0,0.0,0.0,0.0,0.0,0.0,0.0,0.0,0.0,0.0,0.0,0.0,0.0,0.0,0.0,0.0,0.0,0.0,0.0,0.0,0.0,0.0,0.0,0.0,0.0,0.0,0.0,0.0,0.0,0.0,0.0,0.0,0.0,0.0,0.0,0.0,0.0,0.0,0.0,0.0,0.0,0.0,0.0,0.0,0.0,0.0,0.0,0.0,0.0,0.0,0.0,0.0,-2.0039,-2.0668,-2.1761,-2.1336,-2.0508,-1.9385,0.0,0.0,0.0,0.0,0.0,0.0,0.0,0.0,0.0,0.0,0.0,0.0,0.0,0.0,0.0,0.0,0.0,0.0,0.0,0.0,0.0,0.0,0.0,0.0,0.0,0.0,0.0,0.0,0.0,0.0,0.0,0.0,0.0,0.0,0.0,0.0,0.0,0.0,0.0,0.0,0.0,0.0,0.0,0.0,0.0,0.0,0.0,0.0,0.0,0.0,0.0,0.0,0.0,0.0,0.0,0.0,0.0,0.0,0.0,0.0,0.0,0.0,0.0,0.0,0.0,0.0,0.0,0.0,0.0,0.0,0.0,0.0,0.0,0.0,0.0,0.0,0.0,0.0,0.0,0.0,0.0,0.0,0.0,0.0,0.0,0.0,0.0,0.0,0.0,0.0,0.0,0.0,0.0,0.0,0.0,0.0,0.0,0.0,0.0,0.0,0.0,0.0,0.0,0.0,0.0,0.0,0.0,0.0,-1.9423,-2.0265,-2.1142,-2.2134,-2.1728,-2.096,0.0,0.0,0.0,0.0,0.0,0.0,0.0,0.0,0.0,0.0,0.0,0.0,0.0,0.0,0.0,0.0,0.0,0.0,0.0,0.0,0.0,0.0,0.0,0.0,0.0,0.0,0.0,0.0,0.0,0.0,0.0,0.0,0.0,0.0,0.0,0.0,0.0,0.0,0.0,0.0,0.0,0.0,0.0,0.0,0.0,0.0,0.0,0.0,0.0,0.0,0.0,0.0,0.0,0.0,0.0,0.0,0.0,0.0,0.0,0.0,0.0,0.0,0.0,0.0,0.0,0.0,0.0,0.0,0.0,0.0,0.0,0.0,0.0,0.0,0.0,0.0,0.0,0.0,0.0,0.0,0.0,0.0,0.0,0.0,0.0,0.0,0.0,0.0,0.0,0.0,0.0,0.0,0.0,0.0,0.0,0.0,0.0,0.0,0.0,0.0,0.0,0.0,0.0,0.0,0.0,0.0,0.0,0.0,0.0,-1.9083,-2.0769,-2.1863,-2.226,-2.1726,-2.1117,0.0,0.0,0.0,0.0,0.0,0.0,0.0,0.0,0.0,0.0,0.0,0.0,0.0,0.0,0.0,0.0,0.0,0.0,0.0,0.0,0.0,0.0,0.0,0.0,0.0,0.0,0.0,0.0,0.0,0.0,0.0,0.0,0.0,0.0,0.0,0.0,0.0,0.0,0.0,0.0,0.0,0.0,0.0,0.0,0.0,0.0,0.0,0.0,0.0,0.0,0.0,0.0,0.0,0.0,0.0,0.0,0.0,0.0,0.0,0.0,0.0,0.0,0.0,0.0,0.0,0.0,0.0,0.0,0.0,0.0,0.0,0.0,0.0,0.0,0.0,0.0,0.0,0.0,0.0,0.0,0.0,0.0,0.0,0.0,0.0,0.0,0.0,0.0,0.0,0.0,0.0,0.0,0.0,0.0,0.0,0.0,0.0,0.0,0.0,0.0,0.0,0.0,0.0,0.0,0.0,0.0,0.0,0.0,0.0,-1.9611,0.0,-2.2555,-2.2612,-2.2017,-2.1391,0.0,0.0,0.0,0.0,0.0,0.0,0.0,0.0,0.0,0.0,0.0,0.0,0.0,0.0,0.0,0.0,0.0,0.0,0.0,0.0,0.0,0.0,0.0,0.0,0.0,0.0,0.0,0.0,0.0,0.0,0.0,0.0,0.0,0.0,0.0,0.0,0.0,0.0,0.0,0.0,0.0,0.0,0.0,0.0,0.0,0.0,0.0,0.0,0.0,0.0,0.0,0.0,0.0,0.0,0.0,0.0,0.0,0.0,0.0,0.0,0.0,0.0,0.0,0.0,0.0,0.0,0.0,0.0,0.0,0.0,0.0,0.0,0.0,0.0,0.0,0.0,0.0,0.0,0.0,0.0,0.0,0.0,0.0,0.0,0.0,0.0,0.0,0.0,0.0,0.0,0.0,0.0,0.0,0.0,0.0,0.0,0.0,0.0,0.0,0.0,0.0,0.0,0.0,0.0,0.0,0.0,0.0,0.0,-1.8193,-2.1142,-2.2405,-2.309,-2.3327,-2.2759,-2.2007,0.0,0.0,0.0,0.0,0.0,0.0,0.0,0.0,0.0,0.0,0.0,0.0,0.0,0.0,0.0,0.0,0.0,0.0,0.0,0.0,0.0,0.0,0.0,0.0,0.0,0.0,0.0,0.0,0.0,0.0,0.0,0.0,0.0,0.0,0.0,0.0,0.0,0.0,0.0,0.0,0.0,0.0,0.0,0.0,0.0,0.0,0.0,0.0,0.0,0.0,0.0,0.0,0.0,0.0,0.0,0.0,0.0,0.0,0.0,0.0,0.0,0.0,0.0,0.0,0.0,0.0,0.0,0.0,0.0,0.0,0.0,0.0,0.0,0.0,0.0,0.0,0.0,0.0,0.0,0.0,0.0,0.0,0.0,0.0,0.0,0.0,0.0,0.0,0.0,0.0,0.0,0.0,0.0,0.0,0.0,0.0,0.0,0.0,0.0,0.0,0.0,0.0,0.0,0.0,0.0,0.0,0.0,0.0,0.0,-2.1338,-2.2336,-2.3261,-2.4025,-2.3301,-2.2794,0.0,0.0,0.0,0.0,0.0,0.0,0.0,0.0,0.0,0.0,0.0,0.0,0.0,0.0,0.0,0.0,0.0,0.0,0.0,0.0,0.0,0.0,0.0,0.0,0.0,0.0,0.0,0.0,0.0,0.0,0.0,0.0,0.0,0.0,0.0,0.0,0.0,0.0,0.0,0.0,0.0,0.0,0.0,0.0,0.0,0.0,0.0,0.0,0.0,0.0,0.0,0.0,0.0,0.0,0.0,0.0,0.0,0.0,0.0,0.0,0.0,0.0,0.0,0.0,0.0,0.0,0.0,0.0,0.0,0.0,0.0,0.0,0.0,0.0,0.0,0.0,0.0,0.0,0.0,0.0,0.0,0.0,0.0,0.0,0.0,0.0,0.0,0.0,0.0,0.0,0.0,0.0,0.0,0.0,0.0,0.0,0.0,0.0,0.0,0.0,0.0,0.0,0.0,0.0,0.0,0.0,0.0,0.0,0.0,-2.2462,-2.3379,-2.4442,-2.5548,-2.4692,-2.4052,-2.3657,0.0,0.0,0.0,0.0,0.0,0.0,0.0,0.0,0.0,0.0,0.0,0.0,0.0,0.0,0.0,0.0,0.0,0.0,0.0,0.0,0.0,0.0,0.0,0.0,0.0,0.0,0.0,0.0,0.0,0.0,0.0,0.0,0.0,0.0,0.0,0.0,0.0,0.0,0.0,0.0,0.0,0.0,0.0,0.0,0.0,0.0,0.0,0.0,0.0,0.0,0.0,0.0,0.0,0.0,0.0,0.0,0.0,0.0,0.0,0.0,0.0,0.0,0.0,0.0,0.0,0.0,0.0,0.0,0.0,0.0,0.0,0.0,0.0,0.0,0.0,0.0,0.0,0.0,0.0,0.0,0.0,0.0,0.0,0.0,0.0,0.0,0.0,0.0,0.0,0.0,0.0,0.0,0.0,0.0,0.0,0.0,0.0,0.0,0.0,0.0,0.0,0.0,0.0,0.0,0.0,0.0,0.0,0.0,-2.4306,-2.5426,-2.6456,-2.7284,-2.6595,-2.5732,0.0,0.0,0.0,0.0,0.0,0.0,0.0,0.0,0.0,0.0,0.0,0.0,0.0,0.0,0.0,0.0,0.0,0.0,0.0,0.0,0.0,0.0,0.0,0.0,0.0,0.0,0.0,0.0,0.0,0.0,0.0,0.0,0.0,0.0,0.0,0.0,0.0,0.0,0.0,0.0,0.0,0.0,0.0,0.0,0.0,0.0,0.0,0.0,0.0,0.0,0.0,0.0,0.0,0.0,0.0,0.0,0.0,0.0,0.0,0.0,0.0,0.0,0.0,0.0,0.0,0.0,0.0,0.0,0.0,0.0,0.0,0.0,0.0,0.0,0.0,0.0,0.0,0.0,0.0,0.0,0.0,0.0,0.0,0.0,0.0,0.0,0.0,0.0,0.0,0.0,0.0,0.0,0.0,0.0,0.0,0.0,0.0,0.0,0.0,0.0,0.0,0.0,0.0,0.0,0.0,0.0,0.0,0.0,0.0,-2.5609,-2.7306,-2.8137,-2.7788,-2.7265,-2.6736,0.0,0.0,0.0,0.0,0.0,0.0,0.0,0.0,0.0,0.0,0.0,0.0,0.0,0.0,0.0,0.0,0.0,0.0,0.0,0.0,0.0,0.0,0.0,0.0,0.0,0.0,0.0,0.0,0.0,0.0,0.0,0.0,0.0,0.0,0.0,0.0,0.0,0.0,0.0,0.0,0.0,0.0,0.0,0.0,0.0,0.0,0.0,0.0,0.0,0.0,0.0,0.0,0.0,0.0,0.0,0.0,0.0,0.0,0.0,0.0,0.0,0.0,0.0,0.0,0.0,0.0,0.0,0.0,0.0,0.0,0.0,0.0,0.0,0.0,0.0,0.0,0.0,0.0,0.0,0.0,0.0,0.0,0.0,0.0,0.0,0.0,0.0,0.0,0.0,0.0,0.0,0.0,0.0,0.0,0.0,0.0,0.0,0.0,0.0,0.0,0.0,0.0,0.0,0.0,0.0,0.0,0.0,0.0,-2.4502,-2.603,-2.805,-2.8921,-2.844,-2.8343,-2.7922,0.0,0.0,0.0,0.0,0.0,0.0,0.0,0.0,0.0,0.0,0.0,0.0,0.0,0.0,0.0,0.0,0.0,0.0,0.0,0.0,0.0,0.0,0.0,0.0,0.0,0.0,0.0,0.0,0.0,0.0,0.0,0.0,0.0,0.0,0.0,0.0,0.0,0.0,0.0,0.0,0.0,0.0,0.0,0.0,0.0,0.0,0.0,0.0,0.0,0.0,0.0,0.0,0.0,0.0,0.0,0.0,0.0,0.0,0.0,0.0,0.0,0.0,0.0,0.0,0.0,0.0,0.0,0.0,0.0,0.0,0.0,0.0,0.0,0.0,0.0,0.0,0.0,0.0,0.0,0.0,0.0,0.0,0.0,0.0,0.0,0.0,0.0,0.0,0.0,0.0,0.0,0.0,0.0,0.0,0.0,0.0,0.0,0.0,0.0,0.0,0.0,0.0,0.0,0.0,0.0,0.0,0.0,0.0,-2.4567,-2.5978,-2.7951,-2.898,-2.9135,-2.9523,-2.9176,0.0,0.0,0.0,0.0,0.0,0.0,0.0,0.0,0.0,0.0,0.0,0.0,0.0,0.0,0.0,0.0,0.0,0.0,0.0,0.0,0.0,0.0,0.0,0.0,0.0,0.0,0.0,0.0,0.0,0.0,0.0,0.0,0.0,0.0,0.0,0.0,0.0,0.0,0.0,0.0,0.0,0.0,0.0,0.0,0.0,0.0,0.0,0.0,0.0,0.0,0.0,0.0,0.0,0.0,0.0,0.0,0.0,0.0,0.0,0.0,0.0,0.0,0.0,0.0,0.0,0.0,0.0,0.0,0.0,0.0,0.0,0.0,0.0,0.0,0.0,0.0,0.0,0.0,0.0,0.0,0.0,0.0,0.0,0.0,0.0,0.0,0.0,0.0,0.0,0.0,0.0,0.0,0.0,0.0,0.0,0.0,0.0,0.0,0.0,0.0,0.0,0.0,0.0,0.0,0.0,0.0,0.0,0.0,-2.4644,-2.6379,-2.7398,-2.8391,-2.9269,-2.9677,-2.9506,0.0,0.0,0.0,0.0,0.0,0.0,0.0,0.0,0.0,0.0,0.0,0.0,0.0,0.0,0.0,0.0,0.0,0.0,0.0,0.0,0.0,0.0,0.0,0.0,0.0,0.0,0.0,0.0,0.0,0.0,0.0,0.0,0.0,0.0,0.0,0.0,0.0,0.0,0.0,0.0,0.0,0.0,0.0,0.0,0.0,0.0,0.0,0.0,-3.4881,0.0,0.0,0.0,0.0,0.0,0.0,0.0,0.0,0.0,0.0,0.0,0.0,0.0,0.0,0.0,0.0,0.0,0.0,0.0,0.0,0.0,0.0,0.0,0.0,0.0,0.0,0.0,0.0,0.0,0.0,0.0,0.0,0.0,0.0,0.0,0.0,0.0,0.0,0.0,0.0,0.0,0.0,0.0,0.0,0.0,0.0,0.0,0.0,0.0,0.0,0.0,0.0,0.0,0.0,0.0,0.0,0.0,0.0,0.0,-2.4324,-2.5711,-2.6839,-2.7868,-2.8728,-2.9809,-2.987,0.0,0.0,0.0,0.0,0.0,0.0,0.0,0.0,0.0,0.0,0.0,0.0,0.0,0.0,0.0,0.0,0.0,0.0,0.0,0.0,0.0,0.0,0.0,0.0,0.0,0.0,0.0,0.0,0.0,0.0,0.0,0.0,0.0,0.0,0.0,0.0,0.0,0.0,0.0,0.0,0.0,0.0,0.0,0.0,0.0,0.0,0.0,0.0,0.0,0.0,0.0,0.0,0.0,0.0,0.0,0.0,0.0,0.0,0.0,0.0,0.0,0.0,0.0,0.0,0.0,0.0,0.0,0.0,0.0,0.0,0.0,0.0,0.0,0.0,0.0,0.0,0.0,0.0,0.0,0.0,0.0,0.0,0.0,0.0,0.0,0.0,0.0,0.0,0.0,0.0,0.0,0.0,0.0,0.0,0.0,0.0,0.0,0.0,0.0,0.0,0.0,0.0,0.0,0.0,0.0,0.0,0.0,-2.3155,-2.3875,-2.4814,-2.6268,-2.7392,-2.8275,-2.9886,-3.0279,-2.9247,0.0,0.0,0.0,0.0,0.0,0.0,0.0,0.0,0.0,0.0,0.0,0.0,0.0,0.0,0.0,0.0,0.0,0.0,0.0,0.0,0.0,0.0,0.0,0.0,0.0,0.0,0.0,0.0,0.0,0.0,0.0,0.0,0.0,0.0,0.0,0.0,0.0,0.0,-2.7293,-3.0663,0.0,0.0,0.0,0.0,0.0,0.0,0.0,0.0,-3.8369,0.0,0.0,0.0,0.0,0.0,0.0,0.0,0.0,0.0,0.0,0.0,0.0,0.0,0.0,0.0,0.0,0.0,0.0,0.0,0.0,0.0,0.0,0.0,0.0,0.0,0.0,0.0,0.0,0.0,0.0,0.0,0.0,0.0,0.0,0.0,0.0,0.0,0.0,0.0,0.0,0.0,0.0,0.0,0.0,0.0,0.0,0.0,0.0,0.0,0.0,0.0,0.0,0.0,0.0,0.0,0.0,-2.3208,-2.3296,-2.3927,-2.5271,-2.5797,-2.6887,-2.8749,-2.9715,-3.0118,-2.9874,0.0,0.0,0.0,0.0,0.0,0.0,0.0,0.0,0.0,0.0,0.0,0.0,0.0,0.0,0.0,0.0,0.0,0.0,0.0,0.0,0.0,0.0,0.0,0.0,0.0,0.0,0.0,0.0,0.0,0.0,0.0,0.0,0.0,0.0,0.0,0.0,0.0,0.0,0.0,-3.2759,-3.4829,0.0,0.0,0.0,0.0,0.0,0.0,0.0,0.0,-3.885,0.0,0.0,0.0,0.0,0.0,0.0,0.0,0.0,0.0,0.0,0.0,0.0,0.0,0.0,0.0,0.0,0.0,0.0,0.0,0.0,0.0,0.0,0.0,0.0,0.0,0.0,0.0,0.0,0.0,0.0,0.0,0.0,0.0,0.0,0.0,0.0,0.0,0.0,0.0,0.0,0.0,0.0,0.0,0.0,0.0,0.0,0.0,0.0,0.0,0.0,0.0,0.0,0.0,0.0,0.0,-2.2787,-2.3139,-2.3754,-2.4751,-2.558,-2.6822,-2.8545,-2.9398,-2.9865,0.0,0.0,0.0,0.0,0.0,0.0,0.0,0.0,0.0,0.0,0.0,0.0,0.0,0.0,0.0,0.0,0.0,0.0,0.0,0.0,0.0,0.0,0.0,0.0,0.0,0.0,0.0,0.0,0.0,0.0,0.0,0.0,0.0,0.0,0.0,0.0,0.0,0.0,0.0,0.0,-3.4144,-3.6251,-3.7259,0.0,0.0,0.0,0.0,0.0,0.0,-4.0302,-4.0184,0.0,0.0,0.0,0.0,0.0,0.0,0.0,0.0,0.0,0.0,0.0,0.0,0.0,0.0,0.0,0.0,0.0,0.0,0.0,0.0,0.0,0.0,0.0,0.0,0.0,0.0,0.0,0.0,0.0,0.0,0.0,0.0,0.0,0.0,0.0,0.0,0.0,0.0,0.0,0.0,0.0,0.0,0.0,0.0,0.0,0.0,0.0,0.0,0.0,0.0,0.0,0.0,0.0,0.0,0.0,-2.2385,-2.3066,-2.374,-2.4345,-2.5517,-2.6952,-2.8515,-2.9162,-2.9678,0.0,0.0,0.0,0.0,0.0,0.0,0.0,0.0,0.0,0.0,0.0,0.0,0.0,0.0,0.0,0.0,0.0,0.0,0.0,0.0,0.0,0.0,0.0,0.0,0.0,0.0,0.0,0.0,0.0,0.0,0.0,0.0,0.0,0.0,0.0,0.0,0.0,0.0,0.0,0.0,0.0,-3.7546,-3.8841,-3.9839,0.0,0.0,0.0,0.0,-4.2366,-4.2074,0.0,0.0,0.0,0.0,0.0,0.0,0.0,0.0,0.0,0.0,0.0,0.0,0.0,0.0,0.0,0.0,0.0,0.0,0.0,0.0,0.0,0.0,0.0,0.0,0.0,0.0,0.0,0.0,0.0,0.0,0.0,0.0,0.0,0.0,0.0,0.0,0.0,0.0,0.0,0.0,0.0,0.0,0.0,0.0,0.0,0.0,0.0,0.0,0.0,0.0,0.0,0.0,0.0,0.0,0.0,0.0,-2.2568,-2.3419,-2.4166,-2.4945,-2.584,-2.7284,-2.9099,-2.9236,-2.9578,0.0,0.0,0.0,0.0,0.0,0.0,0.0,0.0,0.0,0.0,0.0,0.0,0.0,0.0,0.0,0.0,0.0,0.0,0.0,0.0,0.0,0.0,0.0,0.0,0.0,0.0,0.0,0.0,0.0,0.0,0.0,0.0,0.0,0.0,0.0,0.0,0.0,0.0,0.0,0.0,0.0,-3.8678,-4.0231,-4.1622,-4.2348,0.0,0.0,-4.3508,-4.3605,-4.3366,0.0,0.0,0.0,0.0,0.0,0.0,0.0,0.0,0.0,0.0,0.0,0.0,0.0,0.0,0.0,0.0,0.0,0.0,0.0,0.0,0.0,0.0,0.0,0.0,0.0,0.0,0.0,0.0,0.0,0.0,0.0,0.0,0.0,0.0,0.0,0.0,0.0,0.0,0.0,0.0,0.0,0.0,0.0,0.0,0.0,0.0,0.0,0.0,0.0,0.0,0.0,0.0,0.0,0.0,0.0,-2.2029,-2.252,-2.3644,-2.4622,-2.5324,-2.6449,-2.7831,-2.9447,-2.932,-2.9417,0.0,0.0,0.0,0.0,0.0,0.0,0.0,0.0,0.0,0.0,0.0,0.0,0.0,0.0,0.0,0.0,0.0,0.0,0.0,0.0,0.0,0.0,0.0,0.0,0.0,0.0,0.0,0.0,0.0,0.0,0.0,0.0,0.0,0.0,0.0,0.0,0.0,0.0,0.0,0.0,0.0,0.0,-4.1878,-4.3055,0.0,0.0,0.0,-4.4755,-4.5532,0.0,0.0,0.0,0.0,0.0,0.0,0.0,0.0,0.0,0.0,0.0,0.0,0.0,0.0,0.0,0.0,0.0,0.0,0.0,0.0,0.0,0.0,0.0,0.0,0.0,0.0,0.0,0.0,0.0,0.0,0.0,0.0,0.0,0.0,0.0,0.0,0.0,0.0,0.0,0.0,0.0,0.0,0.0,0.0,0.0,0.0,0.0,0.0,0.0,0.0,0.0,0.0,0.0,0.0,0.0,0.0,0.0,-2.2685,-2.4097,-2.5123,-2.5955,-2.7177,-2.8451,-2.9644,-2.9456,0.0,0.0,0.0,0.0,0.0,0.0,0.0,0.0,0.0,0.0,0.0,0.0,0.0,0.0,0.0,0.0,0.0,0.0,0.0,0.0,0.0,0.0,0.0,0.0,0.0,0.0,0.0,-2.2848,0.0,0.0,0.0,0.0,0.0,0.0,0.0,0.0,0.0,0.0,0.0,0.0,0.0,0.0,-4.0674,-4.3091,-4.4288,-4.5428,0.0,0.0,-4.6267,-4.7137,-4.615,-4.4976,0.0,0.0,0.0,0.0,0.0,0.0,0.0,0.0,0.0,0.0,0.0,0.0,0.0,0.0,0.0,0.0,0.0,0.0,0.0,0.0,0.0,0.0,0.0,0.0,0.0,0.0,0.0,0.0,0.0,0.0,0.0,0.0,0.0,0.0,0.0,0.0,0.0,0.0,0.0,0.0,0.0,0.0,0.0,0.0,0.0,0.0,0.0,0.0,0.0,0.0,0.0,0.0,0.0,0.0,0.0,-2.3482,-2.484,-2.5943,-2.685,-2.788,-2.8924,-2.9992,-2.9646,-2.9754,0.0,0.0,0.0,0.0,0.0,0.0,0.0,0.0,0.0,0.0,0.0,0.0,0.0,0.0,0.0,0.0,0.0,0.0,0.0,0.0,0.0,0.0,0.0,0.0,0.0,0.0,0.0,0.0,0.0,0.0,0.0,0.0,0.0,0.0,0.0,0.0,0.0,0.0,0.0,0.0,0.0,-4.147,-4.3416,-4.5458,-4.6949,0.0,0.0,-4.827,-4.7831,-4.6873,-4.5703,-4.4264,0.0,0.0,0.0,0.0,0.0,0.0,0.0,0.0,0.0,0.0,0.0,0.0,0.0,0.0,0.0,0.0,0.0,0.0,0.0,0.0,0.0,0.0,0.0,0.0,0.0,0.0,0.0,0.0,0.0,0.0,0.0,0.0,0.0,0.0,0.0,0.0,0.0,0.0,0.0,0.0,0.0,0.0,0.0,0.0,0.0,0.0,0.0,0.0,0.0,0.0,0.0,0.0,0.0,-2.3418,-2.3489,-2.5345,-2.6539,-2.7136,-2.8523,-2.9502,-3.0089,-3.0106,-3.0052,0.0,0.0,0.0,0.0,0.0,0.0,0.0,0.0,0.0,0.0,0.0,0.0,0.0,0.0,0.0,0.0,0.0,0.0,0.0,0.0,0.0,0.0,0.0,0.0,0.0,0.0,0.0,0.0,-2.5245,-2.5591,-2.6122,0.0,0.0,0.0,0.0,0.0,0.0,0.0,0.0,0.0,0.0,-4.2169,-4.4505,-4.6296,0.0,0.0,-4.8584,-4.8337,-4.8494,-4.7038,-4.5545,-4.4594,-4.2874,0.0,0.0,0.0,0.0,0.0,0.0,0.0,0.0,0.0,0.0,0.0,0.0,0.0,0.0,0.0,0.0,0.0,0.0,0.0,0.0,0.0,0.0,0.0,0.0,0.0,0.0,0.0,0.0,0.0,0.0,0.0,0.0,0.0,0.0,0.0,0.0,0.0,0.0,0.0,0.0,0.0,0.0,0.0,0.0,0.0,0.0,0.0,0.0,0.0,0.0,0.0,0.0,-2.401,-2.3842,-2.5949,-2.7188,-2.7496,-2.9061,-2.9992,-3.0171,-3.0498,-3.0446,0.0,0.0,0.0,0.0,0.0,0.0,0.0,0.0,0.0,0.0,0.0,0.0,0.0,0.0,0.0,0.0,0.0,0.0,0.0,0.0,0.0,0.0,0.0,0.0,0.0,0.0,0.0,0.0,-2.649,-2.6797,-2.7399,0.0,0.0,0.0,0.0,0.0,0.0,0.0,0.0,0.0,0.0,-4.3202,-4.5065,-4.6732,-4.8089,-4.8923,-4.8456,-4.8146,-4.8387,-4.6934,-4.5577,-4.4995,0.0,0.0,0.0,0.0,0.0,0.0,0.0,0.0,0.0,0.0,0.0,0.0,0.0,0.0,0.0,0.0,0.0,0.0,0.0,0.0,0.0,0.0,0.0,0.0,0.0,0.0,0.0,0.0,0.0,0.0,-2.4086,0.0,0.0,0.0,0.0,0.0,0.0,0.0,0.0,0.0,0.0,0.0,0.0,0.0,0.0,0.0,0.0,0.0,0.0,0.0,0.0,0.0,0.0,-2.473,-2.4638,-2.6673,-2.7908,-2.8198,-2.9413,-3.0171,-3.0418,-3.0961,-3.1045,-3.0583,0.0,0.0,0.0,0.0,0.0,0.0,0.0,0.0,0.0,0.0,0.0,0.0,0.0,0.0,0.0,0.0,0.0,0.0,0.0,0.0,0.0,0.0,0.0,0.0,0.0,0.0,-2.7983,-2.8092,-2.824,0.0,0.0,0.0,0.0,0.0,0.0,0.0,0.0,0.0,0.0,-4.2343,-4.4533,-4.492,-4.6649,-4.7852,-4.7535,-4.7845,-4.7909,-4.7369,-4.6615,-4.5958,0.0,0.0,0.0,0.0,0.0,0.0,0.0,0.0,0.0,0.0,0.0,0.0,0.0,0.0,0.0,0.0,0.0,0.0,0.0,0.0,0.0,0.0,0.0,0.0,0.0,0.0,0.0,-2.6851,-2.5538,0.0,0.0,0.0,0.0,0.0,0.0,0.0,0.0,0.0,0.0,0.0,-2.8188,-2.8188,0.0,0.0,0.0,0.0,0.0,0.0,0.0,0.0,0.0,0.0,0.0,0.0,-2.5549,-2.5819,-2.7326,-2.8224,-2.8489,-2.9686,-3.0323,-3.0405,-3.0975,-3.076,-2.9618,0.0,0.0,0.0,0.0,0.0,0.0,0.0,0.0,0.0,0.0,0.0,0.0,0.0,0.0,0.0,0.0,0.0,0.0,0.0,0.0,0.0,0.0,0.0,0.0,0.0,-2.8798,0.0,0.0,0.0,0.0,0.0,0.0,0.0,0.0,0.0,0.0,0.0,-3.8602,-4.0171,-4.2689,-4.4699,-4.55,-4.6834,-4.7812,0.0,0.0,0.0,0.0,0.0,0.0,0.0,0.0,0.0,0.0,0.0,0.0,0.0,0.0,-4.4705,-4.3518,-4.3139,-4.2759,-4.191,0.0,0.0,0.0,0.0,0.0,0.0,0.0,0.0,0.0,0.0,0.0,0.0,0.0,0.0,-2.9309,0.0,-2.8264,0.0,0.0,0.0,0.0,0.0,0.0,0.0,0.0,-2.8925,-2.977,-3.0583,-3.0465,-3.0358,0.0,-2.9593,-2.8113,0.0,0.0,0.0,0.0,0.0,0.0,0.0,0.0,-2.633,-2.6643,-2.7782,-2.8484,-2.8646,-2.9551,-3.0188,-3.0391,-3.0841,-3.0515,-2.9408,-2.8488,-2.775,0.0,0.0,0.0,0.0,0.0,0.0,0.0,0.0,0.0,0.0,0.0,0.0,0.0,0.0,0.0,0.0,0.0,0.0,0.0,0.0,0.0,0.0,0.0,-3.0763,0.0,0.0,0.0,0.0,0.0,0.0,0.0,0.0,0.0,-3.6567,-3.8555,-4.0522,-4.1919,-4.3878,-4.5426,-4.592,0.0,0.0,0.0,0.0,0.0,0.0,0.0,-4.6077,-4.6195,-4.5917,-4.5767,-4.6083,-4.6822,-4.7421,-4.7535,0.0,0.0,-4.5644,-4.5169,-4.4781,-4.3989,-4.3947,-4.385,-4.32,-4.3128,-4.3259,0.0,0.0,0.0,0.0,0.0,0.0,0.0,0.0,-3.3026,-3.2295,0.0,-3.0502,0.0,0.0,0.0,0.0,0.0,-2.829,0.0,0.0,-3.0885,-3.1803,-3.2999,-3.2675,-3.2128,-3.1381,-3.0738,-2.9941,-2.8983,-2.7687,0.0,0.0,0.0,0.0,0.0,0.0,-2.7088,-2.7157,-2.8126,-2.8606,-2.8612,-2.92,-2.9781,-3.0378,-3.0501,-3.0403,-2.9973,-2.8934,-2.8099,-2.7397,-2.7353,0.0,0.0,0.0,0.0,0.0,0.0,0.0,0.0,0.0,0.0,0.0,0.0,0.0,0.0,0.0,0.0,0.0,0.0,0.0,0.0,-3.2466,0.0,0.0,0.0,0.0,0.0,0.0,0.0,0.0,0.0,0.0,-4.0295,-4.1231,-4.2526,-4.4262,0.0,0.0,0.0,0.0,-4.7439,-4.6779,-4.6842,-4.7043,-4.7061,-4.7098,-4.7133,-4.7284,0.0,0.0,-4.813,-4.8381,-4.8495,-4.8605,-4.8695,-4.8492,-4.7499,-4.6779,-4.6363,-4.6475,-4.648,-4.6383,-4.5739,-4.5338,-4.5217,-3.7455,0.0,0.0,0.0,0.0,-3.4749,-3.5024,-3.5139,-3.5619,-3.4892,-3.3407,-3.3551,0.0,0.0,0.0,0.0,0.0,0.0,-3.0368,-3.0924,-3.2195,-3.2894,-3.3055,-3.3374,-3.3184,-3.2516,-3.1923,-3.12,-3.041,-2.9442,-2.815,-2.6499,0.0,0.0,0.0,0.0,-2.7618,-2.8139,-2.8468,-2.8563,-2.8592,-2.9211,-2.9767,-3.0391,-3.0092,-2.9992,-3.0011,-2.8934,-2.8478,-2.8553,-2.774,0.0,0.0,0.0,0.0,0.0,0.0,0.0,0.0,0.0,0.0,0.0,0.0,0.0,0.0,0.0,0.0,0.0,0.0,0.0,-3.2736,-3.3469,-3.3968,0.0,0.0,0.0,0.0,0.0,0.0,0.0,0.0,0.0,-4.251,-4.3044,-4.381,0.0,0.0,-4.6944,-4.6916,-4.7214,-4.7375,-4.7267,-4.7338,0.0,-4.7486,-4.7511,-4.7597,-4.777,-4.805,-4.8286,-4.8458,-4.8642,-4.8785,-4.8872,-4.8993,-4.8971,-4.8714,-4.8438,-4.8081,-4.7746,-4.766,-4.7217,-4.5996,-4.5669,-4.5462,-4.0553,-3.8889,-3.7602,-3.7026,-3.6933,-3.7386,-3.7563,-3.7576,-3.7945,-3.7465,-3.6607,-3.5886,-3.4746,-3.3356,-3.2763,0.0,0.0,0.0,-3.1707,-3.2208,-3.3422,-3.401,-3.4062,-3.4321,-3.4182,-3.372,-3.3052,-3.2368,-3.1514,-3.0535,-2.9369,-2.8053,0.0,0.0,-2.7468,-2.7662,-2.8106,-2.8573,-2.8587,-2.8587,-2.86,-2.917,-2.9659,-3.0011,-2.9726,-2.9734,-2.9983,-2.9184,-2.8778,-2.9066,-2.8183,-2.7652,0.0,0.0,0.0,0.0,0.0,0.0,0.0,0.0,0.0,0.0,0.0,-2.9969,-3.0479,0.0,0.0,0.0,-3.1743,-3.257,-3.3856,-3.4863,0.0,0.0,0.0,0.0,0.0,0.0,0.0,-4.0671,-4.1346,-4.2282,-4.3678,-4.3966,-4.4578,-4.5904,-4.6711,-4.7258,-4.745,0.0,-4.7518,-4.7621,-4.7663,-4.7723,-4.7806,-4.7593,-4.7365,-4.7273,-4.7776,-4.8162,-4.8251,-4.8633,-4.8978,-4.9079,-4.9179,-4.915,-4.8832,-4.8707,-4.8707,-4.8584,-4.8347,-4.7702,-4.6467,-4.5941,-4.5453,-4.2831,-4.2202,-4.0458,-3.9501,-3.918,-3.9772,-3.9998,-3.997,-3.9998,-3.9995,-3.991,-3.77,-3.6788,-3.6774,-3.4877,0.0,-3.2846,-3.2846,-3.3195,-3.3968,-3.4384,-3.4925,-3.5568,-3.5394,-3.5105,-3.4753,-3.4125,-3.3311,-3.2352,-3.1046,-3.0131,-2.9508,-2.841,-2.7921,-2.8079,-2.8249,-2.843,-2.8587,-2.8587,-2.8587,-2.86,-2.9129,-2.9401,-2.9414,-2.9401,-2.9572,-2.9845,-2.932,-2.9052,-2.9023,-2.8468,-2.7982,-2.7697,0.0,0.0,0.0,0.0,0.0,0.0,0.0,0.0,0.0,0.0,0.0,0.0,0.0,0.0,0.0,-3.3639,0.0,-3.4701,-3.6474,0.0,0.0,0.0,-3.9628,-3.9904,-4.0646,-4.1228,-4.1497,0.0,0.0,-4.4123,-4.4325,-4.4833,-4.6205,-4.7052,-4.756,-4.756,-4.7575,-4.7652,-4.7583,-4.7755,-4.7813,-4.7706,-4.7291,-4.68,-4.6359,-4.6905,-4.7506,-4.7627,-4.8234,-4.8837,-4.8898,-4.907,-4.8858,-4.8147,-4.8059,-4.8314,-4.8909,-4.8509,-4.7819,-4.6955,-4.6204,-4.5472,-4.2243,-4.2125,-4.2128,-4.1784,-4.1309,-4.1371,-4.1429,-4.1526,-4.1429,-4.1131,-4.0452,-3.9571,-3.8232,-3.6433,-3.5204,-3.4441,-3.3991,-3.3991,-3.4131,-3.4318,-3.4848,-3.4975,-3.4755,-3.5143,-3.5042,-3.4495,-3.42,-3.3528,-3.2484,-3.1267,-3.0201,-2.9267,-2.8439,-2.8066,-2.8079,-2.8392,-2.8522,-2.8587,-2.8587,-2.8587,-2.8587,-2.8736,-2.8804,-2.8804,-2.8804,-2.878,-2.8643,-2.8491,-2.8424,-2.8382,-2.7826,-2.7607,-2.7668,-2.7128,0.0,0.0,0.0,0.0,0.0,0.0,0.0,0.0,0.0,-3.2563,-3.2853,0.0,-3.3479,0.0,-3.4806,-3.5907,-3.6775,-3.7974,0.0,0.0,-3.9492,-4.0046,-4.0912,-4.1279,-4.1791,-4.2612,-4.2996,-4.3359,-4.3649,-4.427,-4.4854,-4.5331,-4.5883,-4.6338,-4.6433,-4.6507,-4.6526,-4.6599,-4.6672,-4.6599,-4.6617,-4.6541,-4.6408,-4.6274,-4.6542,-4.6773,-4.6871,-4.7066,-4.7311,-4.7442,-4.7503,-4.7451,-4.7301,-4.7264,-4.7331,-4.7507,-4.7425,-4.703,-4.6186,-4.5848,-4.5453,-4.2034,-4.2246,-4.2887,-4.2752,-4.2166,-4.2298,-4.2158,-4.1975,-4.1909,-4.168,-4.1198,-3.9574,-3.7828,-3.6006,-3.5312,-3.4844,-3.4601,-3.4601,-3.4616,-3.4631,-3.5034,-3.5087,-3.475,-3.4875,-3.4714,-3.4244,-3.3754,-3.3039,-3.2203,-3.0918,-2.9942,-2.9201,-2.8438,-2.8079,-2.8079,-2.8471,-2.8587,-2.8587,-2.8587,-2.8587,-2.8587,-2.8587,-2.8587,-2.8587,-2.8329,-2.8234,-2.8215,-2.7939,-2.7935,-2.814,-2.7597,-2.7564,-2.8115,-2.7549,-2.737,0.0,0.0,0.0,0.0,0.0,0.0,0.0,0.0,0.0,0.0,0.0,-3.5228,-3.5886,-3.6754,-3.7603,-3.8216,-3.9287,-4.0011,-4.0215,-4.0792,-4.1399,-4.1988,-4.2212,-4.2559,-4.3214,-4.3393,-4.355,-4.3618,-4.4073,-4.4383,-4.4469,-4.472,-4.5202,-4.5971,-4.6153,-4.6172,-4.6207,-4.6188,-4.6041,-4.5762,-4.5719,-4.5638,-4.5342,-4.563,-4.5988,-4.6084,-4.6395,-4.6701,-4.6862,-4.6922,-4.6802,-4.6494,-4.643,-4.6336,-4.5979,-4.5885,-4.5848,-4.5716,-4.5435,-4.5003,-4.1876,-4.2162,-4.2806,-4.2761,-4.2282,-4.2441,-4.2273,-4.1896,-4.1755,-4.1694,-4.1459,-3.8624,-3.6718,-3.5703,-3.5324,-3.5082,-3.5001,-3.5001,-3.5001,-3.5001,-3.5133,-3.5184,-3.5065,-3.4737,-3.4297,-3.3829,-3.305,-3.2333,-3.1579,-3.0377,-2.9561,-2.908,-2.8464,-2.8105,-2.7973,-2.8298,-2.8478,-2.8492,-2.8478,-2.8478,-2.8478,-2.8546,-2.8587,-2.8573,-2.8017,-2.7789,-2.8077,-2.758,-2.7544,-2.8011,-2.764,-2.7808,-2.8623,-2.8144,-2.8196,0.0,-2.9486,0.0,0.0,0.0,0.0,0.0,0.0,0.0,0.0,-3.6302,-3.7144,-3.8271,-3.8876,-3.9233,-3.935,-4.0447,-4.1189,-4.1368,-4.2178,-4.286,-4.2938,-4.3123,-4.3322,-4.3479,-4.3582,-4.3667,-4.3804,-4.3804,-4.3804,-4.3874,-4.3911,-4.4428,-4.554,-4.5798,-4.5798,-4.5909,-4.5909,-4.5519,-4.5035,-4.492,-4.4744,-4.4207,-4.4623,-4.5151,-4.5196,-4.5767,-4.6333,-4.6457,-4.6431,-4.6285,-4.5631,-4.5566,-4.5303,-4.4759,-4.4646,-4.4834,-4.5284,-4.5021,-4.4533,-4.0234,-4.0846,-4.1474,-4.1683,-4.1579,-4.1622,-4.1607,-4.1488,-4.1488,-4.083,-3.9751,-3.7818,-3.6664,-3.6313,-3.5687,-3.5389,-3.5359,-3.5359,-3.5374,-3.5374,-3.5294,-3.4931,-3.4426,-3.4827,-3.4278,-3.3069,-3.2353,-3.1781,-3.1225,-3.035,-2.9525,-2.8698,-2.8433,-2.7956,-2.74,0.0,0.0,0.0,-2.7881,-2.7868,-2.7895,-2.8343,-2.8587,-2.8573,-2.8017,0.0,-2.7409,-2.7345,-2.729,-2.7258,-2.7755,0.0,0.0,0.0,0.0,0.0,0.0,0.0,0.0,0.0,0.0,0.0,-3.4807,-3.5399,-3.5943,-3.7104,-3.8134,-3.8833,-3.9669,-4.0338,-4.0613,-4.1487,-4.2154,-4.2433,-4.2714,-4.2975,-4.3269,-4.3393,-4.3479,-4.3582,-4.3667,-4.3767,-4.3791,-4.3865,-4.3878,-4.3849,-4.3942,-4.4053,-4.4332,-4.4416,-4.4397,-4.4424,-4.4448,-4.4387,-4.4202,-4.4178,-4.4066,-4.4011,-4.4066,-4.4228,-4.4259,-4.4414,-4.4649,-4.471,-4.4782,-4.4813,-4.4655,-4.4683,-4.4627,-4.4515,-4.4477,-4.4552,-4.4702,-4.4608,-4.4496,-3.9698,0.0,-4.0799,-4.0994,0.0,-4.0891,-4.0516,-3.9933,-4.0277,-3.9484,-3.7928,-3.7053,-3.6424,-3.5983,-3.5654,-3.5489,-3.5504,-3.5374,-3.5359,-3.5359,-3.5148,-3.4661,-3.3947,-3.4307,-3.3598,-3.2067,-3.1272,-3.072,-3.0332,-2.9578,-2.8774,-2.8039,-2.7755,-2.732,-2.6774,-2.6775,-2.6972,-2.7257,-2.7271,-2.7406,-2.7691,-2.8003,-2.8153,-2.8139,-2.7583,0.0,0.0,0.0,0.0,0.0,0.0,0.0,0.0,0.0,0.0,-3.0253,-3.1102,-3.1835,-3.232,-3.314,-3.3729,-3.4217,-3.5268,-3.6323,-3.7384,-3.8673,-3.9571,-4.0078,-4.0753,-4.1258,-4.1487,-4.2014,-4.2289,-4.2204,-4.2358,-4.2395,-4.2207,-4.2286,-4.2386,-4.2451,-4.2567,-4.2699,-4.2773,-4.2755,-4.2755,-4.2755,-4.2755,-4.2792,-4.2817,-4.3397,-4.3786,-4.341,-4.3317,-4.3219,-4.2848,-4.2786,-4.2835,-4.2797,-4.2797,-4.2816,-4.2816,-4.2865,-4.2943,-4.2973,-4.3042,-4.3062,-4.3119,-4.3175,-4.3202,-4.3221,-4.3248,-4.3248,-4.3294,-4.3613,-4.3914,-3.9415,-3.9876,-4.0246,-4.0322,-4.0129,-4.0039,-3.9218,-3.8008,0.0,0.0,0.0,-3.629,-3.5947,-3.5374,-3.5359,-3.5359,-3.5374,-3.5162,-3.5096,-3.5096,-3.4868,-3.4259,-3.3463,-3.3485,-3.262,-3.1042,-3.0187,-2.9651,-2.9463,-2.8579,-2.7897,-2.7467,-2.7017,-2.6595,-2.6209,-2.5905,-2.5982,-2.647,-2.6606,-2.6891,-2.7379,-2.7501,-2.7556,-2.7556,-2.6972,-2.6549,-2.6406,-2.5923,-2.6036,-2.6905,-2.7244,-2.8011,-2.9245,-2.9667,-3.0324,-3.1276,-3.1894,-3.2453,-3.2857,-3.3366,-3.3912,-3.4329,-3.5514,-3.698,-3.8684,-3.9699,-4.0422,-4.0791,-4.1183,-4.1417,-4.158,-4.1836,-4.1791,-4.1357,-4.1561,-4.1484,-4.1034,-4.1075,-4.1277,-4.1311,-4.1484,-4.1538,-4.1635,-4.1653,-4.1549,-4.1508,-4.1607,-4.1447,-4.1564,-4.2538,-4.3087,-4.2556,-4.244,-4.2236,-4.173,-4.1642,-4.1579,-4.1709,-4.1664,-4.159,-4.159,-4.159,-4.1619,-4.1808,-4.1688,-4.1801,-4.182,-4.1968,-4.1865,-4.1911,-4.1919,-4.1991,-4.2047,-4.2404,-4.2844,-3.8574,-3.8855,-3.9092,-3.9121,-3.8959,-3.8442,-3.7467,-3.6339,-3.673,-3.6664,-3.6246,-3.5599,-3.5236,-3.5001,-3.5001,-3.5001,-3.5001,-3.4817,-3.4765,-3.4765,-3.4399,-3.3561,-3.2407,-3.2328,-3.1411,-2.991,-2.9442,-2.9136,-2.8862,-2.817,-2.7606,-2.7233,-2.6667,-2.6195,-2.5786,-2.5368,-2.5181,-2.5276,-2.5751,-2.6063,-2.6145,-2.666,-2.6945,-2.6918,-2.6348,-2.6185,-2.6392,-2.6309,-2.6467,-2.6835,-2.8152,-2.8997,-2.9242,-3.0279,-3.1087,-3.148,-3.2048,-3.2633,-3.3187,-3.3555,-3.4172,-3.5315,-3.6024,-3.681,-3.7858,-3.8499,-3.9022,-3.9373,-3.9733,-3.9888,-4.0091,-4.0321,-4.0462,-4.0545,-4.0637,-4.0742,-4.0854,-4.0969,-4.1061,-4.1151,-4.141,-4.1415,-4.1285,-4.1341,-4.1267,-4.1336,-4.088,-4.12,-4.1027,-4.1501,-4.1693,-4.1601,-4.1564,-4.1527,-4.1268,-4.1459,-4.1359,-4.1519,-4.1438,-4.1386,-4.1386,-4.1367,-4.1367,-4.1545,-4.1473,-4.1539,-4.1586,-4.1773,-4.166,-4.1604,-4.1659,-4.1724,-4.1657,-4.1383,-4.1342,-3.7767,-3.8138,-3.8306,-3.8311,-3.8062,-3.7219,-3.6468,-3.5878,-3.5606,-3.5526,-3.5414,-3.5082,-3.4883,-3.475,-3.4668,-3.4616,-3.4601,-3.4481,-3.4346,-3.4346,-3.4142,-3.3197,-3.1909,-3.1937,-3.109,-2.9408,-2.8807,-2.8438,-2.8184,-2.7597,-2.6854,-2.6118,-2.5641,-2.5274,-2.5123,-2.5027,-2.5005,-2.5005,-2.5276,-2.5561,-2.5887,-2.6172,-2.6307,-2.6321,-2.6022,-2.5911,-2.5923,-2.5923,-2.6217,-2.6807,-2.791,-2.8753,-2.9168,-3.0308,-3.1117,-3.1495,-3.2048,-3.2672,-3.324,-3.3797,-3.438,-3.4972,-3.5492,-3.6004,-3.6447,-3.7735,-3.8666,-3.899,-3.9203,-3.937,-3.9633,-3.9793,-3.9848,-3.9661,-3.9787,-3.9781,-3.9619,-3.9726,-3.9803,-3.9896,-4.0007,-3.993,-3.9505,-3.9449,-3.9198,-3.8844,-3.8656,-3.8663,-3.8603,-3.8633,-3.9142,-4.0283,-4.059,-4.0437,-4.0087,-4.0055,-4.0096,-4.0096,-4.0155,-4.0195,-4.0214,-4.0224,-4.0234,-4.0234,-4.0262,-4.0291,-4.0272,-4.0328,-4.0383,-4.0402,-4.0475,-4.0416,-3.9949,-3.9226,-3.9202,-3.7049,-3.7485,-3.7368,-3.7166,-3.6909,-3.6043,-3.5615,-3.5371,-3.4767,-3.4549,-3.4683,-3.4616,-3.4563,-3.4511,-3.4346,-3.4278,-3.421,-3.3991,-3.3837,-3.3654,-3.3516,-3.2645,-3.1345,-3.1589,-3.0816,-2.9041,-2.812,-2.7618,-2.7476,-2.6844,-2.5959,-2.5057,-2.466,-2.4563,-2.462,-2.4835,-2.4948,-2.5005,-2.5005,-2.5236,-2.567,-2.5697,-2.5683,-2.5697,-2.5683,-2.5666,-2.548,-2.5508,-2.5814,-2.6582,-2.7357,-2.8111,-2.8798,-2.9943,-3.0837,-3.1285,-3.1972,-3.2672,-3.3346,-3.4,-3.4448,-3.4464,-3.4947,-3.5228,-3.548,-3.6667,-3.7816,-3.8321,-3.844,-3.8625,-3.8853,-3.9089,-3.9017,-3.851,-3.8581,-3.8393,-3.7921,-3.7953,-3.8065,-3.8108,-3.8191,-3.8011,-3.7524,-3.7358,-3.7153,-3.6654,-3.6266,-3.6237,-3.6285,-3.6285,-3.7165,-3.8395,-3.9136,-3.8909,-3.832,-3.8317,-3.8327,-3.8327,-3.8385,-3.8442,-3.8442,-3.8479,-3.8535,-3.8535,-3.8562,-3.8562,-3.8562,-3.859,-3.8643,-3.8643,-3.8715,-3.8626,-3.8109,-3.7549,-3.7368,-3.6101,-3.6429,-3.615,-3.5662,-3.5067,-3.4952,-3.4593,-3.408,-3.3842,-3.3813,-3.402,-3.4074,-3.4074,-3.3965,-3.3965,-3.3799,-3.3646,-3.3452,-3.2988,-3.2331,-3.2097,-3.1308,-3.027,-3.0703,-3.0145,-2.861,-2.7187,-2.6641,-2.6887,-2.5911,-2.4998,-2.4302,-2.4274,-2.4421,-2.462,-2.4721,-2.4892,-2.5005,-2.5005,-2.5032,-2.5073,-2.5086,-2.5086,-2.5086,-2.51,-2.5199,-2.5508,-2.5508,-2.5675,-2.602,-2.6874,-2.7383,-2.7625,-2.9199,-3.0345,-3.0672,-3.1769,-3.278,-3.3575,-3.3949,-3.4136,-3.4349,-3.4625,-3.4958,-3.5191,-3.5148,-3.5523,-3.6437,-3.6917,-3.7101,-3.7281,-3.7453,-3.7321,-3.6845,-3.6861,-3.664,-3.6194,-3.6019,-3.609,-3.6225,-3.6515,-3.6318,-3.63,-3.6208,-3.6172,-3.5923,-3.5849,-3.5849,-3.5981,-3.5999,-3.6054,-3.6541,-3.6652,-3.6707,-3.6644,-3.6609,-3.684,-3.6767,-3.674,-3.6897,-3.6999,-3.6998,-3.6885,-3.7293,-3.7087,-3.7169,-3.7095,-3.6972,-3.7065,-3.7251,-3.7247,-3.7056,-3.7001,-3.6814,-3.6894,-3.5209,-3.5042,-3.5178,-3.4802,-3.4153,-3.3959,-3.3804,-3.3521,-3.3353,-3.3297,-3.3368,-3.3283,-3.3368,-3.3536,-3.3437,-3.3101,-3.2542,-3.2472,-3.1986,-3.1295,-3.1199,-3.0596,-2.9642,-2.9556,-2.8961,-2.7776,-2.6314,-2.5756,-2.5695,-2.4964,-2.4406,-2.4138,-2.4247,-2.4421,-2.4607,-2.4734,-2.4835,-2.5005,-2.5005,-2.5005,-2.5005,-2.5005,-2.5005,-2.5005,-2.5005,-2.5131,-2.5439,-2.5508,-2.5605,-2.5936,-2.6761,-2.7324,-2.7338,-2.8718,-2.9663,-2.9953,-3.099,-3.1789,-3.2313,-3.2643,-3.2886,-3.2934,-3.336,-3.3636,-3.3772,-3.3842,-3.4193,-3.4741,-3.5191,-3.5427,-3.558,-3.5731,-3.5738,-3.5616,-3.5651,-3.5647,-3.5531,-3.5573,-3.5634,-3.5729,-3.5854,-3.5727,-3.5289,-3.4834,-3.4608,-3.4572,-3.46,-3.4647,-3.4694,-3.4694,-3.4694,-3.4723,-3.4694,-3.5227,-3.5944,-3.6332,-3.6295,-3.6323,-3.638,-3.6436,-3.6381,-3.6473,-3.6545,-3.6472,-3.647,-3.6523,-3.6708,-3.6679,-3.6705,-3.6575,-3.621,-3.6031,-3.6081,-3.5671,-3.5392,-3.4124,-3.3874,-3.4108,-3.3819,-3.312,-3.3026,-3.2988,-3.2917,-3.2789,-3.2789,-3.2846,-3.2561,-3.255,-3.2708,-3.2681,-3.2277,-3.1681,-3.1419,-3.0952,-3.0297,-3.0256,-2.9632,-2.8704,-2.8327,-2.7688,-2.6831,-2.5563,-2.4892,-2.4833,-2.4393,-2.4125,-2.4112,-2.4203,-2.4305,-2.4492,-2.4664,-2.4791,-2.4948,-2.4948,-2.5005,-2.5005,-2.5005,-2.5005,-2.5005,-2.5005,-2.5131,-2.5369,-2.5494,-2.5592,-2.5853,-2.6605,-2.7011,-2.7095,-2.8207,-2.9124,-2.9704,-3.0521,-3.1092,-3.1404,-3.1678,-3.1869,-3.1963,-3.2335,-3.2545,-3.2646,-3.289,-3.3109,-3.3373,-3.3576,-3.381,-3.4466,-3.4598,-3.4692,-3.4606,-3.4641,-3.471,-3.4547,-3.4664,-3.4724,-3.4778,-3.4826,-3.4806,-3.4015,-3.3429,-3.3078,-3.2853,-3.2837,-3.2875,-3.2875,-3.2875,-3.2875,-3.2903,-3.2921,-3.3633,-3.5154,-3.542,-3.5567,-3.5549,-3.5477,-3.5459,-3.5652,-3.5653,-3.5689,-3.5202,-3.5678,-3.5787,-3.5528,-3.5729,-3.601,-3.588,-3.5546,-3.52,-3.5169,-3.4587,-3.4346,-3.249,-3.2849,-3.2656,-3.2257,-3.189,-3.2069,-3.22,-3.2128,-3.2023,-3.2082,-3.2304,-3.2055,-3.1699,-3.1441,-3.1555,-3.1498,-3.1208,-3.0497,-2.9806,-2.9147,-2.9093,-2.8412,-2.7344,-2.6969,-2.6538,-2.606,-2.4845,-2.424,-2.4204,-2.4138,-2.4125,-2.4112,-2.4112,-2.4157,-2.4305,-2.4492,-2.4677,-2.4835,-2.4948,-2.5005,-2.5005,-2.5005,-2.5005,-2.5005,-2.5005,-2.5061,-2.5244,-2.5439,-2.5536,-2.5715,-2.6181,-2.6358,-2.6454,-2.7579,-2.8861,-3.0109,-3.0576,-3.0945,-3.1211,-3.1325,-3.1422,-3.1709,-3.1785,-3.2131,-3.2208,-3.2124,-3.2143,-3.2428,-3.2231,-3.2651,-3.3949,-3.4169,-3.4088,-3.358,-3.3653,-3.3441,-3.2788,-3.3044,-3.2948,-3.298,-3.3091,-3.2911,-3.2265,-3.2115,-3.1784,-3.139,-3.111,-3.1174,-3.1338,-3.1275,-3.1311,-3.1329,-3.1429,-3.1819,-3.3313,-3.3752,-3.3771,-3.3771,-3.3799,-3.3816,-3.3771,-3.3752,-3.3845,-3.3973,-3.4274,-3.4355,-3.4142,-3.4175,-3.44,-3.4463,-3.4562,-3.4383,-3.4538,-3.4321,-3.4173,-3.101,-3.1385,-3.1177,-3.1068,-3.0973,-3.1259,-3.1421,-3.1347,-3.136,-3.1209,-3.1109,-3.1023,-3.0762,-3.0398,-2.9952,-2.9791,-2.9833,-2.9482,-2.9013,-2.8239,-2.7868,-2.7392,-2.6841,-2.6054,-2.5533,-2.5258,-2.4549,-2.4112,-2.408,-2.4125,-2.4125,-2.4067,-2.3995,-2.4099,-2.4247,-2.4274,-2.4447,-2.4778,-2.4835,-2.4892,-2.5005,-2.5005,-2.5005,-2.5005,-2.5005,-2.5061,-2.523,-2.5369,-2.555,-2.5674,-2.6071,-2.6286,-2.6408,-2.7269,-2.8126,-2.8909,-2.9301,-2.9593,-2.9769,-2.9943,-3.0099,-3.0192,-3.0451,-3.0725,-3.0866,-3.1056,-3.124,-3.1432,-3.1516,-3.1922,-3.2386,-3.2817,-3.2859,-3.2632,-3.2634,-3.2581,-3.2389,-3.2405,-3.2382,-3.1853,-3.1523,-3.1181,-3.1178,-3.1112,-3.1034,-3.0823,-3.079,-3.0792,-3.0856,-3.0856,-3.0784,-3.0838,-3.092,-3.111,-3.1562,-3.1956,-3.2064,-3.2082,-3.2137,-3.2447,-3.2557,-3.2729,-3.2848,-3.3322,-3.3424,-3.3671,-3.3716,-3.3915,-3.3921,-3.3998,-3.4023,-3.4023,-3.4074,-3.4055,-3.4055,-2.9792,-2.9953,-2.9982,-2.9985,-3.0037,-3.0252,-3.0312,-3.0374,-3.0193,-3.0043,-2.9876,-2.9836,-2.9665,-2.9267,-2.8707,-2.8363,-2.8341,-2.8463,-2.8239,-2.7683,-2.7052,-2.6569,-2.6192,-2.5283,-2.4736,-2.4541,-2.4131,-2.3936,-2.3936,-2.3936,-2.3936,-2.3936,-2.3819,-2.3865,-2.4015,-2.4099,-2.4274,-2.4505,-2.4664,-2.4791,-2.4835,-2.4835,-2.4892,-2.4948,-2.4948,-2.5005,-2.5118,-2.53,-2.5481,-2.5647,-2.5948,-2.6286,-2.65,-2.713,-2.7725,-2.8137,-2.846,-2.8763,-2.892,-2.9044,-2.9213,-2.9305,-2.9576,-2.9798,-2.9973,-3.0384,-3.0733,-3.0975,-3.1196,-3.1372,-3.1562,-3.1819,-3.1965,-3.2001,-3.2037,-3.1915,-3.1707,-3.1812,-3.1548,-3.0916,-3.0536,-3.0287,-3.0107,-3.0101,-3.0,-2.9898,-2.9883,-2.9894,-2.9894,-2.9894,-2.9894,-2.9912,-2.9833,-2.9825,-2.9996,-3.0143,-3.0903,-3.1057,-3.1157,-3.1393,-3.1547,-3.1719,-3.2027,-3.2534,-3.2936,-3.3239,-3.3487,-3.3689,-3.3788,-3.3868,-3.3913,-3.3887,-3.3895,-3.3921,-3.3921,-2.8955,-2.8638,-2.8895,-2.9069,-2.9061,-2.905,-2.8988,-2.8987,-2.8606,-2.8635,-2.8736,-2.8677,-2.8511,-2.8187,-2.7976,-2.7593,-2.7288,-2.7442,-2.751,-2.7326,-2.6648,-2.6103,-2.5547,-2.479,-2.4201,-2.379,-2.3641,-2.3616,-2.3616,-2.3628,-2.3616,-2.3628,-2.3628,-2.3628,-2.3616,-2.3936,-2.4054,-2.4171,-2.4376,-2.4563,-2.462,-2.4607,-2.4677,-2.4791,-2.4791,-2.4892,-2.5005,-2.5118,-2.53,-2.5481,-2.5743,-2.6179,-2.6712,-2.7181,-2.759,-2.7925,-2.8235,-2.8573,-2.8811,-2.8904,-2.9059,-2.9243,-2.9412,-2.9653,-2.9946,-3.0316,-3.0634,-3.0895,-3.1157,-3.1351,-3.1542,-3.1617,-3.1709,-3.1765,-3.1806,-3.1513,-3.108,-3.0855,-3.061,-3.0029,-2.9828,-2.973,-2.9228,-2.9041,-2.8906,-2.8475,-2.8326,-2.8344,-2.8397,-2.8415,-2.8184,-2.8184,-2.8518,-2.8798,-2.8568,-2.8443,-2.9412,-3.0232,-3.0368,-3.0558,-3.0656,-3.0836,-3.097,-3.142,-3.1874,-3.2213,-3.2962,-3.3138,-3.3413,-3.3515,-3.3597,-3.3698,-3.3726,-3.3753,-3.3753,-2.7813,-2.781,-2.7854,-2.7957,-2.7873,-2.7685,-2.7691,-2.7829,-2.7644,-2.7678,-2.7725,-2.7746,-2.7525,-2.7288,-2.7199,-2.7109,-2.6769,-2.6693,-2.6633,-2.6464,-2.5949,-2.5395,-2.4854,-2.4227,-2.3808,-2.3641,-2.3616,-2.3616,-2.3556,-2.3556,-2.3616,-2.3556,-2.3509,-2.3509,-2.3556,-2.3628,-2.3713,-2.3949,-2.4054,-2.4216,-2.4363,-2.4421,-2.4492,-2.4664,-2.4734,-2.4848,-2.4878,-2.5061,-2.523,-2.53,-2.5674,-2.6179,-2.6727,-2.7093,-2.7372,-2.7725,-2.8137,-2.8493,-2.8668,-2.8826,-2.8967,-2.9167,-2.9382,-2.9563,-2.9814,-3.0205,-3.0485,-3.0692,-3.0918,-3.1157,-3.1351,-3.1483,-3.1579,-3.1746,-3.137,-3.1026,-3.056,-2.985,-2.9275,-2.9059,-2.8621,-2.8229,-2.8115,-2.8075,-2.8064,-2.7895,-2.7806,-2.7789,-2.7789,-2.7836,-2.7864,-2.7864,-2.7996,-2.8042,-2.8053,-2.8081,-2.8582,-2.9165,-2.9364,-2.9635,-2.9769,-2.9866,-3.0016,-3.0355,-3.0807,-3.135,-3.2126,-3.2618,-3.2857,-3.3205,-3.339,-3.3455,-3.3502,-3.352,-3.352,-2.6564,-2.66,-2.6683,-2.6788,-2.6729,-2.655,-2.656,-2.661,-2.6553,-2.6565,-2.6581,-2.6685,-2.6652,-2.654,-2.6533,-2.6533,-2.6389,-2.5954,-2.5656,-2.5469,-2.5129,-2.4707,-2.4336,-2.3692,-2.3437,-2.3437,-2.3437,-2.3437,-2.339,-2.339,-2.333,-2.333,-2.3223,-2.3163,-2.3271,-2.3223,-2.333,-2.3522,-2.3641,-2.3806,-2.3969,-2.4086,-2.4216,-2.439,-2.462,-2.4734,-2.4791,-2.5005,-2.5174,-2.5286,-2.5619,-2.6125,-2.6447,-2.6817,-2.7181,-2.7473,-2.789,-2.8299,-2.8573,-2.8748,-2.8936,-2.9137,-2.9337,-2.9563,-2.9742,-3.0119,-3.0359,-3.0526,-3.079,-3.1055,-3.1218,-3.1079,-3.1162,-3.1296,-3.0989,-3.0455,-2.9886,-2.8781,-2.8172,-2.8063,-2.7782,-2.7535,-2.7513,-2.7557,-2.7587,-2.763,-2.763,-2.763,-2.7642,-2.7659,-2.7689,-2.7719,-2.7766,-2.7824,-2.7853,-2.7882,-2.7864,-2.812,-2.8294,-2.8599,-2.8813,-2.8884,-2.8998,-2.9532,-3.0006,-3.044,-3.113,-3.1757,-3.2127,-3.2595,-3.2925,-3.316,-3.3178,-3.3196,-3.3196,-2.5269,-2.5094,-2.5492,-2.5624,-2.5643,-2.5494,-2.5518,-2.551,-2.5397,-2.5337,-2.5431,-2.5761,-2.5959,-2.6042,-2.5992,-2.5898,-2.5718,-2.5234,-2.4755,-2.4406,-2.4104,-2.3965,-2.3851,-2.3351,-2.309,-2.309,-2.309,-2.3078,-2.3078,-2.2969,-2.2848,-2.2848,-2.28,-2.269,-2.2739,-2.2787,-2.2848,-2.2969,-2.3163,-2.3343,-2.3403,-2.3641,-2.3936,-2.4054,-2.439,-2.4607,-2.4778,-2.4948,-2.5061,-2.5216,-2.5619,-2.5839,-2.6002,-2.6447,-2.687,-2.7181,-2.759,-2.8039,-2.8493,-2.8732,-2.8873,-2.9075,-2.9321,-2.9518,-2.9681,-2.993,-3.0215,-3.0401,-3.0692,-3.0952,-3.1033,-3.073,-3.0492,-3.0345,-3.0282,-2.9748,-2.8558,-2.7747,-2.7538,-2.7417,-2.7362,-2.7393,-2.7407,-2.7452,-2.7483,-2.7496,-2.7496,-2.7496,-2.7513,-2.7496,-2.7513,-2.7544,-2.7617,-2.7647,-2.7677,-2.7707,-2.7719,-2.7748,-2.7836,-2.7982,-2.8134,-2.8169,-2.8176,-2.8688,-2.9124,-2.9573,-3.0029,-3.0627,-3.1155,-3.1533,-3.1992,-3.2581,-3.2634,-3.2367,-3.2313,-2.4552,-2.4646,-2.4591,-2.4588,-2.4683,-2.4294,-2.4322,-2.453,-2.4548,-2.4778,-2.5147,-2.5253,-2.5348,-2.5467,-2.5489,-2.5382,-2.5071,-2.4418,-2.4038,-2.3748,-2.3028,-2.2911,-2.3059,-2.2947,-2.28,-2.28,-2.28,-2.2787,-2.28,-2.2739,-2.2678,-2.2531,-2.2482,-2.2432,-2.2371,-2.2371,-2.2432,-2.2543,-2.2604,-2.2787,-2.303,-2.3198,-2.3437,-2.3747,-2.4041,-2.439,-2.4607,-2.4892,-2.5061,-2.5174,-2.5286,-2.5564,-2.5893,-2.6258,-2.6645,-2.7041,-2.7488,-2.794,-2.8284,-2.8589,-2.8826,-2.8967,-2.9198,-2.935,-2.9412,-2.9722,-2.9897,-3.007,-3.0342,-3.0675,-3.0761,-3.0425,-2.9816,-2.9042,-2.9007,-2.8696,-2.7868,-2.7437,-2.7299,-2.7299,-2.733,-2.733,-2.7345,-2.7345,-2.7376,-2.7376,-2.7376,-2.7376,-2.7407,-2.7407,-2.7438,-2.7452,-2.7483,-2.7513,-2.7526,-2.7557,-2.7539,-2.7587,-2.7617,-2.7647,-2.7729,-2.7747,-2.7735,-2.7879,-2.8198,-2.8574,-2.8925,-2.9382,-2.9867,-3.049,-3.0808,-3.1246,-3.1002,-3.0773,-3.0861,-2.3481,-2.3511,-2.3525,-2.3567,-2.3685,-2.3568,-2.3604,-2.3824,-2.4043,-2.4368,-2.4753,-2.4706,-2.4754,-2.4826,-2.4673,-2.4637,-2.4483,-2.3613,-2.3161,-2.293,-2.2178,-2.2097,-2.2383,-2.2494,-2.2506,-2.2494,-2.2494,-2.2506,-2.2494,-2.2432,-2.2309,-2.2173,-2.2111,-2.2061,-2.2011,-2.1999,-2.2011,-2.2123,-2.2173,-2.2297,-2.2604,-2.2909,-2.3138,-2.345,-2.3806,-2.4287,-2.4677,-2.4892,-2.5061,-2.5118,-2.5174,-2.5342,-2.5688,-2.6002,-2.6312,-2.6765,-2.7284,-2.774,-2.8088,-2.8444,-2.8684,-2.8842,-2.9013,-2.9152,-2.9259,-2.947,-2.9589,-2.9837,-3.0156,-3.0261,-3.0092,-2.958,-2.8742,-2.7998,-2.7789,-2.7665,-2.7316,-2.7316,-2.7299,-2.7299,-2.7299,-2.7299,-2.7299,-2.7299,-2.7299,-2.7299,-2.733,-2.733,-2.733,-2.7362,-2.7362,-2.7345,-2.7376,-2.7407,-2.739,-2.7421,-2.7404,-2.7404,-2.7421,-2.7434,-2.7465,-2.7478,-2.7496,-2.7513,-2.7496,-2.76,-2.8049,-2.8499,-2.905,-2.9534,-2.9694,-2.9902,-2.9866,-2.9656,-2.9709,-2.2257,-2.2111,-2.2402,-2.2628,-2.2724,-2.3001,-2.3095,-2.3209,-2.347,-2.3868,-2.4085,-2.3979,-2.3773,-2.3913,-2.3606,-2.3619,-2.3711,-2.2823,-2.2325,-2.1927,-2.1504,-2.1498,-2.1874,-2.1999,-2.2073,-2.2061,-2.2073,-2.2061,-2.1987,-2.1862,-2.18,-2.1737,-2.1624,-2.1635,-2.1572,-2.1572,-2.1572,-2.1635,-2.1737,-2.1925,-2.2173,-2.2543,-2.2848,-2.3138,-2.3747,-2.4274,-2.4664,-2.4892,-2.4948,-2.5005,-2.5118,-2.5313,-2.5494,-2.5743,-2.6111,-2.6525,-2.7011,-2.7473,-2.786,-2.8235,-2.8493,-2.8684,-2.8795,-2.892,-2.9091,-2.9213,-2.9441,-2.9633,-2.9957,-2.9838,-2.9284,-2.8394,-2.7722,-2.7199,-2.701,-2.7074,-2.7186,-2.7267,-2.7267,-2.725,-2.7267,-2.725,-2.725,-2.7282,-2.725,-2.725,-2.725,-2.725,-2.7233,-2.7233,-2.725,-2.7235,-2.7267,-2.7267,-2.7267,-2.725,-2.725,-2.7233,-2.7233,-2.7264,-2.7341,-2.7373,-2.7404,-2.7404,-2.7341,-2.7341,-2.749,-2.7938,-2.8387,-2.8543,-2.8749,-2.9097,-2.9358,-2.901,-2.8905,-2.1527,-2.1655,-2.1731,-2.1959,-2.2187,-2.2327,-2.2328,-2.2288,-2.2361,-2.2916,-2.3395,-2.2818,-2.2358,-2.221,-2.2466,-2.257,-2.2571,-2.1957,-2.1459,-2.1009,-2.0929,-2.0862,-2.1117,-2.1296,-2.1423,-2.1423,-2.1423,-2.1423,-2.1411,-2.1411,-2.1285,-2.1158,-2.1169,-2.1042,-2.099,-2.099,-2.099,-2.1106,-2.1233,-2.1411,-2.1663,-2.2111,-2.2482,-2.2836,-2.3616,-2.4216,-2.4563,-2.4778,-2.4892,-2.5005,-2.5061,-2.5188,-2.5425,-2.5633,-2.5934,-2.6418,-2.6893,-2.7321,-2.7675,-2.8024,-2.8299,-2.8444,-2.8573,-2.8716,-2.8873,-2.9045,-2.9167,-2.9335,-2.9601,-2.9447,-2.8652,-2.7923,-2.7272,-2.6842,-2.6674,-2.6725,-2.6808,-2.6957,-2.704,-2.7057,-2.7057,-2.7057,-2.704,-2.7072,-2.7072,-2.712,-2.7152,-2.7152,-2.7152,-2.7152,-2.7137,-2.7122,-2.7139,-2.7154,-2.7154,-2.7154,-2.7154,-2.7154,-2.7122,-2.7122,-2.7169,-2.7184,-2.7215,-2.7215,-2.7135,-2.7166,-2.7247,-2.7313,-2.776,-2.7777,-2.7811,-2.8053,-2.8226,-2.8071,-2.8122,-2.0721,-2.0853,-2.0802,-2.0869,-2.1081,-2.1145,-2.123,-2.1331,-2.1453,-2.1778,-2.2195,-2.1776,-2.1322,-2.0952,-2.1459,-2.171,-2.1666,-2.1207,-2.0785,-2.0573,-2.0464,-2.041,-2.041,-2.0593,-2.0786,-2.0914,-2.0978,-2.0978,-2.0978,-2.0978,-2.0903,-2.085,-2.0786,-2.0797,-2.0733,-2.0669,-2.0797,-2.085,-2.0914,-2.1106,-2.1348,-2.1726,-2.2285,-2.2836,-2.3569,-2.4112,-2.4345,-2.4677,-2.4778,-2.4892,-2.4948,-2.5131,-2.5313,-2.5536,-2.5784,-2.6204,-2.663,-2.7049,-2.7357,-2.7725,-2.7989,-2.8232,-2.8348,-2.8493,-2.8589,-2.8779,-2.8951,-2.9121,-2.9313,-2.92,-2.827,-2.7525,-2.6965,-2.6564,-2.6434,-2.6452,-2.6504,-2.6691,-2.6859,-2.6859,-2.6859,-2.6859,-2.6859,-2.6859,-2.6909,-2.6975,-2.7007,-2.7007,-2.7072,-2.7072,-2.704,-2.7057,-2.7024,-2.7024,-2.7024,-2.7024,-2.7057,-2.7057,-2.7057,-2.7024,-2.7007,-2.7007,-2.7023,-2.7023,-2.7023,-2.7055,-2.7087,-2.7137,-2.7186,-2.7274,-2.7326,-2.7206,-2.7223,-2.7478,-2.7513,-1.9814,-1.9999,-1.9853,-1.9775,-1.9847,-2.0011,-2.0206,-2.0348,-2.049,-2.0628,-2.0705,-2.0877,-2.0552,-2.0366,-2.066,-2.0997,-2.1019,-2.0742,-2.0368,-2.0346,-2.0216,-2.0216,-2.0151,-2.0216,-2.0335,-2.0604,-2.0593,-2.0604,-2.0604,-2.0604,-2.0593,-2.0604,-2.0604,-2.054,-2.0604,-2.0604,-2.0604,-2.0593,-2.0658,-2.0797,-2.1106,-2.1474,-2.2025,-2.2896,-2.339,-2.3878,-2.4171,-2.4447,-2.4734,-2.4791,-2.4892,-2.5061,-2.5174,-2.5369,-2.5605,-2.5907,-2.6426,-2.6944,-2.7424,-2.7765,-2.8111,-2.8208,-2.8404,-2.8461,-2.8593,-2.8757,-2.8872,-2.8904,-2.8992,-2.8762,-2.7997,-2.7254,-2.6667,-2.6224,-2.6099,-2.6134,-2.6154,-2.6383,-2.6453,-2.664,-2.6607,-2.6607,-2.664,-2.6657,-2.6742,-2.6826,-2.6859,-2.6893,-2.6926,-2.6926,-2.6893,-2.6859,-2.6826,-2.6792,-2.6792,-2.6826,-2.6826,-2.6859,-2.6893,-2.6859,-2.6826,-2.6809,-2.6809,-2.6909,-2.6942,-2.6975,-2.6975,-2.704,-2.7057,-2.6992,-2.7024,-2.7057,-2.7057,-2.7024,-2.6992,-1.8815,-1.9008,-1.9097,-1.9214,-1.9423,-1.963,-1.9544,-1.9424,-1.9464,-1.941,-1.9484,-1.9469,-1.98,-2.0004,-2.0051,-2.0205,-2.0347,-2.0249,-2.0151,-2.0151,-2.0151,-2.0085,-2.0085,-2.0085,-2.0151,-2.014,-2.0205,-2.0281,-2.0281,-2.0216,-2.0281,-2.0216,-2.0216,-2.0216,-2.0281,-2.0216,-2.0281,-2.0281,-2.0399,-2.0604,-2.0786,-2.1158,-2.1776,-2.2653,-2.3078,-2.3497,-2.3923,-2.4171,-2.4403,-2.4791,-2.4835,-2.4892,-2.5061,-2.5188,-2.5453,-2.5923,-2.6534,-2.7032,-2.7453,-2.8361,-2.894,-2.9274,-2.9313,-2.928,-2.9195,-2.9116,-2.8971,-2.8716,-2.8495,-2.8144,-2.7637,-2.7066,-2.6354,-2.5902,-2.5733,-2.5733,-2.5717,-2.5811,-2.5977,-2.6243,-2.6295,-2.6347,-2.6382,-2.64,-2.6486,-2.6521,-2.6555,-2.6606,-2.664,-2.6691,-2.664,-2.6623,-2.6554,-2.6554,-2.6554,-2.6554,-2.6572,-2.6589,-2.6623,-2.6589,-2.6589,-2.6554,-2.6623,-2.6674,-2.6809,-2.6842,-2.6893,-2.6926,-2.6926,-2.6893,-2.6926,-2.6992,-2.6926,-2.6859,-2.6926,-1.7944,-1.8052,-1.8071,-1.8119,-1.827,-1.8533,-1.8645,-1.8616,-1.8655,-1.8761,-1.8822,-1.9019,-1.9229,-1.9526,-1.9768,-1.9868,-2.0009,-2.0074,-2.0085,-2.0085,-2.0085,-2.0085,-2.0085,-2.0085,-2.0085,-2.0085,-2.0085,-2.0085,-2.0085,-2.0151,-2.0085,-2.0085,-2.0085,-2.0085,-2.0085,-2.0151,-2.0085,-2.0151,-2.0216,-2.0346,-2.0593,-2.1031,-2.1714,-2.2223,-2.2653,-2.3078,-2.3497,-2.3865,-2.4099,-2.439,-2.4677,-2.4791,-2.4892,-2.5061,-2.5286,-2.5689,-2.6272,-2.6743,-2.714,-2.7944,-2.8508,-2.8934,-2.934,-2.9591,-2.947,-2.9291,-2.8989,-2.8632,-2.8529,-2.8273,-2.7771,-2.7127,-2.6468,-2.5879,-2.5518,-2.5365,-2.5339,-2.5323,-2.5551,-2.5811,-2.5885,-2.5974,-2.6099,-2.6134,-2.617,-2.6241,-2.626,-2.6312,-2.6399,-2.6364,-2.6364,-2.6347,-2.6329,-2.6329,-2.6329,-2.6329,-2.6329,-2.6329,-2.6329,-2.6329,-2.6329,-2.6293,-2.6364,-2.6417,-2.6521,-2.6606,-2.6691,-2.6691,-2.6725,-2.6759,-2.6725,-2.6725,-2.6725,-2.6725,-2.6742,-1.7027,-1.7206,-1.7097,-1.7028,-1.7166,-1.7442,-1.7735,-1.7862,-1.8086,-1.8231,-1.8414,-1.8741,-1.8942,-1.9142,-1.9473,-1.9736,-1.9868,-1.9944,-1.9944,-2.002,-2.002,-2.0085,-2.0074,-2.0085,-2.0085,-2.0085,-2.0085,-2.0085,-2.0085,-2.0085,-2.0085,-2.0085,-2.0085,-2.0085,-2.0085,-2.0085,-2.0085,-2.0085,-2.0085,-2.0216,-2.0529,-2.1031,-2.1537,-2.1999,-2.2359,-2.2653,-2.3017,-2.3437,-2.3734,-2.4099,-2.439,-2.4677,-2.4791,-2.4892,-2.5131,-2.5439,-2.58,-2.6226,-2.6697,-2.7483,-2.825,-2.8582,-2.908,-2.9361,-2.932,-2.9016,-2.8697,-2.8609,-2.8525,-2.842,-2.7839,-2.7368,-2.669,-2.6005,-2.5462,-2.514,-2.5037,-2.5013,-2.5107,-2.5285,-2.5438,-2.5621,-2.5856,-2.5828,-2.5828,-2.5901,-2.5974,-2.5974,-2.6026,-2.6063,-2.6063,-2.6046,-2.6046,-2.6082,-2.6082,-2.6134,-2.6099,-2.6046,-2.6046,-2.6046,-2.6046,-2.6046,-2.6082,-2.6082,-2.6118,-2.6206,-2.6329,-2.645,-2.6468,-2.6468,-2.645,-2.645,-2.6468,-2.6468,-2.6503,-1.5919,-1.6263,-1.636,-1.6542,-1.6751,-1.7097,-1.7235,-1.7314,-1.7529,-1.7745,-1.8076,-1.8144,-1.8539,-1.9008,-1.9407,-1.9605,-1.9605,-1.9671,-1.9681,-1.9681,-1.9813,-1.9933,-1.9933,-2.0074,-2.0085,-2.0085,-2.0085,-2.0085,-2.0085,-2.0085,-2.0085,-2.0085,-2.0085,-2.0085,-2.0085,-2.0085,-2.0085,-2.0085,-2.0085,-2.0216,-2.0464,-2.0903,-2.1285,-2.16,-2.1987,-2.2359,-2.2653,-2.3005,-2.3365,-2.3806,-2.4054,-2.439,-2.4721,-2.4848,-2.4948,-2.5394,-2.5951,-2.6595,-2.6862,-2.7526,-2.8192,-2.8414,-2.8899,-2.8951,-2.8846,-2.8589,-2.854,-2.9254,-2.8814,-2.8324,-2.7907,-2.7656,-2.6923,-2.6299,-2.5795,-2.5326,-2.503,-2.5315,-2.5334,-2.5312,-2.5655,-2.5605,-2.5653,-2.5556,-2.5476,-2.5551,-2.5642,-2.5642,-2.5659,-2.568,-2.568,-2.568,-2.5701,-2.5738,-2.5754,-2.5791,-2.5844,-2.5791,-2.5775,-2.5738,-2.5754,-2.5754,-2.5717,-2.5717,-2.5754,-2.5864,-2.599,-2.6099,-2.6206,-2.6206,-2.617,-2.617,-2.6225,-2.6241,-2.6222,-1.5204,-1.5559,-1.578,-1.6,-1.6211,-1.6551,-1.6751,-1.689,-1.7176,-1.7451,-1.7598,-1.7794,-1.8134,-1.8674,-1.9008,-1.9142,-1.9208,-1.9341,-1.9407,-1.9483,-1.9605,-1.9802,-1.9878,-1.9933,-2.0009,-2.0085,-2.0085,-2.0085,-2.0085,-2.0085,-2.0085,-2.0085,-2.0085,-2.0085,-2.0085,-2.0085,-2.0085,-2.0085,-2.0151,-2.0205,-2.0399,-2.0658,-2.0903,-2.1273,-2.1549,-2.1862,-2.2161,-2.2531,-2.2896,-2.333,-2.3688,-2.4041,-2.439,-2.462,-2.4892,-2.4975,-2.5435,-2.5868,-2.6246,-2.7089,-2.7597,-2.8022,-2.8417,-2.8723,-2.8553,-2.8389,-2.8248,-2.8434,-2.8286,-2.8082,-2.7888,-2.7612,-2.7242,-2.6701,-2.622,-2.5954,-2.5644,-2.5749,-2.5854,-2.5862,-2.5795,-2.5794,-2.5695,-2.5489,-2.5369,-2.5224,-2.5262,-2.5262,-2.5278,-2.5278,-2.5278,-2.5278,-2.5285,-2.5346,-2.5416,-2.5454,-2.5508,-2.5508,-2.5508,-2.5454,-2.5454,-2.5432,-2.5432,-2.5432,-2.5486,-2.5584,-2.5696,-2.5807,-2.5881,-2.5864,-2.5864,-2.5901,-2.5901,-2.5844,-2.586,-1.4792,-1.4991,-1.5213,-1.5434,-1.5655,-1.5991,-1.6202,-1.6412,-1.6751,-1.6959,-1.7176,-1.7442,-1.7784,-1.8066,-1.8405,-1.8607,-1.8607,-1.8942,-1.9075,-1.9142,-1.9341,-1.9594,-1.9736,-1.9868,-1.9933,-2.0096,-2.0085,-2.0085,-2.0085,-2.0085,-2.0085,-2.0085,-2.0085,-2.0085,-2.0085,-2.0085,-2.0085,-2.0085,-2.0085,-2.0151,-2.0281,-2.041,-2.0658,-2.0903,-2.1094,-2.1285,-2.1663,-2.2037,-2.242,-2.2848,-2.3271,-2.3688,-2.4041,-2.439,-2.4677,-2.4791,-2.5157,-2.5312,-2.5646,-2.6204,-2.661,-2.7128,-2.7674,-2.813,-2.8311,-2.833,-2.8382,-2.8182,-2.7996,-2.805,-2.7997,-2.7649,-2.7376,-2.7087,-2.6765,-2.6581,-2.6395,-2.6317,-2.6178,-2.6068,-2.6078,-2.6122,-2.5967,-2.5644,-2.5325,-2.4997,-2.4886,-2.4926,-2.4926,-2.4926,-2.4926,-2.4966,-2.5005,-2.5052,-2.5146,-2.5201,-2.5201,-2.524,-2.524,-2.524,-2.524,-2.524,-2.524,-2.5217,-2.5256,-2.5294,-2.5394,-2.547,-2.5546,-2.5584,-2.5584,-2.5584,-2.5546,-2.5524,-2.5524,-1.4521,-1.4505,-1.4792,-1.507,-1.5275,-1.5426,-1.5647,-1.5867,-1.6061,-1.6403,-1.6751,-1.7097,-1.7373,-1.752,-1.7803,-1.8008,-1.8076,-1.8279,-1.8472,-1.8674,-1.8942,-1.9306,-1.9536,-1.9745,-1.9932,-2.0139,-2.0226,-2.026,-2.0162,-2.0347,-2.0216,-2.0096,-2.0151,-2.0107,-2.0085,-2.0085,-2.0085,-2.0085,-2.0085,-2.0085,-2.0216,-2.0281,-2.041,-2.054,-2.0786,-2.1031,-2.1233,-2.16,-2.1963,-2.2347,-2.2787,-2.3271,-2.3688,-2.4041,-2.4332,-2.4664,-2.4835,-2.5005,-2.5256,-2.5508,-2.5786,-2.6115,-2.6623,-2.7316,-2.7705,-2.7587,-2.7765,-2.8151,-2.7916,-2.7871,-2.794,-2.7913,-2.7628,-2.7418,-2.7128,-2.6946,-2.6795,-2.6566,-2.6474,-2.6336,-2.6412,-2.6595,-2.6441,-2.6145,-2.5528,-2.5119,-2.4645,-2.467,-2.463,-2.463,-2.4645,-2.4686,-2.4766,-2.4846,-2.4966,-2.5005,-2.5045,-2.5084,-2.5123,-2.5084,-2.5045,-2.5045,-2.51,-2.5084,-2.51,-2.506,-2.506,-2.5201,-2.5317,-2.5333,-2.5333,-2.5317,-2.5317,-2.5317,-2.5333,-1.4175,-1.408,-1.4521,-1.48,-1.4999,-1.5078,-1.5213,-1.5426,-1.5638,-1.5921,-1.6263,-1.6621,-1.6821,-1.6959,-1.7176,-1.7382,-1.752,-1.7794,-1.8008,-1.8269,-1.8549,-1.9106,-1.9401,-1.9682,-1.9755,-2.0428,-2.0651,-2.0809,-2.0863,-2.0801,-2.1013,-2.0915,-2.0423,-2.014,-2.0085,-2.0107,-2.0085,-2.0085,-2.0085,-2.0085,-2.0151,-2.0151,-2.0281,-2.041,-2.0475,-2.0722,-2.0914,-2.1233,-2.1526,-2.1839,-2.2347,-2.2775,-2.3271,-2.37,-2.4099,-2.4492,-2.4664,-2.4835,-2.5005,-2.5174,-2.5467,-2.5853,-2.6139,-2.6508,-2.7064,-2.7024,-2.7195,-2.7454,-2.7661,-2.7604,-2.774,-2.7825,-2.7754,-2.7637,-2.747,-2.7303,-2.7152,-2.6988,-2.699,-2.6976,-2.7098,-2.7298,-2.7054,-2.6749,-2.5998,-2.5284,-2.4802,-2.4426,-2.4385,-2.4385,-2.44,-2.44,-2.4482,-2.4523,-2.4645,-2.4766,-2.4926,-2.4966,-2.495,-2.495,-2.4926,-2.5021,-2.5037,-2.5021,-2.5029,-2.5092,-2.5132,-2.5076,-2.5123,-2.5139,-2.5139,-2.5139,-2.5123,-2.5123,-2.5162,-1.3572,-1.3652,-1.4168,-1.4521,-1.4721,-1.48,-1.4935,-1.5133,-1.5284,-1.5497,-1.585,-1.5991,-1.6132,-1.6351,-1.6695,-1.6842,-1.7097,-1.7488,-1.7865,-1.8182,-1.8607,-1.9113,-1.9483,-1.9735,-2.0048,-2.0765,-2.1225,-2.1334,-2.0994,-2.129,-2.1366,-2.1149,-2.0823,-2.0586,-2.0358,-2.014,-2.0096,-2.0085,-2.0085,-2.0085,-2.0085,-2.0151,-2.0151,-2.027,-2.0335,-2.0399,-2.0604,-2.085,-2.1094,-2.1463,-2.1901,-2.2347,-2.2848,-2.333,-2.3852,-2.4189,-2.4549,-2.4791,-2.4962,-2.5104,-2.5342,-2.5619,-2.577,-2.6056,-2.6272,-2.6539,-2.6756,-2.6913,-2.7107,-2.735,-2.7437,-2.7488,-2.7575,-2.7425,-2.7555,-2.7435,-2.75,-2.7478,-2.7603,-2.7697,-2.7743,-2.7686,-2.7428,-2.7081,-2.6184,-2.5481,-2.4989,-2.4541,-2.4177,-2.4193,-2.4193,-2.4193,-2.4234,-2.4276,-2.4302,-2.4523,-2.4726,-2.4766,-2.4791,-2.4791,-2.4846,-2.4997,-2.5201,-2.5318,-2.5293,-2.5208,-2.5186,-2.5114,-2.5068,-2.5021,-2.5021,-2.5005,-2.5045,-2.5045,-2.5045,-1.2638,-1.3141,-1.3659,-1.408,-1.4361,-1.4569,-1.4713,-1.4864,-1.4935,-1.5078,-1.5275,-1.5497,-1.5576,-1.5715,-1.6303,-1.6527,-1.6697,-1.7497,-1.8035,-1.818,-1.8581,-1.9285,-1.9693,-1.9949,-2.0082,-2.0564,-2.105,-2.1144,-2.0801,-2.1193,-2.1282,-2.136,-2.128,-2.1094,-2.085,-2.0402,-2.0129,-2.0107,-2.014,-2.0151,-2.0085,-2.0085,-2.0151,-2.0151,-2.0151,-2.0281,-2.041,-2.054,-2.0775,-2.1158,-2.1526,-2.2025,-2.2519,-2.309,-2.3569,-2.4041,-2.4429,-2.4687,-2.4845,-2.5116,-2.5353,-2.5383,-2.555,-2.5729,-2.5948,-2.615,-2.6351,-2.6486,-2.6803,-2.6989,-2.7041,-2.7144,-2.7233,-2.7284,-2.7386,-2.7452,-2.7503,-2.759,-2.764,-2.769,-2.7855,-2.791,-2.7713,-2.7319,-2.6393,-2.5697,-2.5181,-2.4785,-2.445,-2.4192,-2.4225,-2.4024,-2.4067,-2.4109,-2.4193,-2.4359,-2.4539,-2.4564,-2.4698,-2.4864,-2.5082,-2.5363,-2.5519,-2.5659,-2.5675,-2.5659,-2.5425,-2.515,-2.528,-2.5393,-2.4997,-2.4926,-2.4966,-2.5108,-2.5226,-1.1801,-1.2305,-1.2718,-1.3091,-1.3477,-1.4209,-1.4505,-1.4569,-1.4641,-1.4784,-1.5007,-1.5078,-1.5213,-1.5463,-1.5939,-1.6293,-1.6503,-1.7193,-1.775,-1.8119,-1.8535,-1.901,-1.9535,-1.9811,-2.0058,-2.0512,-2.0923,-2.1107,-2.1094,-2.1333,-2.1681,-2.1839,-2.1696,-2.1648,-2.1439,-2.1112,-2.0992,-2.0686,-2.0598,-2.05,-2.014,-2.0118,-2.0085,-2.0085,-2.0085,-2.0151,-2.0216,-2.027,-2.0529,-2.0914,-2.1285,-2.1714,-2.2223,-2.2726,-2.3283,-2.3875,-2.436,-2.5216,-2.5681,-2.6099,-2.5908,-2.5556,-2.5341,-2.5536,-2.5647,-2.5907,-2.6056,-2.6165,-2.6433,-2.6606,-2.6683,-2.6803,-2.6893,-2.6907,-2.7011,-2.7093,-2.7196,-2.7299,-2.7401,-2.7386,-2.7452,-2.7503,-2.7369,-2.7405,-2.6718,-2.6467,-2.6111,-2.5772,-2.544,-2.4776,-2.4534,-2.4036,-2.3882,-2.3925,-2.4085,-2.475,-2.4928,-2.4925,-2.5025,-2.5126,-2.5388,-2.5885,-2.6086,-2.6318,-2.6209,-2.6083,-2.6008,-2.5903,-2.5852,-2.5768,-2.5575,-2.5264,-2.5196,-2.5487,-2.5785,-1.0982,-1.1621,-1.1893,-1.2257,-1.2806,-1.3775,-1.4289,-1.4433,-1.4497,-1.4649,-1.4792,-1.4792,-1.4856,-1.5201,-1.5765,-1.6119,-1.6357,-1.7351,-1.7778,-1.8158,-1.841,-1.8926,-1.9315,-1.9525,-1.987,-2.0265,-2.0246,-2.0343,-2.0797,-2.1395,-2.1745,-2.1868,-2.203,-2.2048,-2.1847,-2.1707,-2.1516,-2.1243,-2.1144,-2.0817,-2.0598,-2.0368,-2.0096,-2.0085,-2.0085,-2.0085,-2.0151,-2.0216,-2.041,-2.0733,-2.1042,-2.1474,-2.1925,-2.2432,-2.3069,-2.3745,-2.4693,-2.5516,-2.6086,-2.6472,-2.6161,-2.5846,-2.5537,-2.5558,-2.5589,-2.5716,-2.5716,-2.5839,-2.6139,-2.6165,-2.6258,-2.6379,-2.6472,-2.6525,-2.663,-2.6765,-2.6817,-2.6959,-2.7011,-2.7011,-2.7011,-2.7011,-2.7026,-2.7181,-2.7004,-2.7034,-2.7077,-2.6708,-2.6396,-2.5809,-2.5269,-2.4896,-2.4822,-2.5166,-2.5392,-2.5696,-2.5681,-2.5334,-2.5561,-2.5834,-2.6351,-2.6894,-2.6942,-2.705,-2.7155,-2.717,-2.6821,-2.6701,-2.6655,-2.6518,-2.6352,-2.5984,-2.5601,-2.5905,-2.643,-1.0131,-1.1053,-1.128,-1.1729,-1.2325,-1.3251,-1.3928,-1.4353,-1.4353,-1.4497,-1.4569,-1.4641,-1.4641,-1.4856,-1.579,-1.623,-1.6429,-1.7648,-1.8101,-1.8266,-1.859,-1.9006,-1.9316,-1.9599,-1.9756,-1.9719,-1.9778,-1.9934,-2.0342,-2.0799,-2.1262,-2.1696,-2.1842,-2.2136,-2.2199,-2.211,-2.1984,-2.1925,-2.1559,-2.1374,-2.1308,-2.0697,-2.0391,-2.0216,-2.0151,-2.0096,-2.0085,-2.0151,-2.0346,-2.0593,-2.085,-2.1285,-2.1737,-2.2197,-2.3046,-2.4029,-2.5178,-2.5762,-2.6248,-2.6565,-2.6698,-2.6539,-2.6202,-2.6136,-2.6007,-2.5876,-2.5838,-2.5799,-2.5966,-2.5841,-2.5812,-2.5962,-2.6056,-2.6165,-2.6312,-2.6365,-2.6472,-2.651,-2.663,-2.663,-2.6683,-2.6683,-2.6683,-2.677,-2.6973,-2.7403,-2.7511,-2.7584,-2.7261,-2.699,-2.6526,-2.6306,-2.6371,-2.6775,-2.6855,-2.6505,-2.6362,-2.599,-2.6584,-2.6961,-2.7452,-2.7705,-2.7765,-2.7935,-2.8263,-2.8204,-2.7712,-2.7473,-2.7399,-2.7205,-2.6882,-2.6859,-2.6458,-2.6796,-2.7319,-0.989,-1.0441,-1.0914,-1.1194,-1.1505,-1.2364,-1.3193,-1.3935,-1.4137,-1.4274,-1.4418,-1.4425,-1.4497,-1.4704,-1.5806,-1.6145,-1.6706,-1.7431,-1.8002,-1.8364,-1.8443,-1.8816,-1.9091,-1.9356,-1.9427,-1.9557,-1.952,-1.958,-1.9863,-2.0255,-2.1006,-2.1676,-2.1598,-2.1948,-2.2394,-2.255,-2.2596,-2.2581,-2.2132,-2.2062,-2.1822,-2.1177,-2.0839,-2.0664,-2.0402,-2.0281,-2.0281,-2.0216,-2.0456,-2.0671,-2.082,-2.1169,-2.1474,-2.2357,-2.3396,-2.4772,-2.5623,-2.6181,-2.666,-2.7131,-2.7324,-2.7229,-2.7046,-2.6823,-2.6647,-2.644,-2.6198,-2.6139,-2.6059,-2.6061,-2.5938,-2.5967,-2.5925,-2.5966,-2.6048,-2.6115,-2.6141,-2.6096,-2.6204,-2.6204,-2.6204,-2.6258,-2.6258,-2.634,-2.6651,-2.7394,-2.781,-2.791,-2.8081,-2.7801,-2.7668,-2.7465,-2.7389,-2.7607,-2.7181,-2.6745,-2.6753,-2.6753,-2.7394,-2.7817,-2.7915,-2.8134,-2.844,-2.8601,-2.863,-2.8557,-2.8367,-2.809,-2.7637,-2.7471,-2.7187,-2.7276,-2.7415,-2.7614,-2.7947,-0.9655,-0.9971,-1.0408,-1.0738,-1.1109,-1.1885,-1.2592,-1.3119,-1.363,-1.3992,-1.4145,-1.4361,-1.4425,-1.468,-1.5699,-1.6286,-1.642,-1.7471,-1.8095,-1.8175,-1.8282,-1.8442,-1.8772,-1.9038,-1.9197,-1.925,-1.939,-1.946,-1.9557,-1.991,-2.0545,-2.1282,-2.1213,-2.1827,-2.2347,-2.2687,-2.3035,-2.3065,-2.295,-2.27,-2.2306,-2.18,-2.1396,-2.1297,-2.0948,-2.0839,-2.0893,-2.076,-2.0841,-2.1108,-2.1295,-2.1558,-2.2043,-2.2935,-2.3701,-2.4958,-2.5635,-2.608,-2.6536,-2.7085,-2.7338,-2.7485,-2.7511,-2.7477,-2.7171,-2.6904,-2.6647,-2.644,-2.6503,-2.6466,-2.6233,-2.607,-2.5919,-2.5825,-2.5868,-2.5911,-2.5841,-2.5716,-2.5743,-2.5743,-2.5798,-2.5853,-2.5907,-2.5962,-2.6173,-2.6764,-2.7201,-2.7412,-2.7979,-2.8466,-2.8496,-2.8482,-2.8268,-2.8211,-2.7683,-2.7383,-2.7669,-2.7911,-2.8368,-2.8626,-2.8454,-2.8569,-2.8913,-2.8898,-2.8813,-2.8626,-2.8412,-2.8096,-2.7723,-2.7465,-2.7403,-2.7534,-2.7733,-2.7906,-2.8338,-0.9498,-0.9655,-0.9801,-1.0335,-1.1006,-1.1633,-1.197,-1.2083,-1.2973,-1.3499,-1.3783,-1.4137,-1.4281,-1.4558,-1.5565,-1.6185,-1.6577,-1.7347,-1.7951,-1.7951,-1.8031,-1.8282,-1.8531,-1.8709,-1.8949,-1.9011,-1.9152,-1.9311,-1.939,-1.9604,-2.0099,-2.0809,-2.0922,-2.1458,-2.2227,-2.2553,-2.289,-2.3241,-2.3034,-2.2819,-2.3037,-2.2557,-2.1887,-2.2099,-2.2007,-2.1822,-2.2007,-2.1909,-2.1684,-2.1849,-2.1931,-2.2139,-2.2856,-2.3464,-2.4124,-2.4699,-2.5371,-2.5726,-2.6114,-2.6564,-2.6824,-2.7095,-2.743,-2.7499,-2.7299,-2.735,-2.7223,-2.6959,-2.6911,-2.6808,-2.6576,-2.6499,-2.6362,-2.6284,-2.626,-2.607,-2.5825,-2.5632,-2.5411,-2.5467,-2.5522,-2.5522,-2.5578,-2.5633,-2.5813,-2.6216,-2.6618,-2.6882,-2.7315,-2.825,-2.8535,-2.8675,-2.8426,-2.8158,-2.8478,-2.8366,-2.8886,-2.9237,-2.9223,-2.9223,-2.8904,-2.904,-2.9344,-2.8904,-2.8302,-2.8398,-2.8229,-2.7808,-2.7413,-2.7371,-2.7371,-2.7755,-2.795,-2.7919,-2.8174,-0.8981,-0.9456,-0.9784,-1.0236,-1.0773,-1.1075,-1.1376,-1.1632,-1.2083,-1.2673,-1.3119,-1.3492,-1.3928,-1.4309,-1.5288,-1.5904,-1.6313,-1.7171,-1.7632,-1.787,-1.787,-1.8031,-1.8362,-1.8451,-1.8692,-1.8931,-1.9073,-1.9152,-1.932,-1.9473,-1.9829,-2.0743,-2.0851,-2.1158,-2.2126,-2.2334,-2.2651,-2.3071,-2.2767,-2.2849,-2.3334,-2.3025,-2.254,-2.2604,-2.2548,-2.2491,-2.2575,-2.2313,-2.1991,-2.1867,-2.1849,-2.2351,-2.319,-2.363,-2.412,-2.4661,-2.5016,-2.5288,-2.5594,-2.5943,-2.6233,-2.6496,-2.6837,-2.704,-2.7313,-2.7719,-2.7786,-2.7463,-2.7269,-2.7141,-2.7054,-2.6945,-2.6884,-2.6775,-2.6699,-2.6276,-2.5854,-2.5513,-2.5213,-2.5188,-2.5244,-2.53,-2.53,-2.5397,-2.5521,-2.5854,-2.6226,-2.6503,-2.651,-2.7069,-2.7367,-2.752,-2.7704,-2.7746,-2.831,-2.8602,-2.8685,-2.8907,-2.8837,-2.899,-2.917,-2.9087,-2.8893,-2.8163,-2.7635,-2.7885,-2.7815,-2.7134,-2.6856,-2.7025,-2.7057,-2.7214,-2.7201,-2.7226,-2.7559,-0.8694,-0.8992,-0.9567,-1.0101,-1.0526,-1.0742,-1.1016,-1.1304,-1.1558,-1.1929,-1.2305,-1.29,-1.3411,-1.3872,-1.4919,-1.5605,-1.5971,-1.6973,-1.739,-1.7627,-1.7708,-1.787,-1.8112,-1.8282,-1.8442,-1.8683,-1.8922,-1.9082,-1.9356,-1.9586,-2.0016,-2.0699,-2.0671,-2.1137,-2.2015,-2.2149,-2.2303,-2.263,-2.2257,-2.2551,-2.3216,-2.2882,-2.2913,-2.299,-2.3208,-2.3275,-2.3351,-2.3188,-2.2805,-2.2728,-2.27,-2.2921,-2.3492,-2.3858,-2.414,-2.4517,-2.4754,-2.4909,-2.5123,-2.5407,-2.5688,-2.5943,-2.6358,-2.6633,-2.6769,-2.7115,-2.7643,-2.743,-2.7715,-2.7618,-2.7692,-2.766,-2.7466,-2.7352,-2.7135,-2.687,-2.6272,-2.5728,-2.5374,-2.5075,-2.5131,-2.5131,-2.5118,-2.5131,-2.5298,-2.5312,-2.5695,-2.5931,-2.5952,-2.6294,-2.6448,-2.6644,-2.6964,-2.7083,-2.7407,-2.7653,-2.779,-2.8036,-2.8496,-2.8359,-2.8345,-2.8469,-2.8304,-2.781,-2.7597,-2.7605,-2.7358,-2.6823,-2.6744,-2.6955,-2.6765,-2.6618,-2.6621,-2.6834,-2.7386,-0.8382,-0.8609,-0.9328,-0.9864,-1.0269,-1.0568,-1.0834,-1.1075,-1.126,-1.1409,-1.1484,-1.2305,-1.282,-1.3474,-1.4364,-1.5019,-1.574,-1.6525,-1.7001,-1.7302,-1.7546,-1.7708,-1.7861,-1.8112,-1.8273,-1.8603,-1.8843,-1.9154,-1.9476,-1.9732,-2.0072,-2.0558,-2.1124,-2.1668,-2.1966,-2.2157,-2.2299,-2.2188,-2.1987,-2.1861,-2.2231,-2.2646,-2.2967,-2.3402,-2.3917,-2.4341,-2.4438,-2.4259,-2.3874,-2.3667,-2.3552,-2.3604,-2.37,-2.3929,-2.4169,-2.4406,-2.449,-2.4634,-2.4778,-2.5064,-2.5265,-2.5453,-2.5886,-2.6164,-2.6289,-2.662,-2.7149,-2.7417,-2.7696,-2.8026,-2.809,-2.8074,-2.7857,-2.7755,-2.7512,-2.7317,-2.6654,-2.6004,-2.5598,-2.5192,-2.5168,-2.5168,-2.5059,-2.5059,-2.5141,-2.5113,-2.5181,-2.5222,-2.5439,-2.6,-2.6372,-2.6508,-2.6699,-2.6802,-2.6864,-2.7196,-2.7455,-2.789,-2.8307,-2.7849,-2.7583,-2.7903,-2.8102,-2.7971,-2.7781,-2.7495,-2.7319,-2.6998,-2.693,-2.6977,-2.6836,-2.6734,-2.7017,-2.7218,-2.7586,-0.7982,-0.8517,-0.9144,-0.9693,-1.0101,-1.0329,-1.0671,-1.1069,-1.1111,-1.1186,-1.126,-1.1477,-1.2003,-1.2707,-1.3705,-1.4443,-1.5101,-1.5921,-1.6429,-1.6812,-1.7139,-1.7383,-1.7652,-1.7938,-1.821,-1.8593,-1.9012,-1.9299,-1.9787,-1.9952,-2.0301,-2.0934,-2.1016,-2.1415,-2.1747,-2.1882,-2.1878,-2.1811,-2.171,-2.157,-2.1652,-2.2119,-2.2724,-2.3391,-2.4158,-2.4502,-2.4602,-2.4583,-2.4512,-2.4312,-2.4073,-2.3869,-2.3846,-2.3943,-2.4043,-2.4261,-2.4273,-2.4429,-2.4562,-2.4849,-2.4981,-2.5123,-2.5535,-2.5746,-2.5943,-2.6151,-2.6483,-2.6633,-2.6973,-2.7577,-2.767,-2.7802,-2.7682,-2.7706,-2.7584,-2.7431,-2.6961,-2.6539,-2.6122,-2.5878,-2.5679,-2.549,-2.5206,-2.5354,-2.5679,-2.5761,-2.6031,-2.6072,-2.6013,-2.6207,-2.6302,-2.6437,-2.66,-2.6701,-2.685,-2.723,-2.7542,-2.7976,-2.822,-2.7963,-2.7786,-2.7691,-2.7773,-2.7936,-2.761,-2.7216,-2.7054,-2.7339,-2.7162,-2.7169,-2.7032,-2.7028,-2.7308,-2.7663,-2.8107]}]]